<?xml version="1.0" encoding="UTF-8" standalone="no" ?>
<gpx xmlns="http://www.topografix.com/GPX/1/1" xmlns:xsi="http://www.w3.org/2001/XMLSchema-instance" xsi:schemaLocation="http://www.topografix.com/GPX/1/1 http://www.topografix.com/GPX/1/1/gpx.xsd" version="1.1" creator="VisuGPX - https://www.visugpx.com">
  <metadata>
    <name>Abbaye de Sénanque, Gordes, Village des Bories</name>
  </metadata>
  <trk>
    <name><![CDATA[Abbaye de Sénanque, Gordes, Village des Bories]]></name>
    <trkseg>
      <trkpt lat="43.93099" lon="5.18909">
        <ele>379.699</ele>
        <time>2020-09-11T10:15:36Z</time>
      </trkpt>
      <trkpt lat="43.93094" lon="5.18908">
        <ele>379.607</ele>
        <time>2020-09-11T10:16:09Z</time>
      </trkpt>
      <trkpt lat="43.9309" lon="5.18907">
        <ele>379.627</ele>
        <time>2020-09-11T10:16:13Z</time>
      </trkpt>
      <trkpt lat="43.93084" lon="5.18907">
        <ele>379.608</ele>
        <time>2020-09-11T10:16:17Z</time>
      </trkpt>
      <trkpt lat="43.9308" lon="5.18906">
        <ele>379.644</ele>
        <time>2020-09-11T10:16:27Z</time>
      </trkpt>
      <trkpt lat="43.93075" lon="5.18903">
        <ele>379.655</ele>
        <time>2020-09-11T10:16:37Z</time>
      </trkpt>
      <trkpt lat="43.93071" lon="5.18899">
        <ele>379.664</ele>
        <time>2020-09-11T10:16:43Z</time>
      </trkpt>
      <trkpt lat="43.93067" lon="5.18895">
        <ele>379.672</ele>
        <time>2020-09-11T10:16:47Z</time>
      </trkpt>
      <trkpt lat="43.93063" lon="5.18897">
        <ele>379.674</ele>
        <time>2020-09-11T10:16:54Z</time>
      </trkpt>
      <trkpt lat="43.93058" lon="5.18896">
        <ele>379.614</ele>
        <time>2020-09-11T10:17:01Z</time>
      </trkpt>
      <trkpt lat="43.93054" lon="5.18892">
        <ele>379.624</ele>
        <time>2020-09-11T10:17:04Z</time>
      </trkpt>
      <trkpt lat="43.9305" lon="5.18887">
        <ele>379.663</ele>
        <time>2020-09-11T10:17:07Z</time>
      </trkpt>
      <trkpt lat="43.93045" lon="5.18884">
        <ele>379.617</ele>
        <time>2020-09-11T10:17:12Z</time>
      </trkpt>
      <trkpt lat="43.93041" lon="5.18887">
        <ele>379.687</ele>
        <time>2020-09-11T10:17:22Z</time>
      </trkpt>
      <trkpt lat="43.93035" lon="5.18888">
        <ele>379.615</ele>
        <time>2020-09-11T10:17:27Z</time>
      </trkpt>
      <trkpt lat="43.93029" lon="5.18889">
        <ele>379.308</ele>
        <time>2020-09-11T10:17:32Z</time>
      </trkpt>
      <trkpt lat="43.93025" lon="5.18889">
        <ele>379.276</ele>
        <time>2020-09-11T10:17:34Z</time>
      </trkpt>
      <trkpt lat="43.9302" lon="5.18886">
        <ele>379.357</ele>
        <time>2020-09-11T10:17:37Z</time>
      </trkpt>
      <trkpt lat="43.93015" lon="5.18882">
        <ele>379.276</ele>
        <time>2020-09-11T10:17:41Z</time>
      </trkpt>
      <trkpt lat="43.93011" lon="5.18878">
        <ele>378.694</ele>
        <time>2020-09-11T10:17:43Z</time>
      </trkpt>
      <trkpt lat="43.93008" lon="5.18872">
        <ele>378.736</ele>
        <time>2020-09-11T10:17:47Z</time>
      </trkpt>
      <trkpt lat="43.93004" lon="5.18865">
        <ele>378.456</ele>
        <time>2020-09-11T10:17:51Z</time>
      </trkpt>
      <trkpt lat="43.93001" lon="5.18858">
        <ele>378.096</ele>
        <time>2020-09-11T10:17:54Z</time>
      </trkpt>
      <trkpt lat="43.92997" lon="5.18853">
        <ele>378.455</ele>
        <time>2020-09-11T10:17:58Z</time>
      </trkpt>
      <trkpt lat="43.92993" lon="5.18848">
        <ele>378.458</ele>
        <time>2020-09-11T10:18:02Z</time>
      </trkpt>
      <trkpt lat="43.92989" lon="5.18844">
        <ele>377.952</ele>
        <time>2020-09-11T10:18:06Z</time>
      </trkpt>
      <trkpt lat="43.92985" lon="5.1884">
        <ele>378.117</ele>
        <time>2020-09-11T10:18:10Z</time>
      </trkpt>
      <trkpt lat="43.9298" lon="5.18836">
        <ele>377.108</ele>
        <time>2020-09-11T10:18:15Z</time>
      </trkpt>
      <trkpt lat="43.92976" lon="5.18832">
        <ele>377.75</ele>
        <time>2020-09-11T10:18:20Z</time>
      </trkpt>
      <trkpt lat="43.92972" lon="5.18828">
        <ele>377.351</ele>
        <time>2020-09-11T10:18:25Z</time>
      </trkpt>
      <trkpt lat="43.92967" lon="5.18824">
        <ele>377.35</ele>
        <time>2020-09-11T10:18:28Z</time>
      </trkpt>
      <trkpt lat="43.92961" lon="5.18822">
        <ele>377.218</ele>
        <time>2020-09-11T10:18:33Z</time>
      </trkpt>
      <trkpt lat="43.92956" lon="5.1882">
        <ele>376.82</ele>
        <time>2020-09-11T10:18:37Z</time>
      </trkpt>
      <trkpt lat="43.92952" lon="5.18818">
        <ele>376.77</ele>
        <time>2020-09-11T10:18:41Z</time>
      </trkpt>
      <trkpt lat="43.92947" lon="5.18817">
        <ele>376.68</ele>
        <time>2020-09-11T10:18:46Z</time>
      </trkpt>
      <trkpt lat="43.92942" lon="5.18818">
        <ele>376.589</ele>
        <time>2020-09-11T10:18:50Z</time>
      </trkpt>
      <trkpt lat="43.92937" lon="5.18818">
        <ele>376.418</ele>
        <time>2020-09-11T10:18:56Z</time>
      </trkpt>
      <trkpt lat="43.92934" lon="5.18811">
        <ele>375.898</ele>
        <time>2020-09-11T10:19:10Z</time>
      </trkpt>
      <trkpt lat="43.92934" lon="5.18804">
        <ele>375.117</ele>
        <time>2020-09-11T10:19:15Z</time>
      </trkpt>
      <trkpt lat="43.92936" lon="5.18798">
        <ele>374.508</ele>
        <time>2020-09-11T10:19:20Z</time>
      </trkpt>
      <trkpt lat="43.92937" lon="5.18792">
        <ele>374.286</ele>
        <time>2020-09-11T10:19:25Z</time>
      </trkpt>
      <trkpt lat="43.92938" lon="5.18785">
        <ele>373.887</ele>
        <time>2020-09-11T10:19:29Z</time>
      </trkpt>
      <trkpt lat="43.9294" lon="5.18778">
        <ele>372.626</ele>
        <time>2020-09-11T10:19:33Z</time>
      </trkpt>
      <trkpt lat="43.92941" lon="5.18771">
        <ele>372.224</ele>
        <time>2020-09-11T10:19:37Z</time>
      </trkpt>
      <trkpt lat="43.9294" lon="5.18764">
        <ele>373.146</ele>
        <time>2020-09-11T10:19:42Z</time>
      </trkpt>
      <trkpt lat="43.92937" lon="5.18758">
        <ele>372.346</ele>
        <time>2020-09-11T10:19:46Z</time>
      </trkpt>
      <trkpt lat="43.92934" lon="5.18753">
        <ele>372.046</ele>
        <time>2020-09-11T10:19:50Z</time>
      </trkpt>
      <trkpt lat="43.9293" lon="5.18749">
        <ele>371.915</ele>
        <time>2020-09-11T10:19:54Z</time>
      </trkpt>
      <trkpt lat="43.92925" lon="5.18746">
        <ele>372.175</ele>
        <time>2020-09-11T10:20:00Z</time>
      </trkpt>
      <trkpt lat="43.92924" lon="5.1874">
        <ele>372.728</ele>
        <time>2020-09-11T10:20:48Z</time>
      </trkpt>
      <trkpt lat="43.92924" lon="5.18732">
        <ele>372.42</ele>
        <time>2020-09-11T10:20:56Z</time>
      </trkpt>
      <trkpt lat="43.9292" lon="5.18726">
        <ele>371.408</ele>
        <time>2020-09-11T10:21:00Z</time>
      </trkpt>
      <trkpt lat="43.92918" lon="5.18722">
        <ele>371.892</ele>
        <time>2020-09-11T10:21:04Z</time>
      </trkpt>
      <trkpt lat="43.92915" lon="5.18716">
        <ele>371.593</ele>
        <time>2020-09-11T10:21:07Z</time>
      </trkpt>
      <trkpt lat="43.92912" lon="5.18711">
        <ele>371.462</ele>
        <time>2020-09-11T10:21:11Z</time>
      </trkpt>
      <trkpt lat="43.92908" lon="5.18706">
        <ele>371.29</ele>
        <time>2020-09-11T10:21:14Z</time>
      </trkpt>
      <trkpt lat="43.92904" lon="5.18703">
        <ele>370.872</ele>
        <time>2020-09-11T10:21:18Z</time>
      </trkpt>
      <trkpt lat="43.92899" lon="5.18701">
        <ele>370.992</ele>
        <time>2020-09-11T10:21:22Z</time>
      </trkpt>
      <trkpt lat="43.92895" lon="5.18701">
        <ele>370.982</ele>
        <time>2020-09-11T10:21:33Z</time>
      </trkpt>
      <trkpt lat="43.9289" lon="5.18699">
        <ele>370.761</ele>
        <time>2020-09-11T10:21:42Z</time>
      </trkpt>
      <trkpt lat="43.92885" lon="5.18696">
        <ele>370.778</ele>
        <time>2020-09-11T10:21:49Z</time>
      </trkpt>
      <trkpt lat="43.92881" lon="5.18692">
        <ele>370.733</ele>
        <time>2020-09-11T10:21:55Z</time>
      </trkpt>
      <trkpt lat="43.92887" lon="5.18693">
        <ele>370.826</ele>
        <time>2020-09-11T10:22:07Z</time>
      </trkpt>
      <trkpt lat="43.92884" lon="5.18688">
        <ele>370.208</ele>
        <time>2020-09-11T10:23:00Z</time>
      </trkpt>
      <trkpt lat="43.92889" lon="5.1869">
        <ele>369.822</ele>
        <time>2020-09-11T10:23:27Z</time>
      </trkpt>
      <trkpt lat="43.92893" lon="5.18692">
        <ele>370.033</ele>
        <time>2020-09-11T10:23:32Z</time>
      </trkpt>
      <trkpt lat="43.92898" lon="5.18696">
        <ele>370.232</ele>
        <time>2020-09-11T10:23:37Z</time>
      </trkpt>
      <trkpt lat="43.92902" lon="5.18698">
        <ele>370.26</ele>
        <time>2020-09-11T10:23:40Z</time>
      </trkpt>
      <trkpt lat="43.92905" lon="5.18692">
        <ele>370.532</ele>
        <time>2020-09-11T10:23:48Z</time>
      </trkpt>
      <trkpt lat="43.92903" lon="5.18686">
        <ele>370.632</ele>
        <time>2020-09-11T10:23:55Z</time>
      </trkpt>
      <trkpt lat="43.92905" lon="5.18693">
        <ele>370.892</ele>
        <time>2020-09-11T10:24:02Z</time>
      </trkpt>
      <trkpt lat="43.92906" lon="5.18698">
        <ele>370.731</ele>
        <time>2020-09-11T10:24:06Z</time>
      </trkpt>
      <trkpt lat="43.92907" lon="5.18705">
        <ele>370.575</ele>
        <time>2020-09-11T10:24:11Z</time>
      </trkpt>
      <trkpt lat="43.92911" lon="5.18709">
        <ele>370.828</ele>
        <time>2020-09-11T10:24:16Z</time>
      </trkpt>
      <trkpt lat="43.92915" lon="5.18715">
        <ele>370.72</ele>
        <time>2020-09-11T10:24:21Z</time>
      </trkpt>
      <trkpt lat="43.92919" lon="5.1872">
        <ele>370.908</ele>
        <time>2020-09-11T10:24:25Z</time>
      </trkpt>
      <trkpt lat="43.92921" lon="5.18725">
        <ele>371.042</ele>
        <time>2020-09-11T10:24:28Z</time>
      </trkpt>
      <trkpt lat="43.92924" lon="5.18731">
        <ele>371.393</ele>
        <time>2020-09-11T10:24:32Z</time>
      </trkpt>
      <trkpt lat="43.92927" lon="5.18736">
        <ele>369.992</ele>
        <time>2020-09-11T10:24:36Z</time>
      </trkpt>
      <trkpt lat="43.9293" lon="5.18742">
        <ele>371.37</ele>
        <time>2020-09-11T10:24:40Z</time>
      </trkpt>
      <trkpt lat="43.92933" lon="5.18748">
        <ele>371.312</ele>
        <time>2020-09-11T10:24:44Z</time>
      </trkpt>
      <trkpt lat="43.92937" lon="5.18754">
        <ele>371.562</ele>
        <time>2020-09-11T10:24:49Z</time>
      </trkpt>
      <trkpt lat="43.92939" lon="5.1876">
        <ele>371.552</ele>
        <time>2020-09-11T10:24:55Z</time>
      </trkpt>
      <trkpt lat="43.92941" lon="5.18765">
        <ele>372.211</ele>
        <time>2020-09-11T10:24:59Z</time>
      </trkpt>
      <trkpt lat="43.92943" lon="5.18772">
        <ele>372.736</ele>
        <time>2020-09-11T10:25:04Z</time>
      </trkpt>
      <trkpt lat="43.92942" lon="5.18779">
        <ele>373.317</ele>
        <time>2020-09-11T10:25:09Z</time>
      </trkpt>
      <trkpt lat="43.92941" lon="5.18786">
        <ele>373.918</ele>
        <time>2020-09-11T10:25:13Z</time>
      </trkpt>
      <trkpt lat="43.92938" lon="5.18792">
        <ele>374.308</ele>
        <time>2020-09-11T10:25:18Z</time>
      </trkpt>
      <trkpt lat="43.92935" lon="5.18797">
        <ele>374.778</ele>
        <time>2020-09-11T10:25:23Z</time>
      </trkpt>
      <trkpt lat="43.92932" lon="5.18803">
        <ele>375.499</ele>
        <time>2020-09-11T10:25:28Z</time>
      </trkpt>
      <trkpt lat="43.92927" lon="5.18805">
        <ele>375.858</ele>
        <time>2020-09-11T10:25:33Z</time>
      </trkpt>
      <trkpt lat="43.92922" lon="5.18805">
        <ele>376.026</ele>
        <time>2020-09-11T10:25:37Z</time>
      </trkpt>
      <trkpt lat="43.92918" lon="5.18801">
        <ele>375.958</ele>
        <time>2020-09-11T10:25:42Z</time>
      </trkpt>
      <trkpt lat="43.92913" lon="5.18797">
        <ele>375.558</ele>
        <time>2020-09-11T10:25:47Z</time>
      </trkpt>
      <trkpt lat="43.92918" lon="5.18795">
        <ele>374.248</ele>
        <time>2020-09-11T10:27:09Z</time>
      </trkpt>
      <trkpt lat="43.92922" lon="5.1879">
        <ele>373.787</ele>
        <time>2020-09-11T10:27:13Z</time>
      </trkpt>
      <trkpt lat="43.92925" lon="5.18782">
        <ele>373.421</ele>
        <time>2020-09-11T10:27:18Z</time>
      </trkpt>
      <trkpt lat="43.92923" lon="5.18776">
        <ele>374.241</ele>
        <time>2020-09-11T10:27:38Z</time>
      </trkpt>
      <trkpt lat="43.92921" lon="5.18784">
        <ele>374.805</ele>
        <time>2020-09-11T10:28:35Z</time>
      </trkpt>
      <trkpt lat="43.92918" lon="5.1879">
        <ele>375.208</ele>
        <time>2020-09-11T10:28:40Z</time>
      </trkpt>
      <trkpt lat="43.92916" lon="5.18796">
        <ele>376.077</ele>
        <time>2020-09-11T10:29:02Z</time>
      </trkpt>
      <trkpt lat="43.92921" lon="5.18798">
        <ele>375.678</ele>
        <time>2020-09-11T10:29:09Z</time>
      </trkpt>
      <trkpt lat="43.92926" lon="5.18795">
        <ele>375.477</ele>
        <time>2020-09-11T10:29:12Z</time>
      </trkpt>
      <trkpt lat="43.92932" lon="5.18794">
        <ele>375.725</ele>
        <time>2020-09-11T10:29:16Z</time>
      </trkpt>
      <trkpt lat="43.92937" lon="5.18795">
        <ele>376.257</ele>
        <time>2020-09-11T10:29:19Z</time>
      </trkpt>
      <trkpt lat="43.92942" lon="5.18797">
        <ele>376.477</ele>
        <time>2020-09-11T10:29:24Z</time>
      </trkpt>
      <trkpt lat="43.92947" lon="5.188">
        <ele>376.467</ele>
        <time>2020-09-11T10:29:28Z</time>
      </trkpt>
      <trkpt lat="43.92952" lon="5.18803">
        <ele>376.716</ele>
        <time>2020-09-11T10:29:32Z</time>
      </trkpt>
      <trkpt lat="43.92956" lon="5.18807">
        <ele>376.891</ele>
        <time>2020-09-11T10:29:36Z</time>
      </trkpt>
      <trkpt lat="43.92961" lon="5.18811">
        <ele>376.681</ele>
        <time>2020-09-11T10:29:41Z</time>
      </trkpt>
      <trkpt lat="43.92966" lon="5.18815">
        <ele>376.819</ele>
        <time>2020-09-11T10:29:45Z</time>
      </trkpt>
      <trkpt lat="43.92962" lon="5.18818">
        <ele>376.808</ele>
        <time>2020-09-11T10:30:01Z</time>
      </trkpt>
      <trkpt lat="43.92956" lon="5.18819">
        <ele>376.464</ele>
        <time>2020-09-11T10:30:06Z</time>
      </trkpt>
      <trkpt lat="43.92952" lon="5.18819">
        <ele>376.595</ele>
        <time>2020-09-11T10:30:09Z</time>
      </trkpt>
      <trkpt lat="43.92946" lon="5.18819">
        <ele>376.554</ele>
        <time>2020-09-11T10:30:14Z</time>
      </trkpt>
      <trkpt lat="43.92941" lon="5.18819">
        <ele>376.382</ele>
        <time>2020-09-11T10:30:18Z</time>
      </trkpt>
      <trkpt lat="43.92936" lon="5.18818">
        <ele>375.524</ele>
        <time>2020-09-11T10:30:22Z</time>
      </trkpt>
      <trkpt lat="43.92933" lon="5.18812">
        <ele>375.124</ele>
        <time>2020-09-11T10:30:25Z</time>
      </trkpt>
      <trkpt lat="43.92933" lon="5.18805">
        <ele>374.444</ele>
        <time>2020-09-11T10:30:29Z</time>
      </trkpt>
      <trkpt lat="43.92935" lon="5.18798">
        <ele>374.153</ele>
        <time>2020-09-11T10:30:31Z</time>
      </trkpt>
      <trkpt lat="43.92937" lon="5.18792">
        <ele>373.545</ele>
        <time>2020-09-11T10:30:34Z</time>
      </trkpt>
      <trkpt lat="43.92939" lon="5.18786">
        <ele>373.047</ele>
        <time>2020-09-11T10:30:37Z</time>
      </trkpt>
      <trkpt lat="43.92939" lon="5.18779">
        <ele>372.311</ele>
        <time>2020-09-11T10:30:41Z</time>
      </trkpt>
      <trkpt lat="43.92939" lon="5.18773">
        <ele>372.108</ele>
        <time>2020-09-11T10:30:44Z</time>
      </trkpt>
      <trkpt lat="43.92937" lon="5.18766">
        <ele>371.949</ele>
        <time>2020-09-11T10:30:48Z</time>
      </trkpt>
      <trkpt lat="43.92934" lon="5.1876">
        <ele>371.47</ele>
        <time>2020-09-11T10:30:53Z</time>
      </trkpt>
      <trkpt lat="43.92931" lon="5.18755">
        <ele>371.279</ele>
        <time>2020-09-11T10:30:57Z</time>
      </trkpt>
      <trkpt lat="43.92928" lon="5.18749">
        <ele>371.197</ele>
        <time>2020-09-11T10:31:02Z</time>
      </trkpt>
      <trkpt lat="43.92925" lon="5.18743">
        <ele>371.169</ele>
        <time>2020-09-11T10:31:06Z</time>
      </trkpt>
      <trkpt lat="43.92923" lon="5.18737">
        <ele>370.919</ele>
        <time>2020-09-11T10:31:10Z</time>
      </trkpt>
      <trkpt lat="43.92921" lon="5.18732">
        <ele>370.689</ele>
        <time>2020-09-11T10:31:15Z</time>
      </trkpt>
      <trkpt lat="43.92918" lon="5.18725">
        <ele>370.548</ele>
        <time>2020-09-11T10:31:19Z</time>
      </trkpt>
      <trkpt lat="43.92914" lon="5.1872">
        <ele>370.742</ele>
        <time>2020-09-11T10:31:24Z</time>
      </trkpt>
      <trkpt lat="43.92911" lon="5.18715">
        <ele>370.522</ele>
        <time>2020-09-11T10:31:29Z</time>
      </trkpt>
      <trkpt lat="43.92907" lon="5.18709">
        <ele>369.914</ele>
        <time>2020-09-11T10:31:33Z</time>
      </trkpt>
      <trkpt lat="43.92903" lon="5.18706">
        <ele>370.208</ele>
        <time>2020-09-11T10:31:38Z</time>
      </trkpt>
      <trkpt lat="43.92899" lon="5.18703">
        <ele>370.029</ele>
        <time>2020-09-11T10:31:42Z</time>
      </trkpt>
      <trkpt lat="43.92894" lon="5.18701">
        <ele>369.88</ele>
        <time>2020-09-11T10:31:47Z</time>
      </trkpt>
      <trkpt lat="43.9289" lon="5.18698">
        <ele>369.449</ele>
        <time>2020-09-11T10:31:52Z</time>
      </trkpt>
      <trkpt lat="43.92895" lon="5.18695">
        <ele>369.137</ele>
        <time>2020-09-11T10:33:13Z</time>
      </trkpt>
      <trkpt lat="43.9289" lon="5.18693">
        <ele>368.549</ele>
        <time>2020-09-11T10:35:02Z</time>
      </trkpt>
      <trkpt lat="43.92894" lon="5.18698">
        <ele>368.259</ele>
        <time>2020-09-11T10:36:58Z</time>
      </trkpt>
      <trkpt lat="43.92897" lon="5.18702">
        <ele>368.399</ele>
        <time>2020-09-11T10:37:02Z</time>
      </trkpt>
      <trkpt lat="43.92902" lon="5.18706">
        <ele>368.458</ele>
        <time>2020-09-11T10:37:05Z</time>
      </trkpt>
      <trkpt lat="43.92908" lon="5.18709">
        <ele>368.643</ele>
        <time>2020-09-11T10:37:09Z</time>
      </trkpt>
      <trkpt lat="43.92913" lon="5.18713">
        <ele>368.864</ele>
        <time>2020-09-11T10:37:12Z</time>
      </trkpt>
      <trkpt lat="43.92917" lon="5.18717">
        <ele>368.81</ele>
        <time>2020-09-11T10:37:15Z</time>
      </trkpt>
      <trkpt lat="43.92921" lon="5.18722">
        <ele>368.708</ele>
        <time>2020-09-11T10:37:18Z</time>
      </trkpt>
      <trkpt lat="43.92924" lon="5.18728">
        <ele>369.369</ele>
        <time>2020-09-11T10:37:22Z</time>
      </trkpt>
      <trkpt lat="43.92927" lon="5.18735">
        <ele>369.29</ele>
        <time>2020-09-11T10:37:26Z</time>
      </trkpt>
      <trkpt lat="43.92929" lon="5.18742">
        <ele>369.449</ele>
        <time>2020-09-11T10:37:30Z</time>
      </trkpt>
      <trkpt lat="43.92932" lon="5.18749">
        <ele>369.047</ele>
        <time>2020-09-11T10:37:35Z</time>
      </trkpt>
      <trkpt lat="43.92935" lon="5.18753">
        <ele>369.669</ele>
        <time>2020-09-11T10:37:38Z</time>
      </trkpt>
      <trkpt lat="43.92938" lon="5.1876">
        <ele>370.079</ele>
        <time>2020-09-11T10:37:43Z</time>
      </trkpt>
      <trkpt lat="43.9294" lon="5.18766">
        <ele>370.299</ele>
        <time>2020-09-11T10:37:47Z</time>
      </trkpt>
      <trkpt lat="43.92941" lon="5.18773">
        <ele>370.938</ele>
        <time>2020-09-11T10:37:53Z</time>
      </trkpt>
      <trkpt lat="43.9294" lon="5.18779">
        <ele>371.534</ele>
        <time>2020-09-11T10:37:56Z</time>
      </trkpt>
      <trkpt lat="43.92939" lon="5.18786">
        <ele>372.055</ele>
        <time>2020-09-11T10:38:00Z</time>
      </trkpt>
      <trkpt lat="43.92938" lon="5.18793">
        <ele>372.51</ele>
        <time>2020-09-11T10:38:04Z</time>
      </trkpt>
      <trkpt lat="43.92939" lon="5.18799">
        <ele>372.908</ele>
        <time>2020-09-11T10:38:09Z</time>
      </trkpt>
      <trkpt lat="43.92942" lon="5.18804">
        <ele>374.688</ele>
        <time>2020-09-11T10:38:17Z</time>
      </trkpt>
      <trkpt lat="43.92946" lon="5.18807">
        <ele>374.449</ele>
        <time>2020-09-11T10:38:25Z</time>
      </trkpt>
      <trkpt lat="43.92951" lon="5.18809">
        <ele>374.778</ele>
        <time>2020-09-11T10:38:29Z</time>
      </trkpt>
      <trkpt lat="43.92956" lon="5.1881">
        <ele>374.836</ele>
        <time>2020-09-11T10:38:33Z</time>
      </trkpt>
      <trkpt lat="43.92961" lon="5.18813">
        <ele>375.048</ele>
        <time>2020-09-11T10:38:38Z</time>
      </trkpt>
      <trkpt lat="43.92965" lon="5.18816">
        <ele>375.148</ele>
        <time>2020-09-11T10:38:42Z</time>
      </trkpt>
      <trkpt lat="43.92969" lon="5.18819">
        <ele>375.278</ele>
        <time>2020-09-11T10:38:46Z</time>
      </trkpt>
      <trkpt lat="43.92973" lon="5.18822">
        <ele>375.227</ele>
        <time>2020-09-11T10:38:50Z</time>
      </trkpt>
      <trkpt lat="43.92978" lon="5.18825">
        <ele>375.331</ele>
        <time>2020-09-11T10:38:54Z</time>
      </trkpt>
      <trkpt lat="43.92982" lon="5.18829">
        <ele>375.361</ele>
        <time>2020-09-11T10:38:58Z</time>
      </trkpt>
      <trkpt lat="43.92987" lon="5.18832">
        <ele>375.707</ele>
        <time>2020-09-11T10:39:02Z</time>
      </trkpt>
      <trkpt lat="43.92991" lon="5.18835">
        <ele>375.908</ele>
        <time>2020-09-11T10:39:06Z</time>
      </trkpt>
      <trkpt lat="43.92996" lon="5.18838">
        <ele>375.778</ele>
        <time>2020-09-11T10:39:10Z</time>
      </trkpt>
      <trkpt lat="43.93001" lon="5.18841">
        <ele>376.069</ele>
        <time>2020-09-11T10:39:14Z</time>
      </trkpt>
      <trkpt lat="43.93005" lon="5.18846">
        <ele>375.978</ele>
        <time>2020-09-11T10:39:18Z</time>
      </trkpt>
      <trkpt lat="43.93008" lon="5.18851">
        <ele>376.216</ele>
        <time>2020-09-11T10:39:23Z</time>
      </trkpt>
      <trkpt lat="43.93013" lon="5.18855">
        <ele>376.568</ele>
        <time>2020-09-11T10:39:27Z</time>
      </trkpt>
      <trkpt lat="43.93017" lon="5.18858">
        <ele>376.148</ele>
        <time>2020-09-11T10:39:31Z</time>
      </trkpt>
      <trkpt lat="43.93022" lon="5.18861">
        <ele>377.028</ele>
        <time>2020-09-11T10:39:35Z</time>
      </trkpt>
      <trkpt lat="43.93027" lon="5.18865">
        <ele>377.197</ele>
        <time>2020-09-11T10:39:39Z</time>
      </trkpt>
      <trkpt lat="43.93032" lon="5.18869">
        <ele>377.487</ele>
        <time>2020-09-11T10:39:44Z</time>
      </trkpt>
      <trkpt lat="43.93036" lon="5.18873">
        <ele>377.442</ele>
        <time>2020-09-11T10:39:47Z</time>
      </trkpt>
      <trkpt lat="43.93041" lon="5.18877">
        <ele>377.226</ele>
        <time>2020-09-11T10:39:52Z</time>
      </trkpt>
      <trkpt lat="43.93045" lon="5.18879">
        <ele>377.608</ele>
        <time>2020-09-11T10:39:56Z</time>
      </trkpt>
      <trkpt lat="43.9305" lon="5.18882">
        <ele>378.063</ele>
        <time>2020-09-11T10:40:00Z</time>
      </trkpt>
      <trkpt lat="43.93055" lon="5.18883">
        <ele>377.634</ele>
        <time>2020-09-11T10:40:04Z</time>
      </trkpt>
      <trkpt lat="43.93059" lon="5.18887">
        <ele>378.393</ele>
        <time>2020-09-11T10:40:08Z</time>
      </trkpt>
      <trkpt lat="43.93062" lon="5.18892">
        <ele>378.371</ele>
        <time>2020-09-11T10:40:13Z</time>
      </trkpt>
      <trkpt lat="43.93066" lon="5.18895">
        <ele>378.373</ele>
        <time>2020-09-11T10:40:17Z</time>
      </trkpt>
      <trkpt lat="43.93072" lon="5.18897">
        <ele>378.633</ele>
        <time>2020-09-11T10:40:22Z</time>
      </trkpt>
      <trkpt lat="43.93076" lon="5.18897">
        <ele>378.633</ele>
        <time>2020-09-11T10:40:27Z</time>
      </trkpt>
      <trkpt lat="43.93082" lon="5.18897">
        <ele>378.982</ele>
        <time>2020-09-11T10:40:31Z</time>
      </trkpt>
      <trkpt lat="43.93087" lon="5.18896">
        <ele>379.146</ele>
        <time>2020-09-11T10:40:35Z</time>
      </trkpt>
      <trkpt lat="43.93092" lon="5.18894">
        <ele>379.388</ele>
        <time>2020-09-11T10:40:40Z</time>
      </trkpt>
      <trkpt lat="43.93096" lon="5.18896">
        <ele>379.416</ele>
        <time>2020-09-11T10:40:45Z</time>
      </trkpt>
      <trkpt lat="43.93098" lon="5.18902">
        <ele>379.308</ele>
        <time>2020-09-11T10:40:52Z</time>
      </trkpt>
      <trkpt lat="43.93097" lon="5.18909">
        <ele>379.369</ele>
        <time>2020-09-11T10:41:05Z</time>
      </trkpt>
      <trkpt lat="43.93094" lon="5.18914">
        <ele>379.06</ele>
        <time>2020-09-11T10:41:12Z</time>
      </trkpt>
      <trkpt lat="43.9309" lon="5.18918">
        <ele>380.039</ele>
        <time>2020-09-11T10:41:23Z</time>
      </trkpt>
      <trkpt lat="43.93087" lon="5.18922">
        <ele>381.957</ele>
        <time>2020-09-11T10:41:43Z</time>
      </trkpt>
      <trkpt lat="43.93082" lon="5.18924">
        <ele>381.869</ele>
        <time>2020-09-11T10:41:48Z</time>
      </trkpt>
      <trkpt lat="43.93077" lon="5.18924">
        <ele>381.849</ele>
        <time>2020-09-11T10:41:52Z</time>
      </trkpt>
      <trkpt lat="43.93072" lon="5.18924">
        <ele>381.829</ele>
        <time>2020-09-11T10:41:57Z</time>
      </trkpt>
      <trkpt lat="43.93067" lon="5.18922">
        <ele>381.928</ele>
        <time>2020-09-11T10:42:02Z</time>
      </trkpt>
      <trkpt lat="43.93061" lon="5.18921">
        <ele>381.727</ele>
        <time>2020-09-11T10:42:06Z</time>
      </trkpt>
      <trkpt lat="43.93057" lon="5.18919">
        <ele>381.668</ele>
        <time>2020-09-11T10:42:11Z</time>
      </trkpt>
      <trkpt lat="43.93052" lon="5.18918">
        <ele>381.614</ele>
        <time>2020-09-11T10:42:16Z</time>
      </trkpt>
      <trkpt lat="43.93048" lon="5.18915">
        <ele>382.108</ele>
        <time>2020-09-11T10:42:23Z</time>
      </trkpt>
      <trkpt lat="43.93043" lon="5.18912">
        <ele>382.437</ele>
        <time>2020-09-11T10:42:28Z</time>
      </trkpt>
      <trkpt lat="43.93038" lon="5.18909">
        <ele>382.948</ele>
        <time>2020-09-11T10:42:32Z</time>
      </trkpt>
      <trkpt lat="43.93034" lon="5.18908">
        <ele>382.967</ele>
        <time>2020-09-11T10:42:36Z</time>
      </trkpt>
      <trkpt lat="43.93029" lon="5.18906">
        <ele>383.435</ele>
        <time>2020-09-11T10:42:42Z</time>
      </trkpt>
      <trkpt lat="43.93024" lon="5.18904">
        <ele>383.677</ele>
        <time>2020-09-11T10:42:47Z</time>
      </trkpt>
      <trkpt lat="43.93019" lon="5.18903">
        <ele>384.417</ele>
        <time>2020-09-11T10:42:52Z</time>
      </trkpt>
      <trkpt lat="43.93014" lon="5.18902">
        <ele>385.217</ele>
        <time>2020-09-11T10:42:57Z</time>
      </trkpt>
      <trkpt lat="43.93009" lon="5.18901">
        <ele>386.266</ele>
        <time>2020-09-11T10:43:03Z</time>
      </trkpt>
      <trkpt lat="43.93004" lon="5.18901">
        <ele>386.836</ele>
        <time>2020-09-11T10:43:09Z</time>
      </trkpt>
      <trkpt lat="43.92999" lon="5.18902">
        <ele>387.817</ele>
        <time>2020-09-11T10:43:14Z</time>
      </trkpt>
      <trkpt lat="43.92994" lon="5.18901">
        <ele>388.818</ele>
        <time>2020-09-11T10:43:20Z</time>
      </trkpt>
      <trkpt lat="43.9299" lon="5.189">
        <ele>389.108</ele>
        <time>2020-09-11T10:43:35Z</time>
      </trkpt>
      <trkpt lat="43.92985" lon="5.18899">
        <ele>390.568</ele>
        <time>2020-09-11T10:43:42Z</time>
      </trkpt>
      <trkpt lat="43.92981" lon="5.18898">
        <ele>391.819</ele>
        <time>2020-09-11T10:43:49Z</time>
      </trkpt>
      <trkpt lat="43.92976" lon="5.18899">
        <ele>392.848</ele>
        <time>2020-09-11T10:43:57Z</time>
      </trkpt>
      <trkpt lat="43.92971" lon="5.18899">
        <ele>393.936</ele>
        <time>2020-09-11T10:44:04Z</time>
      </trkpt>
      <trkpt lat="43.92966" lon="5.18899">
        <ele>394.958</ele>
        <time>2020-09-11T10:44:12Z</time>
      </trkpt>
      <trkpt lat="43.92962" lon="5.189">
        <ele>395.588</ele>
        <time>2020-09-11T10:44:18Z</time>
      </trkpt>
      <trkpt lat="43.92957" lon="5.18902">
        <ele>396.448</ele>
        <time>2020-09-11T10:44:24Z</time>
      </trkpt>
      <trkpt lat="43.92952" lon="5.18902">
        <ele>397.337</ele>
        <time>2020-09-11T10:44:32Z</time>
      </trkpt>
      <trkpt lat="43.92948" lon="5.18903">
        <ele>399.263</ele>
        <time>2020-09-11T10:44:55Z</time>
      </trkpt>
      <trkpt lat="43.92943" lon="5.18903">
        <ele>400.144</ele>
        <time>2020-09-11T10:45:00Z</time>
      </trkpt>
      <trkpt lat="43.92938" lon="5.18904">
        <ele>400.418</ele>
        <time>2020-09-11T10:45:06Z</time>
      </trkpt>
      <trkpt lat="43.92933" lon="5.18905">
        <ele>401.008</ele>
        <time>2020-09-11T10:45:12Z</time>
      </trkpt>
      <trkpt lat="43.92929" lon="5.18904">
        <ele>401.821</ele>
        <time>2020-09-11T10:45:19Z</time>
      </trkpt>
      <trkpt lat="43.92923" lon="5.18905">
        <ele>402.782</ele>
        <time>2020-09-11T10:45:26Z</time>
      </trkpt>
      <trkpt lat="43.92919" lon="5.18904">
        <ele>403.621</ele>
        <time>2020-09-11T10:45:36Z</time>
      </trkpt>
      <trkpt lat="43.92914" lon="5.18905">
        <ele>404.549</ele>
        <time>2020-09-11T10:45:46Z</time>
      </trkpt>
      <trkpt lat="43.92909" lon="5.18905">
        <ele>405.031</ele>
        <time>2020-09-11T10:45:51Z</time>
      </trkpt>
      <trkpt lat="43.92905" lon="5.18904">
        <ele>405.511</ele>
        <time>2020-09-11T10:45:55Z</time>
      </trkpt>
      <trkpt lat="43.929" lon="5.18903">
        <ele>406.421</ele>
        <time>2020-09-11T10:46:03Z</time>
      </trkpt>
      <trkpt lat="43.92895" lon="5.18902">
        <ele>408.15</ele>
        <time>2020-09-11T10:46:12Z</time>
      </trkpt>
      <trkpt lat="43.9289" lon="5.18899">
        <ele>408.577</ele>
        <time>2020-09-11T10:46:17Z</time>
      </trkpt>
      <trkpt lat="43.92885" lon="5.18897">
        <ele>408.761</ele>
        <time>2020-09-11T10:46:20Z</time>
      </trkpt>
      <trkpt lat="43.92881" lon="5.18894">
        <ele>408.727</ele>
        <time>2020-09-11T10:46:23Z</time>
      </trkpt>
      <trkpt lat="43.92876" lon="5.18892">
        <ele>409.108</ele>
        <time>2020-09-11T10:46:26Z</time>
      </trkpt>
      <trkpt lat="43.9287" lon="5.1889">
        <ele>409.162</ele>
        <time>2020-09-11T10:46:32Z</time>
      </trkpt>
      <trkpt lat="43.92866" lon="5.18888">
        <ele>409.263</ele>
        <time>2020-09-11T10:46:36Z</time>
      </trkpt>
      <trkpt lat="43.92861" lon="5.18886">
        <ele>409.612</ele>
        <time>2020-09-11T10:46:40Z</time>
      </trkpt>
      <trkpt lat="43.92857" lon="5.18883">
        <ele>409.94</ele>
        <time>2020-09-11T10:46:45Z</time>
      </trkpt>
      <trkpt lat="43.92852" lon="5.1888">
        <ele>410.962</ele>
        <time>2020-09-11T10:46:52Z</time>
      </trkpt>
      <trkpt lat="43.92848" lon="5.18876">
        <ele>410.992</ele>
        <time>2020-09-11T10:46:57Z</time>
      </trkpt>
      <trkpt lat="43.92844" lon="5.18873">
        <ele>411.542</ele>
        <time>2020-09-11T10:47:03Z</time>
      </trkpt>
      <trkpt lat="43.92839" lon="5.18871">
        <ele>411.331</ele>
        <time>2020-09-11T10:47:07Z</time>
      </trkpt>
      <trkpt lat="43.92834" lon="5.18868">
        <ele>411.782</ele>
        <time>2020-09-11T10:47:11Z</time>
      </trkpt>
      <trkpt lat="43.9283" lon="5.18864">
        <ele>411.643</ele>
        <time>2020-09-11T10:47:16Z</time>
      </trkpt>
      <trkpt lat="43.92827" lon="5.1886">
        <ele>412.217</ele>
        <time>2020-09-11T10:47:23Z</time>
      </trkpt>
      <trkpt lat="43.92822" lon="5.18858">
        <ele>412.308</ele>
        <time>2020-09-11T10:47:28Z</time>
      </trkpt>
      <trkpt lat="43.92818" lon="5.18855">
        <ele>412.273</ele>
        <time>2020-09-11T10:47:33Z</time>
      </trkpt>
      <trkpt lat="43.92813" lon="5.18854">
        <ele>412.144</ele>
        <time>2020-09-11T10:47:37Z</time>
      </trkpt>
      <trkpt lat="43.9281" lon="5.18849">
        <ele>412.533</ele>
        <time>2020-09-11T10:47:42Z</time>
      </trkpt>
      <trkpt lat="43.92805" lon="5.18846">
        <ele>412.571</ele>
        <time>2020-09-11T10:47:47Z</time>
      </trkpt>
      <trkpt lat="43.92801" lon="5.18842">
        <ele>412.573</ele>
        <time>2020-09-11T10:47:51Z</time>
      </trkpt>
      <trkpt lat="43.92798" lon="5.18838">
        <ele>413.193</ele>
        <time>2020-09-11T10:48:01Z</time>
      </trkpt>
      <trkpt lat="43.92794" lon="5.18833">
        <ele>413.023</ele>
        <time>2020-09-11T10:48:06Z</time>
      </trkpt>
      <trkpt lat="43.92789" lon="5.18829">
        <ele>413.182</ele>
        <time>2020-09-11T10:48:11Z</time>
      </trkpt>
      <trkpt lat="43.92785" lon="5.18824">
        <ele>413.052</ele>
        <time>2020-09-11T10:48:16Z</time>
      </trkpt>
      <trkpt lat="43.92781" lon="5.1882">
        <ele>413.653</ele>
        <time>2020-09-11T10:48:31Z</time>
      </trkpt>
      <trkpt lat="43.92776" lon="5.18817">
        <ele>413.808</ele>
        <time>2020-09-11T10:48:35Z</time>
      </trkpt>
      <trkpt lat="43.92771" lon="5.18815">
        <ele>414.208</ele>
        <time>2020-09-11T10:48:40Z</time>
      </trkpt>
      <trkpt lat="43.92766" lon="5.18811">
        <ele>414.71</ele>
        <time>2020-09-11T10:48:46Z</time>
      </trkpt>
      <trkpt lat="43.92762" lon="5.18807">
        <ele>415.041</ele>
        <time>2020-09-11T10:48:51Z</time>
      </trkpt>
      <trkpt lat="43.92759" lon="5.18802">
        <ele>415.33</ele>
        <time>2020-09-11T10:48:57Z</time>
      </trkpt>
      <trkpt lat="43.92754" lon="5.18799">
        <ele>415.368</ele>
        <time>2020-09-11T10:49:26Z</time>
      </trkpt>
      <trkpt lat="43.9275" lon="5.18795">
        <ele>416.13</ele>
        <time>2020-09-11T10:49:42Z</time>
      </trkpt>
      <trkpt lat="43.92745" lon="5.18792">
        <ele>416.39</ele>
        <time>2020-09-11T10:49:47Z</time>
      </trkpt>
      <trkpt lat="43.92741" lon="5.18788">
        <ele>416.95</ele>
        <time>2020-09-11T10:49:52Z</time>
      </trkpt>
      <trkpt lat="43.92737" lon="5.18786">
        <ele>417.279</ele>
        <time>2020-09-11T10:49:57Z</time>
      </trkpt>
      <trkpt lat="43.92732" lon="5.18784">
        <ele>417.998</ele>
        <time>2020-09-11T10:50:02Z</time>
      </trkpt>
      <trkpt lat="43.92728" lon="5.1878">
        <ele>418.715</ele>
        <time>2020-09-11T10:50:10Z</time>
      </trkpt>
      <trkpt lat="43.92724" lon="5.18776">
        <ele>419.426</ele>
        <time>2020-09-11T10:50:14Z</time>
      </trkpt>
      <trkpt lat="43.9272" lon="5.18772">
        <ele>419.908</ele>
        <time>2020-09-11T10:50:20Z</time>
      </trkpt>
      <trkpt lat="43.92716" lon="5.18769">
        <ele>420.794</ele>
        <time>2020-09-11T10:50:25Z</time>
      </trkpt>
      <trkpt lat="43.92712" lon="5.18766">
        <ele>420.945</ele>
        <time>2020-09-11T10:50:29Z</time>
      </trkpt>
      <trkpt lat="43.92707" lon="5.18764">
        <ele>421.184</ele>
        <time>2020-09-11T10:50:34Z</time>
      </trkpt>
      <trkpt lat="43.92702" lon="5.1876">
        <ele>421.272</ele>
        <time>2020-09-11T10:50:40Z</time>
      </trkpt>
      <trkpt lat="43.92699" lon="5.18755">
        <ele>422.194</ele>
        <time>2020-09-11T10:50:59Z</time>
      </trkpt>
      <trkpt lat="43.92694" lon="5.18753">
        <ele>422.494</ele>
        <time>2020-09-11T10:51:10Z</time>
      </trkpt>
      <trkpt lat="43.92689" lon="5.18752">
        <ele>422.894</ele>
        <time>2020-09-11T10:51:16Z</time>
      </trkpt>
      <trkpt lat="43.92684" lon="5.18748">
        <ele>422.893</ele>
        <time>2020-09-11T10:51:20Z</time>
      </trkpt>
      <trkpt lat="43.9268" lon="5.18746">
        <ele>423.377</ele>
        <time>2020-09-11T10:51:24Z</time>
      </trkpt>
      <trkpt lat="43.92675" lon="5.18742">
        <ele>423.861</ele>
        <time>2020-09-11T10:51:28Z</time>
      </trkpt>
      <trkpt lat="43.92671" lon="5.18738">
        <ele>424.027</ele>
        <time>2020-09-11T10:51:33Z</time>
      </trkpt>
      <trkpt lat="43.92668" lon="5.18732">
        <ele>424.608</ele>
        <time>2020-09-11T10:51:38Z</time>
      </trkpt>
      <trkpt lat="43.92665" lon="5.18727">
        <ele>424.962</ele>
        <time>2020-09-11T10:51:42Z</time>
      </trkpt>
      <trkpt lat="43.92661" lon="5.18723">
        <ele>425.693</ele>
        <time>2020-09-11T10:51:49Z</time>
      </trkpt>
      <trkpt lat="43.92657" lon="5.1872">
        <ele>425.762</ele>
        <time>2020-09-11T10:51:53Z</time>
      </trkpt>
      <trkpt lat="43.92652" lon="5.18717">
        <ele>426.34</ele>
        <time>2020-09-11T10:51:59Z</time>
      </trkpt>
      <trkpt lat="43.92648" lon="5.18712">
        <ele>426.772</ele>
        <time>2020-09-11T10:52:04Z</time>
      </trkpt>
      <trkpt lat="43.92645" lon="5.18708">
        <ele>427.272</ele>
        <time>2020-09-11T10:52:11Z</time>
      </trkpt>
      <trkpt lat="43.9264" lon="5.18707">
        <ele>428.512</ele>
        <time>2020-09-11T10:52:46Z</time>
      </trkpt>
      <trkpt lat="43.92634" lon="5.18705">
        <ele>429.641</ele>
        <time>2020-09-11T10:52:51Z</time>
      </trkpt>
      <trkpt lat="43.9263" lon="5.18705">
        <ele>429.665</ele>
        <time>2020-09-11T10:52:55Z</time>
      </trkpt>
      <trkpt lat="43.92625" lon="5.18705">
        <ele>430.568</ele>
        <time>2020-09-11T10:53:01Z</time>
      </trkpt>
      <trkpt lat="43.9262" lon="5.18702">
        <ele>431.514</ele>
        <time>2020-09-11T10:53:06Z</time>
      </trkpt>
      <trkpt lat="43.92616" lon="5.18699">
        <ele>432.108</ele>
        <time>2020-09-11T10:53:16Z</time>
      </trkpt>
      <trkpt lat="43.92611" lon="5.18696">
        <ele>433.171</ele>
        <time>2020-09-11T10:53:23Z</time>
      </trkpt>
      <trkpt lat="43.92607" lon="5.18694">
        <ele>434.492</ele>
        <time>2020-09-11T10:53:30Z</time>
      </trkpt>
      <trkpt lat="43.92603" lon="5.18691">
        <ele>435.471</ele>
        <time>2020-09-11T10:53:38Z</time>
      </trkpt>
      <trkpt lat="43.92598" lon="5.1869">
        <ele>436.849</ele>
        <time>2020-09-11T10:53:47Z</time>
      </trkpt>
      <trkpt lat="43.92593" lon="5.18687">
        <ele>437.761</ele>
        <time>2020-09-11T10:53:55Z</time>
      </trkpt>
      <trkpt lat="43.92588" lon="5.18684">
        <ele>438.221</ele>
        <time>2020-09-11T10:54:01Z</time>
      </trkpt>
      <trkpt lat="43.92584" lon="5.1868">
        <ele>439.561</ele>
        <time>2020-09-11T10:54:12Z</time>
      </trkpt>
      <trkpt lat="43.9258" lon="5.18678">
        <ele>440.77</ele>
        <time>2020-09-11T10:54:19Z</time>
      </trkpt>
      <trkpt lat="43.92576" lon="5.18673">
        <ele>441.488</ele>
        <time>2020-09-11T10:54:27Z</time>
      </trkpt>
      <trkpt lat="43.92572" lon="5.1867">
        <ele>441.824</ele>
        <time>2020-09-11T10:54:37Z</time>
      </trkpt>
      <trkpt lat="43.92568" lon="5.18667">
        <ele>442.526</ele>
        <time>2020-09-11T10:54:43Z</time>
      </trkpt>
      <trkpt lat="43.92564" lon="5.18663">
        <ele>443.608</ele>
        <time>2020-09-11T10:54:51Z</time>
      </trkpt>
      <trkpt lat="43.92561" lon="5.18659">
        <ele>444.083</ele>
        <time>2020-09-11T10:54:56Z</time>
      </trkpt>
      <trkpt lat="43.92557" lon="5.18655">
        <ele>444.614</ele>
        <time>2020-09-11T10:55:02Z</time>
      </trkpt>
      <trkpt lat="43.92553" lon="5.18652">
        <ele>445.453</ele>
        <time>2020-09-11T10:55:07Z</time>
      </trkpt>
      <trkpt lat="43.92548" lon="5.18648">
        <ele>446.041</ele>
        <time>2020-09-11T10:55:12Z</time>
      </trkpt>
      <trkpt lat="43.92543" lon="5.18647">
        <ele>446.613</ele>
        <time>2020-09-11T10:55:19Z</time>
      </trkpt>
      <trkpt lat="43.92538" lon="5.18648">
        <ele>447.513</ele>
        <time>2020-09-11T10:55:26Z</time>
      </trkpt>
      <trkpt lat="43.92535" lon="5.18643">
        <ele>447.893</ele>
        <time>2020-09-11T10:55:33Z</time>
      </trkpt>
      <trkpt lat="43.92532" lon="5.18638">
        <ele>448.462</ele>
        <time>2020-09-11T10:55:38Z</time>
      </trkpt>
      <trkpt lat="43.92528" lon="5.18635">
        <ele>449.396</ele>
        <time>2020-09-11T10:55:45Z</time>
      </trkpt>
      <trkpt lat="43.92524" lon="5.18631">
        <ele>450.231</ele>
        <time>2020-09-11T10:55:52Z</time>
      </trkpt>
      <trkpt lat="43.9252" lon="5.18628">
        <ele>450.824</ele>
        <time>2020-09-11T10:56:00Z</time>
      </trkpt>
      <trkpt lat="43.92515" lon="5.18627">
        <ele>452.108</ele>
        <time>2020-09-11T10:56:08Z</time>
      </trkpt>
      <trkpt lat="43.92511" lon="5.18626">
        <ele>452.654</ele>
        <time>2020-09-11T10:56:15Z</time>
      </trkpt>
      <trkpt lat="43.92506" lon="5.18626">
        <ele>453.215</ele>
        <time>2020-09-11T10:56:22Z</time>
      </trkpt>
      <trkpt lat="43.92503" lon="5.18621">
        <ele>454.814</ele>
        <time>2020-09-11T10:56:33Z</time>
      </trkpt>
      <trkpt lat="43.92499" lon="5.18619">
        <ele>455.462</ele>
        <time>2020-09-11T10:56:41Z</time>
      </trkpt>
      <trkpt lat="43.92495" lon="5.18615">
        <ele>455.774</ele>
        <time>2020-09-11T10:57:07Z</time>
      </trkpt>
      <trkpt lat="43.9249" lon="5.18614">
        <ele>456.484</ele>
        <time>2020-09-11T10:57:13Z</time>
      </trkpt>
      <trkpt lat="43.92486" lon="5.18611">
        <ele>457.184</ele>
        <time>2020-09-11T10:57:19Z</time>
      </trkpt>
      <trkpt lat="43.92482" lon="5.18609">
        <ele>457.743</ele>
        <time>2020-09-11T10:57:25Z</time>
      </trkpt>
      <trkpt lat="43.92478" lon="5.18607">
        <ele>458.294</ele>
        <time>2020-09-11T10:57:31Z</time>
      </trkpt>
      <trkpt lat="43.92473" lon="5.18606">
        <ele>459.757</ele>
        <time>2020-09-11T10:57:43Z</time>
      </trkpt>
      <trkpt lat="43.92468" lon="5.18605">
        <ele>461.222</ele>
        <time>2020-09-11T10:57:52Z</time>
      </trkpt>
      <trkpt lat="43.92464" lon="5.18603">
        <ele>461.508</ele>
        <time>2020-09-11T10:57:57Z</time>
      </trkpt>
      <trkpt lat="43.92459" lon="5.18603">
        <ele>461.914</ele>
        <time>2020-09-11T10:58:03Z</time>
      </trkpt>
      <trkpt lat="43.92454" lon="5.18604">
        <ele>462.855</ele>
        <time>2020-09-11T10:58:08Z</time>
      </trkpt>
      <trkpt lat="43.92449" lon="5.18605">
        <ele>463.754</ele>
        <time>2020-09-11T10:58:14Z</time>
      </trkpt>
      <trkpt lat="43.92444" lon="5.18606">
        <ele>464.612</ele>
        <time>2020-09-11T10:58:21Z</time>
      </trkpt>
      <trkpt lat="43.9244" lon="5.18607">
        <ele>465.464</ele>
        <time>2020-09-11T10:58:28Z</time>
      </trkpt>
      <trkpt lat="43.92435" lon="5.18606">
        <ele>465.534</ele>
        <time>2020-09-11T10:58:34Z</time>
      </trkpt>
      <trkpt lat="43.92431" lon="5.18611">
        <ele>466.154</ele>
        <time>2020-09-11T10:58:43Z</time>
      </trkpt>
      <trkpt lat="43.92427" lon="5.18614">
        <ele>465.813</ele>
        <time>2020-09-11T10:58:48Z</time>
      </trkpt>
      <trkpt lat="43.92423" lon="5.18618">
        <ele>466.062</ele>
        <time>2020-09-11T10:58:55Z</time>
      </trkpt>
      <trkpt lat="43.92418" lon="5.18619">
        <ele>466.083</ele>
        <time>2020-09-11T10:59:05Z</time>
      </trkpt>
      <trkpt lat="43.92413" lon="5.18622">
        <ele>466.211</ele>
        <time>2020-09-11T10:59:09Z</time>
      </trkpt>
      <trkpt lat="43.92409" lon="5.18626">
        <ele>466.008</ele>
        <time>2020-09-11T10:59:14Z</time>
      </trkpt>
      <trkpt lat="43.92404" lon="5.18628">
        <ele>465.811</ele>
        <time>2020-09-11T10:59:21Z</time>
      </trkpt>
      <trkpt lat="43.924" lon="5.1863">
        <ele>465.982</ele>
        <time>2020-09-11T10:59:25Z</time>
      </trkpt>
      <trkpt lat="43.92395" lon="5.18632">
        <ele>465.841</ele>
        <time>2020-09-11T10:59:31Z</time>
      </trkpt>
      <trkpt lat="43.9239" lon="5.18631">
        <ele>465.739</ele>
        <time>2020-09-11T10:59:37Z</time>
      </trkpt>
      <trkpt lat="43.92395" lon="5.18632">
        <ele>465.811</ele>
        <time>2020-09-11T11:00:01Z</time>
      </trkpt>
      <trkpt lat="43.92399" lon="5.18627">
        <ele>466.551</ele>
        <time>2020-09-11T11:00:09Z</time>
      </trkpt>
      <trkpt lat="43.92396" lon="5.18633">
        <ele>465.571</ele>
        <time>2020-09-11T11:00:40Z</time>
      </trkpt>
      <trkpt lat="43.92392" lon="5.18636">
        <ele>465.58</ele>
        <time>2020-09-11T11:00:43Z</time>
      </trkpt>
      <trkpt lat="43.92387" lon="5.18638">
        <ele>465.273</ele>
        <time>2020-09-11T11:00:46Z</time>
      </trkpt>
      <trkpt lat="43.92383" lon="5.18642">
        <ele>465.185</ele>
        <time>2020-09-11T11:00:50Z</time>
      </trkpt>
      <trkpt lat="43.92378" lon="5.18645">
        <ele>464.813</ele>
        <time>2020-09-11T11:00:54Z</time>
      </trkpt>
      <trkpt lat="43.92374" lon="5.1865">
        <ele>464.208</ele>
        <time>2020-09-11T11:00:58Z</time>
      </trkpt>
      <trkpt lat="43.92369" lon="5.18653">
        <ele>464.262</ele>
        <time>2020-09-11T11:01:02Z</time>
      </trkpt>
      <trkpt lat="43.92364" lon="5.18655">
        <ele>463.913</ele>
        <time>2020-09-11T11:01:07Z</time>
      </trkpt>
      <trkpt lat="43.9236" lon="5.18658">
        <ele>463.292</ele>
        <time>2020-09-11T11:01:11Z</time>
      </trkpt>
      <trkpt lat="43.92356" lon="5.18663">
        <ele>463.27</ele>
        <time>2020-09-11T11:01:16Z</time>
      </trkpt>
      <trkpt lat="43.92353" lon="5.18672">
        <ele>462.382</ele>
        <time>2020-09-11T11:01:22Z</time>
      </trkpt>
      <trkpt lat="43.92351" lon="5.18677">
        <ele>462.022</ele>
        <time>2020-09-11T11:01:27Z</time>
      </trkpt>
      <trkpt lat="43.92346" lon="5.18683">
        <ele>461.372</ele>
        <time>2020-09-11T11:01:35Z</time>
      </trkpt>
      <trkpt lat="43.92342" lon="5.18685">
        <ele>460.541</ele>
        <time>2020-09-11T11:01:41Z</time>
      </trkpt>
      <trkpt lat="43.92338" lon="5.18688">
        <ele>459.862</ele>
        <time>2020-09-11T11:01:46Z</time>
      </trkpt>
      <trkpt lat="43.92333" lon="5.18691">
        <ele>459.183</ele>
        <time>2020-09-11T11:01:52Z</time>
      </trkpt>
      <trkpt lat="43.92329" lon="5.18694">
        <ele>458.411</ele>
        <time>2020-09-11T11:01:59Z</time>
      </trkpt>
      <trkpt lat="43.92324" lon="5.18694">
        <ele>457.808</ele>
        <time>2020-09-11T11:02:05Z</time>
      </trkpt>
      <trkpt lat="43.9232" lon="5.18698">
        <ele>457.551</ele>
        <time>2020-09-11T11:02:10Z</time>
      </trkpt>
      <trkpt lat="43.92316" lon="5.18701">
        <ele>456.752</ele>
        <time>2020-09-11T11:02:17Z</time>
      </trkpt>
      <trkpt lat="43.92312" lon="5.18705">
        <ele>456.151</ele>
        <time>2020-09-11T11:02:23Z</time>
      </trkpt>
      <trkpt lat="43.92308" lon="5.18708">
        <ele>455.699</ele>
        <time>2020-09-11T11:02:29Z</time>
      </trkpt>
      <trkpt lat="43.92304" lon="5.1871">
        <ele>454.761</ele>
        <time>2020-09-11T11:02:37Z</time>
      </trkpt>
      <trkpt lat="43.92299" lon="5.18712">
        <ele>453.721</ele>
        <time>2020-09-11T11:02:43Z</time>
      </trkpt>
      <trkpt lat="43.92295" lon="5.18715">
        <ele>453.541</ele>
        <time>2020-09-11T11:02:49Z</time>
      </trkpt>
      <trkpt lat="43.92289" lon="5.18716">
        <ele>452.98</ele>
        <time>2020-09-11T11:02:54Z</time>
      </trkpt>
      <trkpt lat="43.92284" lon="5.18719">
        <ele>452.333</ele>
        <time>2020-09-11T11:03:00Z</time>
      </trkpt>
      <trkpt lat="43.9228" lon="5.18722">
        <ele>451.423</ele>
        <time>2020-09-11T11:03:09Z</time>
      </trkpt>
      <trkpt lat="43.92275" lon="5.18725">
        <ele>450.815</ele>
        <time>2020-09-11T11:03:15Z</time>
      </trkpt>
      <trkpt lat="43.92271" lon="5.18727">
        <ele>450.108</ele>
        <time>2020-09-11T11:03:22Z</time>
      </trkpt>
      <trkpt lat="43.92266" lon="5.1873">
        <ele>449.418</ele>
        <time>2020-09-11T11:03:29Z</time>
      </trkpt>
      <trkpt lat="43.92262" lon="5.1873">
        <ele>448.799</ele>
        <time>2020-09-11T11:03:36Z</time>
      </trkpt>
      <trkpt lat="43.92257" lon="5.18731">
        <ele>447.998</ele>
        <time>2020-09-11T11:03:44Z</time>
      </trkpt>
      <trkpt lat="43.92252" lon="5.18731">
        <ele>447.556</ele>
        <time>2020-09-11T11:03:50Z</time>
      </trkpt>
      <trkpt lat="43.92248" lon="5.18732">
        <ele>447.188</ele>
        <time>2020-09-11T11:03:56Z</time>
      </trkpt>
      <trkpt lat="43.92243" lon="5.18734">
        <ele>446.248</ele>
        <time>2020-09-11T11:04:04Z</time>
      </trkpt>
      <trkpt lat="43.92239" lon="5.18738">
        <ele>445.228</ele>
        <time>2020-09-11T11:04:16Z</time>
      </trkpt>
      <trkpt lat="43.92235" lon="5.18741">
        <ele>444.227</ele>
        <time>2020-09-11T11:04:28Z</time>
      </trkpt>
      <trkpt lat="43.9223" lon="5.18745">
        <ele>443.739</ele>
        <time>2020-09-11T11:04:34Z</time>
      </trkpt>
      <trkpt lat="43.92226" lon="5.1875">
        <ele>443.201</ele>
        <time>2020-09-11T11:04:40Z</time>
      </trkpt>
      <trkpt lat="43.92223" lon="5.18756">
        <ele>442.721</ele>
        <time>2020-09-11T11:04:45Z</time>
      </trkpt>
      <trkpt lat="43.9222" lon="5.18761">
        <ele>441.708</ele>
        <time>2020-09-11T11:04:53Z</time>
      </trkpt>
      <trkpt lat="43.92217" lon="5.18767">
        <ele>441.268</ele>
        <time>2020-09-11T11:05:01Z</time>
      </trkpt>
      <trkpt lat="43.92213" lon="5.18768">
        <ele>440.119</ele>
        <time>2020-09-11T11:05:13Z</time>
      </trkpt>
      <trkpt lat="43.9221" lon="5.18774">
        <ele>438.548</ele>
        <time>2020-09-11T11:05:24Z</time>
      </trkpt>
      <trkpt lat="43.92206" lon="5.18778">
        <ele>437.836</ele>
        <time>2020-09-11T11:05:32Z</time>
      </trkpt>
      <trkpt lat="43.92201" lon="5.18781">
        <ele>437.328</ele>
        <time>2020-09-11T11:05:38Z</time>
      </trkpt>
      <trkpt lat="43.92196" lon="5.18784">
        <ele>436.858</ele>
        <time>2020-09-11T11:05:44Z</time>
      </trkpt>
      <trkpt lat="43.92191" lon="5.18787">
        <ele>436.088</ele>
        <time>2020-09-11T11:05:51Z</time>
      </trkpt>
      <trkpt lat="43.92187" lon="5.18788">
        <ele>434.847</ele>
        <time>2020-09-11T11:06:11Z</time>
      </trkpt>
      <trkpt lat="43.92183" lon="5.18791">
        <ele>434.236</ele>
        <time>2020-09-11T11:06:19Z</time>
      </trkpt>
      <trkpt lat="43.92178" lon="5.18791">
        <ele>433.517</ele>
        <time>2020-09-11T11:06:25Z</time>
      </trkpt>
      <trkpt lat="43.92173" lon="5.18792">
        <ele>433.218</ele>
        <time>2020-09-11T11:06:29Z</time>
      </trkpt>
      <trkpt lat="43.92169" lon="5.18795">
        <ele>432.308</ele>
        <time>2020-09-11T11:06:36Z</time>
      </trkpt>
      <trkpt lat="43.92167" lon="5.18801">
        <ele>431.698</ele>
        <time>2020-09-11T11:06:43Z</time>
      </trkpt>
      <trkpt lat="43.92163" lon="5.18806">
        <ele>430.129</ele>
        <time>2020-09-11T11:06:54Z</time>
      </trkpt>
      <trkpt lat="43.92159" lon="5.18807">
        <ele>429.228</ele>
        <time>2020-09-11T11:07:02Z</time>
      </trkpt>
      <trkpt lat="43.92153" lon="5.18809">
        <ele>428.646</ele>
        <time>2020-09-11T11:07:11Z</time>
      </trkpt>
      <trkpt lat="43.92149" lon="5.1881">
        <ele>427.858</ele>
        <time>2020-09-11T11:07:18Z</time>
      </trkpt>
      <trkpt lat="43.92144" lon="5.18813">
        <ele>427.318</ele>
        <time>2020-09-11T11:07:27Z</time>
      </trkpt>
      <trkpt lat="43.9214" lon="5.18817">
        <ele>426.838</ele>
        <time>2020-09-11T11:07:33Z</time>
      </trkpt>
      <trkpt lat="43.92136" lon="5.18819">
        <ele>426.247</ele>
        <time>2020-09-11T11:07:39Z</time>
      </trkpt>
      <trkpt lat="43.92131" lon="5.18819">
        <ele>425.686</ele>
        <time>2020-09-11T11:07:46Z</time>
      </trkpt>
      <trkpt lat="43.92126" lon="5.1882">
        <ele>425.26</ele>
        <time>2020-09-11T11:08:13Z</time>
      </trkpt>
      <trkpt lat="43.92122" lon="5.18825">
        <ele>424.926</ele>
        <time>2020-09-11T11:08:20Z</time>
      </trkpt>
      <trkpt lat="43.92118" lon="5.1883">
        <ele>424.608</ele>
        <time>2020-09-11T11:08:23Z</time>
      </trkpt>
      <trkpt lat="43.92114" lon="5.18837">
        <ele>424.293</ele>
        <time>2020-09-11T11:08:30Z</time>
      </trkpt>
      <trkpt lat="43.92109" lon="5.1884">
        <ele>424.154</ele>
        <time>2020-09-11T11:08:35Z</time>
      </trkpt>
      <trkpt lat="43.92105" lon="5.18843">
        <ele>423.823</ele>
        <time>2020-09-11T11:08:40Z</time>
      </trkpt>
      <trkpt lat="43.92101" lon="5.18848">
        <ele>423.741</ele>
        <time>2020-09-11T11:08:45Z</time>
      </trkpt>
      <trkpt lat="43.92097" lon="5.18851">
        <ele>423.453</ele>
        <time>2020-09-11T11:08:50Z</time>
      </trkpt>
      <trkpt lat="43.92094" lon="5.18855">
        <ele>422.863</ele>
        <time>2020-09-11T11:08:59Z</time>
      </trkpt>
      <trkpt lat="43.9209" lon="5.18858">
        <ele>422.883</ele>
        <time>2020-09-11T11:09:05Z</time>
      </trkpt>
      <trkpt lat="43.92085" lon="5.18861">
        <ele>422.332</ele>
        <time>2020-09-11T11:09:11Z</time>
      </trkpt>
      <trkpt lat="43.92082" lon="5.18865">
        <ele>422.237</ele>
        <time>2020-09-11T11:09:18Z</time>
      </trkpt>
      <trkpt lat="43.92079" lon="5.1887">
        <ele>421.549</ele>
        <time>2020-09-11T11:09:24Z</time>
      </trkpt>
      <trkpt lat="43.92075" lon="5.18873">
        <ele>420.913</ele>
        <time>2020-09-11T11:09:30Z</time>
      </trkpt>
      <trkpt lat="43.92071" lon="5.18876">
        <ele>420.808</ele>
        <time>2020-09-11T11:09:35Z</time>
      </trkpt>
      <trkpt lat="43.92067" lon="5.18881">
        <ele>420.688</ele>
        <time>2020-09-11T11:09:41Z</time>
      </trkpt>
      <trkpt lat="43.92062" lon="5.18886">
        <ele>420.179</ele>
        <time>2020-09-11T11:09:48Z</time>
      </trkpt>
      <trkpt lat="43.92057" lon="5.1889">
        <ele>419.968</ele>
        <time>2020-09-11T11:09:54Z</time>
      </trkpt>
      <trkpt lat="43.92052" lon="5.18895">
        <ele>419.796</ele>
        <time>2020-09-11T11:10:00Z</time>
      </trkpt>
      <trkpt lat="43.92048" lon="5.189">
        <ele>419.328</ele>
        <time>2020-09-11T11:10:07Z</time>
      </trkpt>
      <trkpt lat="43.92044" lon="5.18907">
        <ele>419.158</ele>
        <time>2020-09-11T11:10:14Z</time>
      </trkpt>
      <trkpt lat="43.92041" lon="5.18912">
        <ele>418.838</ele>
        <time>2020-09-11T11:10:19Z</time>
      </trkpt>
      <trkpt lat="43.92039" lon="5.18918">
        <ele>418.597</ele>
        <time>2020-09-11T11:10:24Z</time>
      </trkpt>
      <trkpt lat="43.92036" lon="5.18923">
        <ele>418.447</ele>
        <time>2020-09-11T11:10:29Z</time>
      </trkpt>
      <trkpt lat="43.92033" lon="5.18927">
        <ele>417.729</ele>
        <time>2020-09-11T11:10:34Z</time>
      </trkpt>
      <trkpt lat="43.92029" lon="5.18931">
        <ele>417.321</ele>
        <time>2020-09-11T11:10:40Z</time>
      </trkpt>
      <trkpt lat="43.92025" lon="5.18934">
        <ele>417.108</ele>
        <time>2020-09-11T11:10:46Z</time>
      </trkpt>
      <trkpt lat="43.92023" lon="5.1894">
        <ele>416.699</ele>
        <time>2020-09-11T11:10:52Z</time>
      </trkpt>
      <trkpt lat="43.92021" lon="5.18947">
        <ele>416.37</ele>
        <time>2020-09-11T11:10:59Z</time>
      </trkpt>
      <trkpt lat="43.92018" lon="5.18952">
        <ele>415.519</ele>
        <time>2020-09-11T11:11:34Z</time>
      </trkpt>
      <trkpt lat="43.92018" lon="5.18959">
        <ele>415.197</ele>
        <time>2020-09-11T11:11:42Z</time>
      </trkpt>
      <trkpt lat="43.92018" lon="5.18966">
        <ele>414.889</ele>
        <time>2020-09-11T11:11:46Z</time>
      </trkpt>
      <trkpt lat="43.92016" lon="5.18973">
        <ele>414.379</ele>
        <time>2020-09-11T11:11:52Z</time>
      </trkpt>
      <trkpt lat="43.92014" lon="5.18979">
        <ele>414.029</ele>
        <time>2020-09-11T11:12:02Z</time>
      </trkpt>
      <trkpt lat="43.9201" lon="5.18984">
        <ele>413.488</ele>
        <time>2020-09-11T11:12:22Z</time>
      </trkpt>
      <trkpt lat="43.9201" lon="5.18991">
        <ele>413.293</ele>
        <time>2020-09-11T11:12:28Z</time>
      </trkpt>
      <trkpt lat="43.92009" lon="5.18998">
        <ele>412.665</ele>
        <time>2020-09-11T11:12:35Z</time>
      </trkpt>
      <trkpt lat="43.92005" lon="5.19003">
        <ele>412.321</ele>
        <time>2020-09-11T11:12:41Z</time>
      </trkpt>
      <trkpt lat="43.92002" lon="5.19008">
        <ele>412.108</ele>
        <time>2020-09-11T11:12:48Z</time>
      </trkpt>
      <trkpt lat="43.91999" lon="5.19014">
        <ele>412.194</ele>
        <time>2020-09-11T11:13:04Z</time>
      </trkpt>
      <trkpt lat="43.91997" lon="5.1902">
        <ele>412.065</ele>
        <time>2020-09-11T11:13:09Z</time>
      </trkpt>
      <trkpt lat="43.91994" lon="5.19024">
        <ele>412.144</ele>
        <time>2020-09-11T11:13:38Z</time>
      </trkpt>
      <trkpt lat="43.9199" lon="5.19028">
        <ele>411.742</ele>
        <time>2020-09-11T11:13:44Z</time>
      </trkpt>
      <trkpt lat="43.91987" lon="5.19033">
        <ele>411.694</ele>
        <time>2020-09-11T11:13:52Z</time>
      </trkpt>
      <trkpt lat="43.91983" lon="5.19039">
        <ele>411.164</ele>
        <time>2020-09-11T11:13:58Z</time>
      </trkpt>
      <trkpt lat="43.91978" lon="5.19036">
        <ele>410.614</ele>
        <time>2020-09-11T11:14:48Z</time>
      </trkpt>
      <trkpt lat="43.91974" lon="5.1904">
        <ele>410.283</ele>
        <time>2020-09-11T11:14:54Z</time>
      </trkpt>
      <trkpt lat="43.91969" lon="5.19042">
        <ele>409.947</ele>
        <time>2020-09-11T11:14:58Z</time>
      </trkpt>
      <trkpt lat="43.91965" lon="5.19045">
        <ele>409.829</ele>
        <time>2020-09-11T11:15:04Z</time>
      </trkpt>
      <trkpt lat="43.91959" lon="5.19049">
        <ele>409.521</ele>
        <time>2020-09-11T11:15:09Z</time>
      </trkpt>
      <trkpt lat="43.91954" lon="5.19052">
        <ele>409.308</ele>
        <time>2020-09-11T11:15:14Z</time>
      </trkpt>
      <trkpt lat="43.91949" lon="5.19056">
        <ele>408.959</ele>
        <time>2020-09-11T11:15:22Z</time>
      </trkpt>
      <trkpt lat="43.91945" lon="5.19062">
        <ele>408.92</ele>
        <time>2020-09-11T11:15:28Z</time>
      </trkpt>
      <trkpt lat="43.91942" lon="5.19068">
        <ele>408.689</ele>
        <time>2020-09-11T11:15:34Z</time>
      </trkpt>
      <trkpt lat="43.91939" lon="5.19075">
        <ele>408.277</ele>
        <time>2020-09-11T11:15:41Z</time>
      </trkpt>
      <trkpt lat="43.91936" lon="5.19081">
        <ele>408.029</ele>
        <time>2020-09-11T11:15:48Z</time>
      </trkpt>
      <trkpt lat="43.91933" lon="5.19086">
        <ele>407.669</ele>
        <time>2020-09-11T11:15:54Z</time>
      </trkpt>
      <trkpt lat="43.91928" lon="5.19088">
        <ele>407.359</ele>
        <time>2020-09-11T11:16:00Z</time>
      </trkpt>
      <trkpt lat="43.91924" lon="5.19091">
        <ele>407.258</ele>
        <time>2020-09-11T11:16:04Z</time>
      </trkpt>
      <trkpt lat="43.91921" lon="5.19096">
        <ele>406.947</ele>
        <time>2020-09-11T11:16:09Z</time>
      </trkpt>
      <trkpt lat="43.91917" lon="5.191">
        <ele>406.829</ele>
        <time>2020-09-11T11:16:14Z</time>
      </trkpt>
      <trkpt lat="43.91914" lon="5.19105">
        <ele>406.421</ele>
        <time>2020-09-11T11:16:20Z</time>
      </trkpt>
      <trkpt lat="43.91909" lon="5.19107">
        <ele>406.208</ele>
        <time>2020-09-11T11:16:27Z</time>
      </trkpt>
      <trkpt lat="43.91906" lon="5.19112">
        <ele>406.099</ele>
        <time>2020-09-11T11:16:33Z</time>
      </trkpt>
      <trkpt lat="43.91902" lon="5.19115">
        <ele>405.67</ele>
        <time>2020-09-11T11:16:38Z</time>
      </trkpt>
      <trkpt lat="43.91898" lon="5.19119">
        <ele>405.539</ele>
        <time>2020-09-11T11:16:43Z</time>
      </trkpt>
      <trkpt lat="43.91894" lon="5.19122">
        <ele>405.287</ele>
        <time>2020-09-11T11:16:49Z</time>
      </trkpt>
      <trkpt lat="43.91891" lon="5.19128">
        <ele>404.999</ele>
        <time>2020-09-11T11:16:54Z</time>
      </trkpt>
      <trkpt lat="43.91888" lon="5.19133">
        <ele>404.579</ele>
        <time>2020-09-11T11:17:00Z</time>
      </trkpt>
      <trkpt lat="43.91883" lon="5.19136">
        <ele>404.169</ele>
        <time>2020-09-11T11:17:07Z</time>
      </trkpt>
      <trkpt lat="43.91879" lon="5.1914">
        <ele>403.618</ele>
        <time>2020-09-11T11:17:13Z</time>
      </trkpt>
      <trkpt lat="43.91875" lon="5.19145">
        <ele>403.199</ele>
        <time>2020-09-11T11:17:19Z</time>
      </trkpt>
      <trkpt lat="43.91871" lon="5.19149">
        <ele>402.407</ele>
        <time>2020-09-11T11:17:29Z</time>
      </trkpt>
      <trkpt lat="43.91867" lon="5.19152">
        <ele>401.927</ele>
        <time>2020-09-11T11:17:34Z</time>
      </trkpt>
      <trkpt lat="43.91862" lon="5.19154">
        <ele>401.408</ele>
        <time>2020-09-11T11:17:41Z</time>
      </trkpt>
      <trkpt lat="43.91859" lon="5.1916">
        <ele>400.934</ele>
        <time>2020-09-11T11:17:50Z</time>
      </trkpt>
      <trkpt lat="43.91855" lon="5.19165">
        <ele>400.625</ele>
        <time>2020-09-11T11:17:55Z</time>
      </trkpt>
      <trkpt lat="43.91852" lon="5.19169">
        <ele>400.294</ele>
        <time>2020-09-11T11:18:01Z</time>
      </trkpt>
      <trkpt lat="43.91849" lon="5.19174">
        <ele>399.662</ele>
        <time>2020-09-11T11:18:07Z</time>
      </trkpt>
      <trkpt lat="43.91845" lon="5.19178">
        <ele>399.714</ele>
        <time>2020-09-11T11:18:12Z</time>
      </trkpt>
      <trkpt lat="43.91841" lon="5.19183">
        <ele>399.494</ele>
        <time>2020-09-11T11:18:18Z</time>
      </trkpt>
      <trkpt lat="43.91838" lon="5.19189">
        <ele>399.034</ele>
        <time>2020-09-11T11:18:25Z</time>
      </trkpt>
      <trkpt lat="43.91836" lon="5.19195">
        <ele>398.223</ele>
        <time>2020-09-11T11:18:31Z</time>
      </trkpt>
      <trkpt lat="43.91831" lon="5.192">
        <ele>397.659</ele>
        <time>2020-09-11T11:18:37Z</time>
      </trkpt>
      <trkpt lat="43.91826" lon="5.19203">
        <ele>397.103</ele>
        <time>2020-09-11T11:18:44Z</time>
      </trkpt>
      <trkpt lat="43.91822" lon="5.19207">
        <ele>396.623</ele>
        <time>2020-09-11T11:18:51Z</time>
      </trkpt>
      <trkpt lat="43.91821" lon="5.19214">
        <ele>396.208</ele>
        <time>2020-09-11T11:19:22Z</time>
      </trkpt>
      <trkpt lat="43.91817" lon="5.19218">
        <ele>395.62</ele>
        <time>2020-09-11T11:19:29Z</time>
      </trkpt>
      <trkpt lat="43.91813" lon="5.19222">
        <ele>395.341</ele>
        <time>2020-09-11T11:19:34Z</time>
      </trkpt>
      <trkpt lat="43.91809" lon="5.19225">
        <ele>395.03</ele>
        <time>2020-09-11T11:19:58Z</time>
      </trkpt>
      <trkpt lat="43.91806" lon="5.1923">
        <ele>393.758</ele>
        <time>2020-09-11T11:20:06Z</time>
      </trkpt>
      <trkpt lat="43.91803" lon="5.19236">
        <ele>393.23</ele>
        <time>2020-09-11T11:20:11Z</time>
      </trkpt>
      <trkpt lat="43.91799" lon="5.19239">
        <ele>392.84</ele>
        <time>2020-09-11T11:20:16Z</time>
      </trkpt>
      <trkpt lat="43.91794" lon="5.19243">
        <ele>392.42</ele>
        <time>2020-09-11T11:20:21Z</time>
      </trkpt>
      <trkpt lat="43.9179" lon="5.19247">
        <ele>392.089</ele>
        <time>2020-09-11T11:20:26Z</time>
      </trkpt>
      <trkpt lat="43.91786" lon="5.1925">
        <ele>392.029</ele>
        <time>2020-09-11T11:20:30Z</time>
      </trkpt>
      <trkpt lat="43.91782" lon="5.19254">
        <ele>391.2</ele>
        <time>2020-09-11T11:20:35Z</time>
      </trkpt>
      <trkpt lat="43.91778" lon="5.19256">
        <ele>390.72</ele>
        <time>2020-09-11T11:20:40Z</time>
      </trkpt>
      <trkpt lat="43.91773" lon="5.19258">
        <ele>390.108</ele>
        <time>2020-09-11T11:20:46Z</time>
      </trkpt>
      <trkpt lat="43.91768" lon="5.1926">
        <ele>389.537</ele>
        <time>2020-09-11T11:20:53Z</time>
      </trkpt>
      <trkpt lat="43.91764" lon="5.19265">
        <ele>389.178</ele>
        <time>2020-09-11T11:20:59Z</time>
      </trkpt>
      <trkpt lat="43.91761" lon="5.1927">
        <ele>388.647</ele>
        <time>2020-09-11T11:21:04Z</time>
      </trkpt>
      <trkpt lat="43.91759" lon="5.19275">
        <ele>388.065</ele>
        <time>2020-09-11T11:21:11Z</time>
      </trkpt>
      <trkpt lat="43.91756" lon="5.19281">
        <ele>387.377</ele>
        <time>2020-09-11T11:21:16Z</time>
      </trkpt>
      <trkpt lat="43.91753" lon="5.19286">
        <ele>386.737</ele>
        <time>2020-09-11T11:21:23Z</time>
      </trkpt>
      <trkpt lat="43.91751" lon="5.19292">
        <ele>386.047</ele>
        <time>2020-09-11T11:21:33Z</time>
      </trkpt>
      <trkpt lat="43.91751" lon="5.19299">
        <ele>385.656</ele>
        <time>2020-09-11T11:21:40Z</time>
      </trkpt>
      <trkpt lat="43.91749" lon="5.19304">
        <ele>385.299</ele>
        <time>2020-09-11T11:21:44Z</time>
      </trkpt>
      <trkpt lat="43.91746" lon="5.19309">
        <ele>384.707</ele>
        <time>2020-09-11T11:21:49Z</time>
      </trkpt>
      <trkpt lat="43.91744" lon="5.19315">
        <ele>384.227</ele>
        <time>2020-09-11T11:21:56Z</time>
      </trkpt>
      <trkpt lat="43.91742" lon="5.19321">
        <ele>383.708</ele>
        <time>2020-09-11T11:22:01Z</time>
      </trkpt>
      <trkpt lat="43.91742" lon="5.19328">
        <ele>383.384</ele>
        <time>2020-09-11T11:22:07Z</time>
      </trkpt>
      <trkpt lat="43.91743" lon="5.19336">
        <ele>382.735</ele>
        <time>2020-09-11T11:22:14Z</time>
      </trkpt>
      <trkpt lat="43.91744" lon="5.19343">
        <ele>382.124</ele>
        <time>2020-09-11T11:22:19Z</time>
      </trkpt>
      <trkpt lat="43.91745" lon="5.19349">
        <ele>381.822</ele>
        <time>2020-09-11T11:22:23Z</time>
      </trkpt>
      <trkpt lat="43.91746" lon="5.19355">
        <ele>381.474</ele>
        <time>2020-09-11T11:22:26Z</time>
      </trkpt>
      <trkpt lat="43.91748" lon="5.19361">
        <ele>381.054</ele>
        <time>2020-09-11T11:22:32Z</time>
      </trkpt>
      <trkpt lat="43.9175" lon="5.19368">
        <ele>380.374</ele>
        <time>2020-09-11T11:22:39Z</time>
      </trkpt>
      <trkpt lat="43.91752" lon="5.19374">
        <ele>380.113</ele>
        <time>2020-09-11T11:22:44Z</time>
      </trkpt>
      <trkpt lat="43.9175" lon="5.19381">
        <ele>379.387</ele>
        <time>2020-09-11T11:22:59Z</time>
      </trkpt>
      <trkpt lat="43.91745" lon="5.19383">
        <ele>378.642</ele>
        <time>2020-09-11T11:23:06Z</time>
      </trkpt>
      <trkpt lat="43.91741" lon="5.19385">
        <ele>378.426</ele>
        <time>2020-09-11T11:23:13Z</time>
      </trkpt>
      <trkpt lat="43.91736" lon="5.19386">
        <ele>378.208</ele>
        <time>2020-09-11T11:23:20Z</time>
      </trkpt>
      <trkpt lat="43.91731" lon="5.19387">
        <ele>377.753</ele>
        <time>2020-09-11T11:23:28Z</time>
      </trkpt>
      <trkpt lat="43.91727" lon="5.19388">
        <ele>377.374</ele>
        <time>2020-09-11T11:23:35Z</time>
      </trkpt>
      <trkpt lat="43.91723" lon="5.19391">
        <ele>377.183</ele>
        <time>2020-09-11T11:23:45Z</time>
      </trkpt>
      <trkpt lat="43.91718" lon="5.19393">
        <ele>377.061</ele>
        <time>2020-09-11T11:23:50Z</time>
      </trkpt>
      <trkpt lat="43.91713" lon="5.19393">
        <ele>376.513</ele>
        <time>2020-09-11T11:23:56Z</time>
      </trkpt>
      <trkpt lat="43.91708" lon="5.19393">
        <ele>376.223</ele>
        <time>2020-09-11T11:24:00Z</time>
      </trkpt>
      <trkpt lat="43.91703" lon="5.19393">
        <ele>375.833</ele>
        <time>2020-09-11T11:24:05Z</time>
      </trkpt>
      <trkpt lat="43.91698" lon="5.19395">
        <ele>375.052</ele>
        <time>2020-09-11T11:24:16Z</time>
      </trkpt>
      <trkpt lat="43.91693" lon="5.19395">
        <ele>374.711</ele>
        <time>2020-09-11T11:24:21Z</time>
      </trkpt>
      <trkpt lat="43.91688" lon="5.19396">
        <ele>374.321</ele>
        <time>2020-09-11T11:24:26Z</time>
      </trkpt>
      <trkpt lat="43.91684" lon="5.19398">
        <ele>373.803</ele>
        <time>2020-09-11T11:24:32Z</time>
      </trkpt>
      <trkpt lat="43.9168" lon="5.19402">
        <ele>373.408</ele>
        <time>2020-09-11T11:24:39Z</time>
      </trkpt>
      <trkpt lat="43.91677" lon="5.19406">
        <ele>372.696</ele>
        <time>2020-09-11T11:24:45Z</time>
      </trkpt>
      <trkpt lat="43.91674" lon="5.19412">
        <ele>372.167</ele>
        <time>2020-09-11T11:24:51Z</time>
      </trkpt>
      <trkpt lat="43.91672" lon="5.19418">
        <ele>371.536</ele>
        <time>2020-09-11T11:25:01Z</time>
      </trkpt>
      <trkpt lat="43.91672" lon="5.19424">
        <ele>371.034</ele>
        <time>2020-09-11T11:25:46Z</time>
      </trkpt>
      <trkpt lat="43.91666" lon="5.19425">
        <ele>370.986</ele>
        <time>2020-09-11T11:25:53Z</time>
      </trkpt>
      <trkpt lat="43.91663" lon="5.19429">
        <ele>370.896</ele>
        <time>2020-09-11T11:25:57Z</time>
      </trkpt>
      <trkpt lat="43.91659" lon="5.19433">
        <ele>370.196</ele>
        <time>2020-09-11T11:26:02Z</time>
      </trkpt>
      <trkpt lat="43.91654" lon="5.19436">
        <ele>369.045</ele>
        <time>2020-09-11T11:26:21Z</time>
      </trkpt>
      <trkpt lat="43.9165" lon="5.19434">
        <ele>368.837</ele>
        <time>2020-09-11T11:26:45Z</time>
      </trkpt>
      <trkpt lat="43.91645" lon="5.19436">
        <ele>367.349</ele>
        <time>2020-09-11T11:27:09Z</time>
      </trkpt>
      <trkpt lat="43.91641" lon="5.19438">
        <ele>367.013</ele>
        <time>2020-09-11T11:27:17Z</time>
      </trkpt>
      <trkpt lat="43.91636" lon="5.19434">
        <ele>367.208</ele>
        <time>2020-09-11T11:27:42Z</time>
      </trkpt>
      <trkpt lat="43.91638" lon="5.19428">
        <ele>366.968</ele>
        <time>2020-09-11T11:28:23Z</time>
      </trkpt>
      <trkpt lat="43.91643" lon="5.19427">
        <ele>367.459</ele>
        <time>2020-09-11T11:28:32Z</time>
      </trkpt>
      <trkpt lat="43.91647" lon="5.19428">
        <ele>368.998</ele>
        <time>2020-09-11T11:28:59Z</time>
      </trkpt>
      <trkpt lat="43.91652" lon="5.19428">
        <ele>369.536</ele>
        <time>2020-09-11T11:29:08Z</time>
      </trkpt>
      <trkpt lat="43.91658" lon="5.19427">
        <ele>371.098</ele>
        <time>2020-09-11T11:29:17Z</time>
      </trkpt>
      <trkpt lat="43.91663" lon="5.19426">
        <ele>370.868</ele>
        <time>2020-09-11T11:29:21Z</time>
      </trkpt>
      <trkpt lat="43.91667" lon="5.19428">
        <ele>370.568</ele>
        <time>2020-09-11T11:29:26Z</time>
      </trkpt>
      <trkpt lat="43.91666" lon="5.19435">
        <ele>370.087</ele>
        <time>2020-09-11T11:29:32Z</time>
      </trkpt>
      <trkpt lat="43.91665" lon="5.19441">
        <ele>370.057</ele>
        <time>2020-09-11T11:29:37Z</time>
      </trkpt>
      <trkpt lat="43.91664" lon="5.19448">
        <ele>369.6</ele>
        <time>2020-09-11T11:29:52Z</time>
      </trkpt>
      <trkpt lat="43.91661" lon="5.19454">
        <ele>369.42</ele>
        <time>2020-09-11T11:29:55Z</time>
      </trkpt>
      <trkpt lat="43.91657" lon="5.19458">
        <ele>369.008</ele>
        <time>2020-09-11T11:30:01Z</time>
      </trkpt>
      <trkpt lat="43.91652" lon="5.19462">
        <ele>369.03</ele>
        <time>2020-09-11T11:30:04Z</time>
      </trkpt>
      <trkpt lat="43.91648" lon="5.19465">
        <ele>369.111</ele>
        <time>2020-09-11T11:30:07Z</time>
      </trkpt>
      <trkpt lat="43.91643" lon="5.19468">
        <ele>368.89</ele>
        <time>2020-09-11T11:30:10Z</time>
      </trkpt>
      <trkpt lat="43.91637" lon="5.19468">
        <ele>369.288</ele>
        <time>2020-09-11T11:30:16Z</time>
      </trkpt>
      <trkpt lat="43.91633" lon="5.19467">
        <ele>368.87</ele>
        <time>2020-09-11T11:30:19Z</time>
      </trkpt>
      <trkpt lat="43.91628" lon="5.19467">
        <ele>368.95</ele>
        <time>2020-09-11T11:30:23Z</time>
      </trkpt>
      <trkpt lat="43.91624" lon="5.19467">
        <ele>369.11</ele>
        <time>2020-09-11T11:30:28Z</time>
      </trkpt>
      <trkpt lat="43.91619" lon="5.19469">
        <ele>369.219</ele>
        <time>2020-09-11T11:30:32Z</time>
      </trkpt>
      <trkpt lat="43.91614" lon="5.1947">
        <ele>369.413</ele>
        <time>2020-09-11T11:30:36Z</time>
      </trkpt>
      <trkpt lat="43.91609" lon="5.19471">
        <ele>369.343</ele>
        <time>2020-09-11T11:30:40Z</time>
      </trkpt>
      <trkpt lat="43.91604" lon="5.19471">
        <ele>370.207</ele>
        <time>2020-09-11T11:30:44Z</time>
      </trkpt>
      <trkpt lat="43.91599" lon="5.19472">
        <ele>370.808</ele>
        <time>2020-09-11T11:30:49Z</time>
      </trkpt>
      <trkpt lat="43.91595" lon="5.19476">
        <ele>371.296</ele>
        <time>2020-09-11T11:30:54Z</time>
      </trkpt>
      <trkpt lat="43.9159" lon="5.19476">
        <ele>370.917</ele>
        <time>2020-09-11T11:30:58Z</time>
      </trkpt>
      <trkpt lat="43.91585" lon="5.19474">
        <ele>370.726</ele>
        <time>2020-09-11T11:31:02Z</time>
      </trkpt>
      <trkpt lat="43.9158" lon="5.19473">
        <ele>370.494</ele>
        <time>2020-09-11T11:31:06Z</time>
      </trkpt>
      <trkpt lat="43.91574" lon="5.19473">
        <ele>370.476</ele>
        <time>2020-09-11T11:31:10Z</time>
      </trkpt>
      <trkpt lat="43.91569" lon="5.19474">
        <ele>370.186</ele>
        <time>2020-09-11T11:31:16Z</time>
      </trkpt>
      <trkpt lat="43.91563" lon="5.19475">
        <ele>369.776</ele>
        <time>2020-09-11T11:31:20Z</time>
      </trkpt>
      <trkpt lat="43.91559" lon="5.19474">
        <ele>369.625</ele>
        <time>2020-09-11T11:31:24Z</time>
      </trkpt>
      <trkpt lat="43.91554" lon="5.19474">
        <ele>369.542</ele>
        <time>2020-09-11T11:31:29Z</time>
      </trkpt>
      <trkpt lat="43.91549" lon="5.19474">
        <ele>369.522</ele>
        <time>2020-09-11T11:31:33Z</time>
      </trkpt>
      <trkpt lat="43.91544" lon="5.19475">
        <ele>369.314</ele>
        <time>2020-09-11T11:31:36Z</time>
      </trkpt>
      <trkpt lat="43.91538" lon="5.19477">
        <ele>369.208</ele>
        <time>2020-09-11T11:31:42Z</time>
      </trkpt>
      <trkpt lat="43.91533" lon="5.19478">
        <ele>369.399</ele>
        <time>2020-09-11T11:31:48Z</time>
      </trkpt>
      <trkpt lat="43.91528" lon="5.19479">
        <ele>368.84</ele>
        <time>2020-09-11T11:31:51Z</time>
      </trkpt>
      <trkpt lat="43.91523" lon="5.19479">
        <ele>369.139</ele>
        <time>2020-09-11T11:31:56Z</time>
      </trkpt>
      <trkpt lat="43.91519" lon="5.1948">
        <ele>369.257</ele>
        <time>2020-09-11T11:32:02Z</time>
      </trkpt>
      <trkpt lat="43.91513" lon="5.19482">
        <ele>369.479</ele>
        <time>2020-09-11T11:32:06Z</time>
      </trkpt>
      <trkpt lat="43.91508" lon="5.19483">
        <ele>369.279</ele>
        <time>2020-09-11T11:32:11Z</time>
      </trkpt>
      <trkpt lat="43.91502" lon="5.19486">
        <ele>369.119</ele>
        <time>2020-09-11T11:32:15Z</time>
      </trkpt>
      <trkpt lat="43.91498" lon="5.19489">
        <ele>368.818</ele>
        <time>2020-09-11T11:32:21Z</time>
      </trkpt>
      <trkpt lat="43.91492" lon="5.19491">
        <ele>368.933</ele>
        <time>2020-09-11T11:32:26Z</time>
      </trkpt>
      <trkpt lat="43.91487" lon="5.19492">
        <ele>369.023</ele>
        <time>2020-09-11T11:32:31Z</time>
      </trkpt>
      <trkpt lat="43.91483" lon="5.19494">
        <ele>369.415</ele>
        <time>2020-09-11T11:32:36Z</time>
      </trkpt>
      <trkpt lat="43.91478" lon="5.19497">
        <ele>369.008</ele>
        <time>2020-09-11T11:32:40Z</time>
      </trkpt>
      <trkpt lat="43.91473" lon="5.19501">
        <ele>369.218</ele>
        <time>2020-09-11T11:32:49Z</time>
      </trkpt>
      <trkpt lat="43.91468" lon="5.19502">
        <ele>368.929</ele>
        <time>2020-09-11T11:32:54Z</time>
      </trkpt>
      <trkpt lat="43.91463" lon="5.19504">
        <ele>368.688</ele>
        <time>2020-09-11T11:32:59Z</time>
      </trkpt>
      <trkpt lat="43.91458" lon="5.19505">
        <ele>368.566</ele>
        <time>2020-09-11T11:33:03Z</time>
      </trkpt>
      <trkpt lat="43.91453" lon="5.19508">
        <ele>368.388</ele>
        <time>2020-09-11T11:33:09Z</time>
      </trkpt>
      <trkpt lat="43.91448" lon="5.19511">
        <ele>368.038</ele>
        <time>2020-09-11T11:33:13Z</time>
      </trkpt>
      <trkpt lat="43.91443" lon="5.19515">
        <ele>368.158</ele>
        <time>2020-09-11T11:33:17Z</time>
      </trkpt>
      <trkpt lat="43.91438" lon="5.19519">
        <ele>367.817</ele>
        <time>2020-09-11T11:33:23Z</time>
      </trkpt>
      <trkpt lat="43.91434" lon="5.19523">
        <ele>367.832</ele>
        <time>2020-09-11T11:33:27Z</time>
      </trkpt>
      <trkpt lat="43.9143" lon="5.19529">
        <ele>367.592</ele>
        <time>2020-09-11T11:33:33Z</time>
      </trkpt>
      <trkpt lat="43.91427" lon="5.19534">
        <ele>367.011</ele>
        <time>2020-09-11T11:33:38Z</time>
      </trkpt>
      <trkpt lat="43.91423" lon="5.19539">
        <ele>366.708</ele>
        <time>2020-09-11T11:33:42Z</time>
      </trkpt>
      <trkpt lat="43.91419" lon="5.19545">
        <ele>366.558</ele>
        <time>2020-09-11T11:33:48Z</time>
      </trkpt>
      <trkpt lat="43.91415" lon="5.1955">
        <ele>366.059</ele>
        <time>2020-09-11T11:33:53Z</time>
      </trkpt>
      <trkpt lat="43.91411" lon="5.19555">
        <ele>365.888</ele>
        <time>2020-09-11T11:33:57Z</time>
      </trkpt>
      <trkpt lat="43.91409" lon="5.19561">
        <ele>365.886</ele>
        <time>2020-09-11T11:34:03Z</time>
      </trkpt>
      <trkpt lat="43.91408" lon="5.19568">
        <ele>365.388</ele>
        <time>2020-09-11T11:34:08Z</time>
      </trkpt>
      <trkpt lat="43.91408" lon="5.19576">
        <ele>365.348</ele>
        <time>2020-09-11T11:34:14Z</time>
      </trkpt>
      <trkpt lat="43.91409" lon="5.19582">
        <ele>365.648</ele>
        <time>2020-09-11T11:34:19Z</time>
      </trkpt>
      <trkpt lat="43.9141" lon="5.19589">
        <ele>365.577</ele>
        <time>2020-09-11T11:34:23Z</time>
      </trkpt>
      <trkpt lat="43.91411" lon="5.19596">
        <ele>365.536</ele>
        <time>2020-09-11T11:34:28Z</time>
      </trkpt>
      <trkpt lat="43.9141" lon="5.19603">
        <ele>365.117</ele>
        <time>2020-09-11T11:34:34Z</time>
      </trkpt>
      <trkpt lat="43.91408" lon="5.1961">
        <ele>365.018</ele>
        <time>2020-09-11T11:34:38Z</time>
      </trkpt>
      <trkpt lat="43.91405" lon="5.19616">
        <ele>365.108</ele>
        <time>2020-09-11T11:34:43Z</time>
      </trkpt>
      <trkpt lat="43.91401" lon="5.19621">
        <ele>364.868</ele>
        <time>2020-09-11T11:34:46Z</time>
      </trkpt>
      <trkpt lat="43.91398" lon="5.19625">
        <ele>364.129</ele>
        <time>2020-09-11T11:34:50Z</time>
      </trkpt>
      <trkpt lat="43.91394" lon="5.1963">
        <ele>363.638</ele>
        <time>2020-09-11T11:34:54Z</time>
      </trkpt>
      <trkpt lat="43.91392" lon="5.19636">
        <ele>362.866</ele>
        <time>2020-09-11T11:34:59Z</time>
      </trkpt>
      <trkpt lat="43.91391" lon="5.19643">
        <ele>361.968</ele>
        <time>2020-09-11T11:35:04Z</time>
      </trkpt>
      <trkpt lat="43.91389" lon="5.19649">
        <ele>361.058</ele>
        <time>2020-09-11T11:35:10Z</time>
      </trkpt>
      <trkpt lat="43.91386" lon="5.19654">
        <ele>359.988</ele>
        <time>2020-09-11T11:35:15Z</time>
      </trkpt>
      <trkpt lat="43.91381" lon="5.19655">
        <ele>359.537</ele>
        <time>2020-09-11T11:35:20Z</time>
      </trkpt>
      <trkpt lat="43.91376" lon="5.19655">
        <ele>358.773</ele>
        <time>2020-09-11T11:35:24Z</time>
      </trkpt>
      <trkpt lat="43.91371" lon="5.19657">
        <ele>357.685</ele>
        <time>2020-09-11T11:35:31Z</time>
      </trkpt>
      <trkpt lat="43.91366" lon="5.19659">
        <ele>356.313</ele>
        <time>2020-09-11T11:35:37Z</time>
      </trkpt>
      <trkpt lat="43.91361" lon="5.1966">
        <ele>355.408</ele>
        <time>2020-09-11T11:35:43Z</time>
      </trkpt>
      <trkpt lat="43.91356" lon="5.19663">
        <ele>354.322</ele>
        <time>2020-09-11T11:35:50Z</time>
      </trkpt>
      <trkpt lat="43.91352" lon="5.19666">
        <ele>353.073</ele>
        <time>2020-09-11T11:35:57Z</time>
      </trkpt>
      <trkpt lat="43.91347" lon="5.19668">
        <ele>351.662</ele>
        <time>2020-09-11T11:36:04Z</time>
      </trkpt>
      <trkpt lat="43.91342" lon="5.19669">
        <ele>350.52</ele>
        <time>2020-09-11T11:36:23Z</time>
      </trkpt>
      <trkpt lat="43.91337" lon="5.19671">
        <ele>349.512</ele>
        <time>2020-09-11T11:36:30Z</time>
      </trkpt>
      <trkpt lat="43.91339" lon="5.19677">
        <ele>348.142</ele>
        <time>2020-09-11T11:36:52Z</time>
      </trkpt>
      <trkpt lat="43.91345" lon="5.19675">
        <ele>347.862</ele>
        <time>2020-09-11T11:36:57Z</time>
      </trkpt>
      <trkpt lat="43.91349" lon="5.19676">
        <ele>347.791</ele>
        <time>2020-09-11T11:37:01Z</time>
      </trkpt>
      <trkpt lat="43.91353" lon="5.19677">
        <ele>347.226</ele>
        <time>2020-09-11T11:37:06Z</time>
      </trkpt>
      <trkpt lat="43.91358" lon="5.1968">
        <ele>347.547</ele>
        <time>2020-09-11T11:37:11Z</time>
      </trkpt>
      <trkpt lat="43.91362" lon="5.19684">
        <ele>347.011</ele>
        <time>2020-09-11T11:37:16Z</time>
      </trkpt>
      <trkpt lat="43.91366" lon="5.19688">
        <ele>346.908</ele>
        <time>2020-09-11T11:37:22Z</time>
      </trkpt>
      <trkpt lat="43.91371" lon="5.19692">
        <ele>346.787</ele>
        <time>2020-09-11T11:37:28Z</time>
      </trkpt>
      <trkpt lat="43.91375" lon="5.19695">
        <ele>346.488</ele>
        <time>2020-09-11T11:37:32Z</time>
      </trkpt>
      <trkpt lat="43.9138" lon="5.19698">
        <ele>346.667</ele>
        <time>2020-09-11T11:37:39Z</time>
      </trkpt>
      <trkpt lat="43.91384" lon="5.19702">
        <ele>346.465</ele>
        <time>2020-09-11T11:37:44Z</time>
      </trkpt>
      <trkpt lat="43.91388" lon="5.19706">
        <ele>346.687</ele>
        <time>2020-09-11T11:37:50Z</time>
      </trkpt>
      <trkpt lat="43.91393" lon="5.19706">
        <ele>346.737</ele>
        <time>2020-09-11T11:37:59Z</time>
      </trkpt>
      <trkpt lat="43.91397" lon="5.19709">
        <ele>346.817</ele>
        <time>2020-09-11T11:38:06Z</time>
      </trkpt>
      <trkpt lat="43.91397" lon="5.19716">
        <ele>347.266</ele>
        <time>2020-09-11T11:38:20Z</time>
      </trkpt>
      <trkpt lat="43.91398" lon="5.19722">
        <ele>347.027</ele>
        <time>2020-09-11T11:38:38Z</time>
      </trkpt>
      <trkpt lat="43.91398" lon="5.19728">
        <ele>347.668</ele>
        <time>2020-09-11T11:39:33Z</time>
      </trkpt>
      <trkpt lat="43.91395" lon="5.19735">
        <ele>347.214</ele>
        <time>2020-09-11T11:40:55Z</time>
      </trkpt>
      <trkpt lat="43.91391" lon="5.1974">
        <ele>347.508</ele>
        <time>2020-09-11T11:41:00Z</time>
      </trkpt>
      <trkpt lat="43.91388" lon="5.19745">
        <ele>347.677</ele>
        <time>2020-09-11T11:41:02Z</time>
      </trkpt>
      <trkpt lat="43.91383" lon="5.19748">
        <ele>347.238</ele>
        <time>2020-09-11T11:41:05Z</time>
      </trkpt>
      <trkpt lat="43.91379" lon="5.19752">
        <ele>347.217</ele>
        <time>2020-09-11T11:41:08Z</time>
      </trkpt>
      <trkpt lat="43.91374" lon="5.19754">
        <ele>347.325</ele>
        <time>2020-09-11T11:41:12Z</time>
      </trkpt>
      <trkpt lat="43.91369" lon="5.19755">
        <ele>347.247</ele>
        <time>2020-09-11T11:41:15Z</time>
      </trkpt>
      <trkpt lat="43.91364" lon="5.19753">
        <ele>347.197</ele>
        <time>2020-09-11T11:41:19Z</time>
      </trkpt>
      <trkpt lat="43.91358" lon="5.19753">
        <ele>347.677</ele>
        <time>2020-09-11T11:41:23Z</time>
      </trkpt>
      <trkpt lat="43.91353" lon="5.19753">
        <ele>347.436</ele>
        <time>2020-09-11T11:41:27Z</time>
      </trkpt>
      <trkpt lat="43.91348" lon="5.19753">
        <ele>347.415</ele>
        <time>2020-09-11T11:41:30Z</time>
      </trkpt>
      <trkpt lat="43.91343" lon="5.19754">
        <ele>347.365</ele>
        <time>2020-09-11T11:41:35Z</time>
      </trkpt>
      <trkpt lat="43.91338" lon="5.19756">
        <ele>347.411</ele>
        <time>2020-09-11T11:41:39Z</time>
      </trkpt>
      <trkpt lat="43.91333" lon="5.19757">
        <ele>347.408</ele>
        <time>2020-09-11T11:41:43Z</time>
      </trkpt>
      <trkpt lat="43.91328" lon="5.19759">
        <ele>347.496</ele>
        <time>2020-09-11T11:41:47Z</time>
      </trkpt>
      <trkpt lat="43.91323" lon="5.19762">
        <ele>347.457</ele>
        <time>2020-09-11T11:41:52Z</time>
      </trkpt>
      <trkpt lat="43.91318" lon="5.19765">
        <ele>347.246</ele>
        <time>2020-09-11T11:41:57Z</time>
      </trkpt>
      <trkpt lat="43.91313" lon="5.19768">
        <ele>347.554</ele>
        <time>2020-09-11T11:42:01Z</time>
      </trkpt>
      <trkpt lat="43.91308" lon="5.19771">
        <ele>347.426</ele>
        <time>2020-09-11T11:42:06Z</time>
      </trkpt>
      <trkpt lat="43.91303" lon="5.19774">
        <ele>347.096</ele>
        <time>2020-09-11T11:42:09Z</time>
      </trkpt>
      <trkpt lat="43.91297" lon="5.19777">
        <ele>347.396</ele>
        <time>2020-09-11T11:42:14Z</time>
      </trkpt>
      <trkpt lat="43.91292" lon="5.19779">
        <ele>347.215</ele>
        <time>2020-09-11T11:42:19Z</time>
      </trkpt>
      <trkpt lat="43.91288" lon="5.19779">
        <ele>347.032</ele>
        <time>2020-09-11T11:42:23Z</time>
      </trkpt>
      <trkpt lat="43.91282" lon="5.19781">
        <ele>347.192</ele>
        <time>2020-09-11T11:42:27Z</time>
      </trkpt>
      <trkpt lat="43.91277" lon="5.19781">
        <ele>347.011</ele>
        <time>2020-09-11T11:42:33Z</time>
      </trkpt>
      <trkpt lat="43.91272" lon="5.19781">
        <ele>347.208</ele>
        <time>2020-09-11T11:42:37Z</time>
      </trkpt>
      <trkpt lat="43.91267" lon="5.19782">
        <ele>346.868</ele>
        <time>2020-09-11T11:42:40Z</time>
      </trkpt>
      <trkpt lat="43.91262" lon="5.19784">
        <ele>346.939</ele>
        <time>2020-09-11T11:42:48Z</time>
      </trkpt>
      <trkpt lat="43.91257" lon="5.19786">
        <ele>347.128</ele>
        <time>2020-09-11T11:42:53Z</time>
      </trkpt>
      <trkpt lat="43.91252" lon="5.19788">
        <ele>346.926</ele>
        <time>2020-09-11T11:42:58Z</time>
      </trkpt>
      <trkpt lat="43.91247" lon="5.1979">
        <ele>346.998</ele>
        <time>2020-09-11T11:43:02Z</time>
      </trkpt>
      <trkpt lat="43.91242" lon="5.19791">
        <ele>346.838</ele>
        <time>2020-09-11T11:43:06Z</time>
      </trkpt>
      <trkpt lat="43.91238" lon="5.19791">
        <ele>346.988</ele>
        <time>2020-09-11T11:43:10Z</time>
      </trkpt>
      <trkpt lat="43.91232" lon="5.19792">
        <ele>346.967</ele>
        <time>2020-09-11T11:43:14Z</time>
      </trkpt>
      <trkpt lat="43.91226" lon="5.19793">
        <ele>347.135</ele>
        <time>2020-09-11T11:43:20Z</time>
      </trkpt>
      <trkpt lat="43.91221" lon="5.19795">
        <ele>347.386</ele>
        <time>2020-09-11T11:43:24Z</time>
      </trkpt>
      <trkpt lat="43.91217" lon="5.19798">
        <ele>347.014</ele>
        <time>2020-09-11T11:43:26Z</time>
      </trkpt>
      <trkpt lat="43.91213" lon="5.19803">
        <ele>347.608</ele>
        <time>2020-09-11T11:43:31Z</time>
      </trkpt>
      <trkpt lat="43.91209" lon="5.19808">
        <ele>347.638</ele>
        <time>2020-09-11T11:43:36Z</time>
      </trkpt>
      <trkpt lat="43.91205" lon="5.19813">
        <ele>348.189</ele>
        <time>2020-09-11T11:43:39Z</time>
      </trkpt>
      <trkpt lat="43.91203" lon="5.19819">
        <ele>348.278</ele>
        <time>2020-09-11T11:43:43Z</time>
      </trkpt>
      <trkpt lat="43.912" lon="5.19825">
        <ele>348.446</ele>
        <time>2020-09-11T11:43:48Z</time>
      </trkpt>
      <trkpt lat="43.91196" lon="5.1983">
        <ele>348.618</ele>
        <time>2020-09-11T11:43:52Z</time>
      </trkpt>
      <trkpt lat="43.91193" lon="5.19835">
        <ele>349.278</ele>
        <time>2020-09-11T11:43:57Z</time>
      </trkpt>
      <trkpt lat="43.91191" lon="5.1984">
        <ele>349.728</ele>
        <time>2020-09-11T11:44:01Z</time>
      </trkpt>
      <trkpt lat="43.91187" lon="5.19846">
        <ele>349.667</ele>
        <time>2020-09-11T11:44:05Z</time>
      </trkpt>
      <trkpt lat="43.91184" lon="5.19851">
        <ele>350.159</ele>
        <time>2020-09-11T11:44:10Z</time>
      </trkpt>
      <trkpt lat="43.9118" lon="5.19856">
        <ele>350.103</ele>
        <time>2020-09-11T11:44:14Z</time>
      </trkpt>
      <trkpt lat="43.91176" lon="5.19859">
        <ele>350.323</ele>
        <time>2020-09-11T11:44:17Z</time>
      </trkpt>
      <trkpt lat="43.9117" lon="5.19863">
        <ele>350.508</ele>
        <time>2020-09-11T11:44:22Z</time>
      </trkpt>
      <trkpt lat="43.91166" lon="5.19867">
        <ele>350.76</ele>
        <time>2020-09-11T11:44:26Z</time>
      </trkpt>
      <trkpt lat="43.91161" lon="5.1987">
        <ele>350.861</ele>
        <time>2020-09-11T11:44:31Z</time>
      </trkpt>
      <trkpt lat="43.91158" lon="5.19875">
        <ele>350.82</ele>
        <time>2020-09-11T11:44:35Z</time>
      </trkpt>
      <trkpt lat="43.91157" lon="5.19882">
        <ele>350.998</ele>
        <time>2020-09-11T11:44:39Z</time>
      </trkpt>
      <trkpt lat="43.91157" lon="5.19889">
        <ele>351.19</ele>
        <time>2020-09-11T11:44:42Z</time>
      </trkpt>
      <trkpt lat="43.91157" lon="5.19895">
        <ele>351.76</ele>
        <time>2020-09-11T11:44:45Z</time>
      </trkpt>
      <trkpt lat="43.91156" lon="5.19902">
        <ele>351.44</ele>
        <time>2020-09-11T11:44:50Z</time>
      </trkpt>
      <trkpt lat="43.91154" lon="5.19908">
        <ele>351.979</ele>
        <time>2020-09-11T11:44:54Z</time>
      </trkpt>
      <trkpt lat="43.9115" lon="5.19913">
        <ele>352.017</ele>
        <time>2020-09-11T11:44:58Z</time>
      </trkpt>
      <trkpt lat="43.91146" lon="5.19917">
        <ele>352.287</ele>
        <time>2020-09-11T11:45:03Z</time>
      </trkpt>
      <trkpt lat="43.91142" lon="5.19921">
        <ele>352.715</ele>
        <time>2020-09-11T11:45:06Z</time>
      </trkpt>
      <trkpt lat="43.91139" lon="5.19926">
        <ele>352.908</ele>
        <time>2020-09-11T11:45:10Z</time>
      </trkpt>
      <trkpt lat="43.91135" lon="5.19931">
        <ele>353.546</ele>
        <time>2020-09-11T11:45:15Z</time>
      </trkpt>
      <trkpt lat="43.91133" lon="5.19937">
        <ele>353.267</ele>
        <time>2020-09-11T11:45:19Z</time>
      </trkpt>
      <trkpt lat="43.91133" lon="5.19944">
        <ele>353.626</ele>
        <time>2020-09-11T11:45:24Z</time>
      </trkpt>
      <trkpt lat="43.91131" lon="5.1995">
        <ele>353.244</ele>
        <time>2020-09-11T11:45:35Z</time>
      </trkpt>
      <trkpt lat="43.91128" lon="5.19946">
        <ele>353.096</ele>
        <time>2020-09-11T11:45:45Z</time>
      </trkpt>
      <trkpt lat="43.91123" lon="5.19947">
        <ele>353.686</ele>
        <time>2020-09-11T11:47:22Z</time>
      </trkpt>
      <trkpt lat="43.9112" lon="5.19952">
        <ele>353.496</ele>
        <time>2020-09-11T11:47:55Z</time>
      </trkpt>
      <trkpt lat="43.91116" lon="5.19957">
        <ele>353.255</ele>
        <time>2020-09-11T11:48:02Z</time>
      </trkpt>
      <trkpt lat="43.91111" lon="5.19959">
        <ele>353.429</ele>
        <time>2020-09-11T11:48:06Z</time>
      </trkpt>
      <trkpt lat="43.91107" lon="5.19962">
        <ele>353</ele>
        <time>2020-09-11T11:48:09Z</time>
      </trkpt>
      <trkpt lat="43.91102" lon="5.19965">
        <ele>353.72</ele>
        <time>2020-09-11T11:48:12Z</time>
      </trkpt>
      <trkpt lat="43.91105" lon="5.1997">
        <ele>353.608</ele>
        <time>2020-09-11T11:48:25Z</time>
      </trkpt>
      <trkpt lat="43.91101" lon="5.19974">
        <ele>353.457</ele>
        <time>2020-09-11T11:48:46Z</time>
      </trkpt>
      <trkpt lat="43.91099" lon="5.19981">
        <ele>353.648</ele>
        <time>2020-09-11T11:48:50Z</time>
      </trkpt>
      <trkpt lat="43.91098" lon="5.19988">
        <ele>353.497</ele>
        <time>2020-09-11T11:48:55Z</time>
      </trkpt>
      <trkpt lat="43.91098" lon="5.19994">
        <ele>353.435</ele>
        <time>2020-09-11T11:49:00Z</time>
      </trkpt>
      <trkpt lat="43.91096" lon="5.20001">
        <ele>353.587</ele>
        <time>2020-09-11T11:49:06Z</time>
      </trkpt>
      <trkpt lat="43.91095" lon="5.20007">
        <ele>353.747</ele>
        <time>2020-09-11T11:49:10Z</time>
      </trkpt>
      <trkpt lat="43.911" lon="5.2001">
        <ele>353.667</ele>
        <time>2020-09-11T11:49:19Z</time>
      </trkpt>
      <trkpt lat="43.91104" lon="5.20013">
        <ele>354.016</ele>
        <time>2020-09-11T11:49:26Z</time>
      </trkpt>
      <trkpt lat="43.91108" lon="5.20012">
        <ele>356.125</ele>
        <time>2020-09-11T11:49:35Z</time>
      </trkpt>
      <trkpt lat="43.91113" lon="5.2001">
        <ele>358.726</ele>
        <time>2020-09-11T11:50:19Z</time>
      </trkpt>
      <trkpt lat="43.91112" lon="5.20004">
        <ele>356.408</ele>
        <time>2020-09-11T11:50:41Z</time>
      </trkpt>
      <trkpt lat="43.91107" lon="5.20006">
        <ele>353.708</ele>
        <time>2020-09-11T11:50:58Z</time>
      </trkpt>
      <trkpt lat="43.91102" lon="5.20007">
        <ele>353.547</ele>
        <time>2020-09-11T11:51:04Z</time>
      </trkpt>
      <trkpt lat="43.91098" lon="5.20009">
        <ele>353.738</ele>
        <time>2020-09-11T11:51:07Z</time>
      </trkpt>
      <trkpt lat="43.91093" lon="5.20011">
        <ele>353.257</ele>
        <time>2020-09-11T11:51:11Z</time>
      </trkpt>
      <trkpt lat="43.91087" lon="5.20013">
        <ele>352.115</ele>
        <time>2020-09-11T11:51:22Z</time>
      </trkpt>
      <trkpt lat="43.91083" lon="5.20012">
        <ele>351.417</ele>
        <time>2020-09-11T11:51:29Z</time>
      </trkpt>
      <trkpt lat="43.91078" lon="5.2001">
        <ele>351.297</ele>
        <time>2020-09-11T11:51:38Z</time>
      </trkpt>
      <trkpt lat="43.91073" lon="5.20008">
        <ele>350.687</ele>
        <time>2020-09-11T11:51:44Z</time>
      </trkpt>
      <trkpt lat="43.91068" lon="5.20008">
        <ele>348.976</ele>
        <time>2020-09-11T11:51:53Z</time>
      </trkpt>
      <trkpt lat="43.91066" lon="5.20002">
        <ele>348.771</ele>
        <time>2020-09-11T11:52:01Z</time>
      </trkpt>
      <trkpt lat="43.91069" lon="5.19997">
        <ele>348.441</ele>
        <time>2020-09-11T11:52:40Z</time>
      </trkpt>
      <trkpt lat="43.91065" lon="5.20001">
        <ele>348.615</ele>
        <time>2020-09-11T11:52:48Z</time>
      </trkpt>
      <trkpt lat="43.91064" lon="5.2001">
        <ele>346.808</ele>
        <time>2020-09-11T11:53:08Z</time>
      </trkpt>
      <trkpt lat="43.91061" lon="5.20015">
        <ele>346.562</ele>
        <time>2020-09-11T11:53:13Z</time>
      </trkpt>
      <trkpt lat="43.91056" lon="5.20018">
        <ele>346.283</ele>
        <time>2020-09-11T11:53:17Z</time>
      </trkpt>
      <trkpt lat="43.91052" lon="5.20018">
        <ele>345.852</ele>
        <time>2020-09-11T11:53:24Z</time>
      </trkpt>
      <trkpt lat="43.91048" lon="5.20022">
        <ele>345.29</ele>
        <time>2020-09-11T11:53:29Z</time>
      </trkpt>
      <trkpt lat="43.91044" lon="5.20026">
        <ele>344.392</ele>
        <time>2020-09-11T11:53:33Z</time>
      </trkpt>
      <trkpt lat="43.91039" lon="5.20028">
        <ele>343.492</ele>
        <time>2020-09-11T11:53:38Z</time>
      </trkpt>
      <trkpt lat="43.91035" lon="5.20031">
        <ele>342.922</ele>
        <time>2020-09-11T11:53:43Z</time>
      </trkpt>
      <trkpt lat="43.9103" lon="5.20033">
        <ele>341.811</ele>
        <time>2020-09-11T11:53:50Z</time>
      </trkpt>
      <trkpt lat="43.91026" lon="5.20037">
        <ele>340.765</ele>
        <time>2020-09-11T11:53:56Z</time>
      </trkpt>
      <trkpt lat="43.91024" lon="5.20043">
        <ele>339.568</ele>
        <time>2020-09-11T11:54:05Z</time>
      </trkpt>
      <trkpt lat="43.91028" lon="5.20045">
        <ele>342.314</ele>
        <time>2020-09-11T11:54:57Z</time>
      </trkpt>
      <trkpt lat="43.91032" lon="5.20039">
        <ele>342.908</ele>
        <time>2020-09-11T11:55:01Z</time>
      </trkpt>
      <trkpt lat="43.91035" lon="5.20033">
        <ele>343.461</ele>
        <time>2020-09-11T11:55:03Z</time>
      </trkpt>
      <trkpt lat="43.91038" lon="5.20029">
        <ele>343.872</ele>
        <time>2020-09-11T11:55:06Z</time>
      </trkpt>
      <trkpt lat="43.91041" lon="5.20024">
        <ele>344.871</ele>
        <time>2020-09-11T11:55:10Z</time>
      </trkpt>
      <trkpt lat="43.91045" lon="5.20018">
        <ele>345.539</ele>
        <time>2020-09-11T11:55:17Z</time>
      </trkpt>
      <trkpt lat="43.91046" lon="5.20011">
        <ele>345.321</ele>
        <time>2020-09-11T11:55:25Z</time>
      </trkpt>
      <trkpt lat="43.91044" lon="5.20004">
        <ele>345.071</ele>
        <time>2020-09-11T11:55:30Z</time>
      </trkpt>
      <trkpt lat="43.91041" lon="5.19997">
        <ele>344.421</ele>
        <time>2020-09-11T11:55:36Z</time>
      </trkpt>
      <trkpt lat="43.91039" lon="5.19992">
        <ele>343.77</ele>
        <time>2020-09-11T11:55:41Z</time>
      </trkpt>
      <trkpt lat="43.91038" lon="5.19985">
        <ele>342.677</ele>
        <time>2020-09-11T11:55:48Z</time>
      </trkpt>
      <trkpt lat="43.91036" lon="5.19979">
        <ele>341.861</ele>
        <time>2020-09-11T11:55:54Z</time>
      </trkpt>
      <trkpt lat="43.91033" lon="5.19974">
        <ele>340.727</ele>
        <time>2020-09-11T11:56:03Z</time>
      </trkpt>
      <trkpt lat="43.91033" lon="5.19967">
        <ele>340.208</ele>
        <time>2020-09-11T11:56:12Z</time>
      </trkpt>
      <trkpt lat="43.91034" lon="5.19961">
        <ele>339.572</ele>
        <time>2020-09-11T11:56:21Z</time>
      </trkpt>
      <trkpt lat="43.91037" lon="5.19957">
        <ele>338.463</ele>
        <time>2020-09-11T11:56:29Z</time>
      </trkpt>
      <trkpt lat="43.91042" lon="5.19953">
        <ele>337.872</ele>
        <time>2020-09-11T11:56:37Z</time>
      </trkpt>
      <trkpt lat="43.91039" lon="5.19958">
        <ele>339.03</ele>
        <time>2020-09-11T11:57:11Z</time>
      </trkpt>
      <trkpt lat="43.91042" lon="5.19964">
        <ele>340.132</ele>
        <time>2020-09-11T11:57:22Z</time>
      </trkpt>
      <trkpt lat="43.91042" lon="5.1997">
        <ele>340.932</ele>
        <time>2020-09-11T11:57:27Z</time>
      </trkpt>
      <trkpt lat="43.91039" lon="5.19976">
        <ele>341.932</ele>
        <time>2020-09-11T11:57:33Z</time>
      </trkpt>
      <trkpt lat="43.91036" lon="5.19982">
        <ele>343.211</ele>
        <time>2020-09-11T11:57:40Z</time>
      </trkpt>
      <trkpt lat="43.91035" lon="5.19989">
        <ele>344.427</ele>
        <time>2020-09-11T11:57:47Z</time>
      </trkpt>
      <trkpt lat="43.91035" lon="5.19996">
        <ele>345.068</ele>
        <time>2020-09-11T11:57:51Z</time>
      </trkpt>
      <trkpt lat="43.91037" lon="5.20002">
        <ele>345.514</ele>
        <time>2020-09-11T11:57:55Z</time>
      </trkpt>
      <trkpt lat="43.9104" lon="5.20009">
        <ele>345.408</ele>
        <time>2020-09-11T11:57:59Z</time>
      </trkpt>
      <trkpt lat="43.91045" lon="5.2001">
        <ele>346.247</ele>
        <time>2020-09-11T11:58:05Z</time>
      </trkpt>
      <trkpt lat="43.9105" lon="5.2001">
        <ele>347.748</ele>
        <time>2020-09-11T11:58:15Z</time>
      </trkpt>
      <trkpt lat="43.91055" lon="5.20013">
        <ele>348.217</ele>
        <time>2020-09-11T11:58:20Z</time>
      </trkpt>
      <trkpt lat="43.91059" lon="5.20016">
        <ele>349.315</ele>
        <time>2020-09-11T11:58:26Z</time>
      </trkpt>
      <trkpt lat="43.91063" lon="5.20014">
        <ele>349.957</ele>
        <time>2020-09-11T11:58:32Z</time>
      </trkpt>
      <trkpt lat="43.91067" lon="5.2001">
        <ele>350.277</ele>
        <time>2020-09-11T11:58:37Z</time>
      </trkpt>
      <trkpt lat="43.91071" lon="5.20007">
        <ele>351.267</ele>
        <time>2020-09-11T11:58:43Z</time>
      </trkpt>
      <trkpt lat="43.91075" lon="5.20002">
        <ele>351.846</ele>
        <time>2020-09-11T11:58:49Z</time>
      </trkpt>
      <trkpt lat="43.91077" lon="5.19997">
        <ele>352.651</ele>
        <time>2020-09-11T11:58:55Z</time>
      </trkpt>
      <trkpt lat="43.91081" lon="5.19993">
        <ele>352.701</ele>
        <time>2020-09-11T11:59:00Z</time>
      </trkpt>
      <trkpt lat="43.91084" lon="5.19987">
        <ele>352.911</ele>
        <time>2020-09-11T11:59:05Z</time>
      </trkpt>
      <trkpt lat="43.91087" lon="5.19983">
        <ele>352.908</ele>
        <time>2020-09-11T11:59:09Z</time>
      </trkpt>
      <trkpt lat="43.9109" lon="5.19977">
        <ele>352.83</ele>
        <time>2020-09-11T11:59:13Z</time>
      </trkpt>
      <trkpt lat="43.91092" lon="5.19972">
        <ele>352.761</ele>
        <time>2020-09-11T11:59:17Z</time>
      </trkpt>
      <trkpt lat="43.91096" lon="5.19967">
        <ele>352.99</ele>
        <time>2020-09-11T11:59:21Z</time>
      </trkpt>
      <trkpt lat="43.91097" lon="5.19961">
        <ele>352.828</ele>
        <time>2020-09-11T11:59:26Z</time>
      </trkpt>
      <trkpt lat="43.91101" lon="5.19957">
        <ele>352.84</ele>
        <time>2020-09-11T11:59:31Z</time>
      </trkpt>
      <trkpt lat="43.91096" lon="5.19956">
        <ele>352.45</ele>
        <time>2020-09-11T11:59:40Z</time>
      </trkpt>
      <trkpt lat="43.91091" lon="5.19957">
        <ele>352.27</ele>
        <time>2020-09-11T11:59:48Z</time>
      </trkpt>
      <trkpt lat="43.91096" lon="5.19955">
        <ele>352.759</ele>
        <time>2020-09-11T12:00:01Z</time>
      </trkpt>
      <trkpt lat="43.91101" lon="5.19957">
        <ele>352.752</ele>
        <time>2020-09-11T12:00:08Z</time>
      </trkpt>
      <trkpt lat="43.91104" lon="5.19961">
        <ele>352.353</ele>
        <time>2020-09-11T12:00:19Z</time>
      </trkpt>
      <trkpt lat="43.91108" lon="5.19956">
        <ele>352.808</ele>
        <time>2020-09-11T12:00:31Z</time>
      </trkpt>
      <trkpt lat="43.91113" lon="5.19954">
        <ele>352.808</ele>
        <time>2020-09-11T12:00:38Z</time>
      </trkpt>
      <trkpt lat="43.91117" lon="5.1995">
        <ele>352.73</ele>
        <time>2020-09-11T12:00:42Z</time>
      </trkpt>
      <trkpt lat="43.91121" lon="5.19952">
        <ele>352.761</ele>
        <time>2020-09-11T12:00:58Z</time>
      </trkpt>
      <trkpt lat="43.91126" lon="5.19948">
        <ele>352.64</ele>
        <time>2020-09-11T12:01:11Z</time>
      </trkpt>
      <trkpt lat="43.9113" lon="5.19942">
        <ele>352.668</ele>
        <time>2020-09-11T12:01:16Z</time>
      </trkpt>
      <trkpt lat="43.91133" lon="5.19938">
        <ele>352.36</ele>
        <time>2020-09-11T12:01:20Z</time>
      </trkpt>
      <trkpt lat="43.91137" lon="5.19933">
        <ele>352.17</ele>
        <time>2020-09-11T12:01:24Z</time>
      </trkpt>
      <trkpt lat="43.9114" lon="5.19928">
        <ele>352.08</ele>
        <time>2020-09-11T12:01:29Z</time>
      </trkpt>
      <trkpt lat="43.91142" lon="5.19921">
        <ele>351.779</ele>
        <time>2020-09-11T12:01:34Z</time>
      </trkpt>
      <trkpt lat="43.91143" lon="5.19915">
        <ele>351.568</ele>
        <time>2020-09-11T12:01:38Z</time>
      </trkpt>
      <trkpt lat="43.91146" lon="5.19909">
        <ele>351.142</ele>
        <time>2020-09-11T12:01:43Z</time>
      </trkpt>
      <trkpt lat="43.91149" lon="5.19903">
        <ele>351.126</ele>
        <time>2020-09-11T12:01:47Z</time>
      </trkpt>
      <trkpt lat="43.91153" lon="5.19899">
        <ele>350.908</ele>
        <time>2020-09-11T12:01:52Z</time>
      </trkpt>
      <trkpt lat="43.91156" lon="5.19895">
        <ele>350.771</ele>
        <time>2020-09-11T12:01:56Z</time>
      </trkpt>
      <trkpt lat="43.91158" lon="5.19889">
        <ele>350.282</ele>
        <time>2020-09-11T12:02:01Z</time>
      </trkpt>
      <trkpt lat="43.91161" lon="5.19883">
        <ele>350.591</ele>
        <time>2020-09-11T12:02:07Z</time>
      </trkpt>
      <trkpt lat="43.91164" lon="5.19878">
        <ele>350.159</ele>
        <time>2020-09-11T12:02:12Z</time>
      </trkpt>
      <trkpt lat="43.91167" lon="5.19872">
        <ele>349.911</ele>
        <time>2020-09-11T12:02:18Z</time>
      </trkpt>
      <trkpt lat="43.9117" lon="5.19866">
        <ele>350.061</ele>
        <time>2020-09-11T12:02:21Z</time>
      </trkpt>
      <trkpt lat="43.91172" lon="5.1986">
        <ele>349.621</ele>
        <time>2020-09-11T12:02:26Z</time>
      </trkpt>
      <trkpt lat="43.91175" lon="5.19854">
        <ele>349.86</ele>
        <time>2020-09-11T12:02:30Z</time>
      </trkpt>
      <trkpt lat="43.91177" lon="5.19847">
        <ele>349.116</ele>
        <time>2020-09-11T12:02:34Z</time>
      </trkpt>
      <trkpt lat="43.91181" lon="5.19842">
        <ele>349.076</ele>
        <time>2020-09-11T12:02:39Z</time>
      </trkpt>
      <trkpt lat="43.91185" lon="5.19838">
        <ele>348.413</ele>
        <time>2020-09-11T12:02:45Z</time>
      </trkpt>
      <trkpt lat="43.91189" lon="5.19833">
        <ele>348.108</ele>
        <time>2020-09-11T12:02:50Z</time>
      </trkpt>
      <trkpt lat="43.91193" lon="5.19829">
        <ele>348.026</ele>
        <time>2020-09-11T12:02:54Z</time>
      </trkpt>
      <trkpt lat="43.91197" lon="5.19825">
        <ele>348.137</ele>
        <time>2020-09-11T12:02:57Z</time>
      </trkpt>
      <trkpt lat="43.912" lon="5.1982">
        <ele>347.756</ele>
        <time>2020-09-11T12:03:02Z</time>
      </trkpt>
      <trkpt lat="43.91204" lon="5.19815">
        <ele>347.464</ele>
        <time>2020-09-11T12:03:06Z</time>
      </trkpt>
      <trkpt lat="43.91208" lon="5.1981">
        <ele>347.216</ele>
        <time>2020-09-11T12:03:10Z</time>
      </trkpt>
      <trkpt lat="43.91212" lon="5.19805">
        <ele>346.346</ele>
        <time>2020-09-11T12:03:15Z</time>
      </trkpt>
      <trkpt lat="43.91216" lon="5.19801">
        <ele>346.496</ele>
        <time>2020-09-11T12:03:19Z</time>
      </trkpt>
      <trkpt lat="43.91221" lon="5.19797">
        <ele>346.235</ele>
        <time>2020-09-11T12:03:24Z</time>
      </trkpt>
      <trkpt lat="43.91224" lon="5.19793">
        <ele>346.267</ele>
        <time>2020-09-11T12:03:29Z</time>
      </trkpt>
      <trkpt lat="43.91229" lon="5.19789">
        <ele>346.281</ele>
        <time>2020-09-11T12:03:33Z</time>
      </trkpt>
      <trkpt lat="43.91233" lon="5.19788">
        <ele>345.919</ele>
        <time>2020-09-11T12:03:36Z</time>
      </trkpt>
      <trkpt lat="43.91239" lon="5.19787">
        <ele>345.808</ele>
        <time>2020-09-11T12:03:41Z</time>
      </trkpt>
      <trkpt lat="43.91244" lon="5.19786">
        <ele>346.081</ele>
        <time>2020-09-11T12:03:45Z</time>
      </trkpt>
      <trkpt lat="43.9125" lon="5.19786">
        <ele>346.292</ele>
        <time>2020-09-11T12:03:49Z</time>
      </trkpt>
      <trkpt lat="43.91256" lon="5.19787">
        <ele>346.251</ele>
        <time>2020-09-11T12:03:53Z</time>
      </trkpt>
      <trkpt lat="43.9126" lon="5.19788">
        <ele>346.189</ele>
        <time>2020-09-11T12:03:57Z</time>
      </trkpt>
      <trkpt lat="43.91267" lon="5.19788">
        <ele>346.381</ele>
        <time>2020-09-11T12:04:01Z</time>
      </trkpt>
      <trkpt lat="43.91271" lon="5.19788">
        <ele>346.221</ele>
        <time>2020-09-11T12:04:05Z</time>
      </trkpt>
      <trkpt lat="43.91276" lon="5.19787">
        <ele>346.121</ele>
        <time>2020-09-11T12:04:10Z</time>
      </trkpt>
      <trkpt lat="43.9128" lon="5.19785">
        <ele>346.31</ele>
        <time>2020-09-11T12:04:14Z</time>
      </trkpt>
      <trkpt lat="43.91285" lon="5.19783">
        <ele>346.177</ele>
        <time>2020-09-11T12:04:19Z</time>
      </trkpt>
      <trkpt lat="43.9129" lon="5.1978">
        <ele>346.361</ele>
        <time>2020-09-11T12:04:23Z</time>
      </trkpt>
      <trkpt lat="43.91295" lon="5.19778">
        <ele>346.127</ele>
        <time>2020-09-11T12:04:27Z</time>
      </trkpt>
      <trkpt lat="43.91301" lon="5.19776">
        <ele>346.308</ele>
        <time>2020-09-11T12:04:32Z</time>
      </trkpt>
      <trkpt lat="43.91306" lon="5.19776">
        <ele>346.362</ele>
        <time>2020-09-11T12:04:36Z</time>
      </trkpt>
      <trkpt lat="43.9131" lon="5.19775">
        <ele>346.473</ele>
        <time>2020-09-11T12:04:39Z</time>
      </trkpt>
      <trkpt lat="43.91316" lon="5.19775">
        <ele>346.322</ele>
        <time>2020-09-11T12:04:44Z</time>
      </trkpt>
      <trkpt lat="43.91321" lon="5.19774">
        <ele>346.66</ele>
        <time>2020-09-11T12:04:47Z</time>
      </trkpt>
      <trkpt lat="43.91326" lon="5.19772">
        <ele>346.422</ele>
        <time>2020-09-11T12:04:52Z</time>
      </trkpt>
      <trkpt lat="43.91331" lon="5.19771">
        <ele>346.452</ele>
        <time>2020-09-11T12:04:56Z</time>
      </trkpt>
      <trkpt lat="43.91335" lon="5.19768">
        <ele>346.342</ele>
        <time>2020-09-11T12:05:01Z</time>
      </trkpt>
      <trkpt lat="43.9134" lon="5.19765">
        <ele>346.491</ele>
        <time>2020-09-11T12:05:06Z</time>
      </trkpt>
      <trkpt lat="43.91345" lon="5.19762">
        <ele>346.483</ele>
        <time>2020-09-11T12:05:10Z</time>
      </trkpt>
      <trkpt lat="43.91349" lon="5.1976">
        <ele>346.625</ele>
        <time>2020-09-11T12:05:13Z</time>
      </trkpt>
      <trkpt lat="43.91355" lon="5.19758">
        <ele>346.517</ele>
        <time>2020-09-11T12:05:18Z</time>
      </trkpt>
      <trkpt lat="43.91359" lon="5.19755">
        <ele>346.808</ele>
        <time>2020-09-11T12:05:23Z</time>
      </trkpt>
      <trkpt lat="43.91364" lon="5.19752">
        <ele>346.523</ele>
        <time>2020-09-11T12:05:26Z</time>
      </trkpt>
      <trkpt lat="43.91368" lon="5.19749">
        <ele>346.844</ele>
        <time>2020-09-11T12:05:31Z</time>
      </trkpt>
      <trkpt lat="43.91372" lon="5.19745">
        <ele>346.853</ele>
        <time>2020-09-11T12:05:35Z</time>
      </trkpt>
      <trkpt lat="43.91377" lon="5.1974">
        <ele>346.751</ele>
        <time>2020-09-11T12:05:40Z</time>
      </trkpt>
      <trkpt lat="43.91381" lon="5.19736">
        <ele>346.593</ele>
        <time>2020-09-11T12:05:44Z</time>
      </trkpt>
      <trkpt lat="43.91385" lon="5.19732">
        <ele>347.243</ele>
        <time>2020-09-11T12:05:53Z</time>
      </trkpt>
      <trkpt lat="43.9139" lon="5.19732">
        <ele>347.243</ele>
        <time>2020-09-11T12:05:57Z</time>
      </trkpt>
      <trkpt lat="43.91395" lon="5.19734">
        <ele>347.592</ele>
        <time>2020-09-11T12:06:01Z</time>
      </trkpt>
      <trkpt lat="43.914" lon="5.19736">
        <ele>347.856</ele>
        <time>2020-09-11T12:06:07Z</time>
      </trkpt>
      <trkpt lat="43.91394" lon="5.19734">
        <ele>346.459</ele>
        <time>2020-09-11T12:08:26Z</time>
      </trkpt>
      <trkpt lat="43.91389" lon="5.19729">
        <ele>346.514</ele>
        <time>2020-09-11T12:08:29Z</time>
      </trkpt>
      <trkpt lat="43.91387" lon="5.19723">
        <ele>346.608</ele>
        <time>2020-09-11T12:08:32Z</time>
      </trkpt>
      <trkpt lat="43.91385" lon="5.19716">
        <ele>346.01</ele>
        <time>2020-09-11T12:08:36Z</time>
      </trkpt>
      <trkpt lat="43.91383" lon="5.19709">
        <ele>345.821</ele>
        <time>2020-09-11T12:08:41Z</time>
      </trkpt>
      <trkpt lat="43.9138" lon="5.19703">
        <ele>346.36</ele>
        <time>2020-09-11T12:08:45Z</time>
      </trkpt>
      <trkpt lat="43.91376" lon="5.19699">
        <ele>346.238</ele>
        <time>2020-09-11T12:08:49Z</time>
      </trkpt>
      <trkpt lat="43.91371" lon="5.19696">
        <ele>346.15</ele>
        <time>2020-09-11T12:08:54Z</time>
      </trkpt>
      <trkpt lat="43.91366" lon="5.19694">
        <ele>346.47</ele>
        <time>2020-09-11T12:08:59Z</time>
      </trkpt>
      <trkpt lat="43.91361" lon="5.19691">
        <ele>346.52</ele>
        <time>2020-09-11T12:09:04Z</time>
      </trkpt>
      <trkpt lat="43.91357" lon="5.19688">
        <ele>347.119</ele>
        <time>2020-09-11T12:09:08Z</time>
      </trkpt>
      <trkpt lat="43.91351" lon="5.19683">
        <ele>347.164</ele>
        <time>2020-09-11T12:09:13Z</time>
      </trkpt>
      <trkpt lat="43.91347" lon="5.19681">
        <ele>347.706</ele>
        <time>2020-09-11T12:09:19Z</time>
      </trkpt>
      <trkpt lat="43.91342" lon="5.1968">
        <ele>347.716</ele>
        <time>2020-09-11T12:09:22Z</time>
      </trkpt>
      <trkpt lat="43.91337" lon="5.19679">
        <ele>347.508</ele>
        <time>2020-09-11T12:09:25Z</time>
      </trkpt>
      <trkpt lat="43.91332" lon="5.19678">
        <ele>347.771</ele>
        <time>2020-09-11T12:09:28Z</time>
      </trkpt>
      <trkpt lat="43.91327" lon="5.19676">
        <ele>348.342</ele>
        <time>2020-09-11T12:09:33Z</time>
      </trkpt>
      <trkpt lat="43.91322" lon="5.19674">
        <ele>348.371</ele>
        <time>2020-09-11T12:09:38Z</time>
      </trkpt>
      <trkpt lat="43.91319" lon="5.19668">
        <ele>349.199</ele>
        <time>2020-09-11T12:09:43Z</time>
      </trkpt>
      <trkpt lat="43.91315" lon="5.19665">
        <ele>349.051</ele>
        <time>2020-09-11T12:09:58Z</time>
      </trkpt>
      <trkpt lat="43.91312" lon="5.19662">
        <ele>348.761</ele>
        <time>2020-09-11T12:10:15Z</time>
      </trkpt>
      <trkpt lat="43.91306" lon="5.19659">
        <ele>348.741</ele>
        <time>2020-09-11T12:10:18Z</time>
      </trkpt>
      <trkpt lat="43.913" lon="5.19657">
        <ele>348.54</ele>
        <time>2020-09-11T12:10:21Z</time>
      </trkpt>
      <trkpt lat="43.91295" lon="5.19656">
        <ele>348.458</ele>
        <time>2020-09-11T12:10:24Z</time>
      </trkpt>
      <trkpt lat="43.91289" lon="5.19656">
        <ele>348.752</ele>
        <time>2020-09-11T12:10:28Z</time>
      </trkpt>
      <trkpt lat="43.91285" lon="5.19656">
        <ele>348.417</ele>
        <time>2020-09-11T12:10:31Z</time>
      </trkpt>
      <trkpt lat="43.9128" lon="5.19658">
        <ele>348.508</ele>
        <time>2020-09-11T12:10:34Z</time>
      </trkpt>
      <trkpt lat="43.91276" lon="5.1966">
        <ele>348.23</ele>
        <time>2020-09-11T12:10:36Z</time>
      </trkpt>
      <trkpt lat="43.9127" lon="5.19661">
        <ele>348.671</ele>
        <time>2020-09-11T12:10:40Z</time>
      </trkpt>
      <trkpt lat="43.91265" lon="5.19661">
        <ele>348.58</ele>
        <time>2020-09-11T12:10:45Z</time>
      </trkpt>
      <trkpt lat="43.9126" lon="5.19662">
        <ele>348.568</ele>
        <time>2020-09-11T12:10:49Z</time>
      </trkpt>
      <trkpt lat="43.91255" lon="5.19661">
        <ele>348.62</ele>
        <time>2020-09-11T12:10:53Z</time>
      </trkpt>
      <trkpt lat="43.9125" lon="5.19659">
        <ele>348.63</ele>
        <time>2020-09-11T12:10:57Z</time>
      </trkpt>
      <trkpt lat="43.91244" lon="5.19656">
        <ele>348.43</ele>
        <time>2020-09-11T12:11:01Z</time>
      </trkpt>
      <trkpt lat="43.91239" lon="5.19653">
        <ele>348.879</ele>
        <time>2020-09-11T12:11:06Z</time>
      </trkpt>
      <trkpt lat="43.91235" lon="5.1965">
        <ele>348.925</ele>
        <time>2020-09-11T12:11:10Z</time>
      </trkpt>
      <trkpt lat="43.9123" lon="5.19649">
        <ele>349.326</ele>
        <time>2020-09-11T12:11:14Z</time>
      </trkpt>
      <trkpt lat="43.91225" lon="5.19648">
        <ele>349.008</ele>
        <time>2020-09-11T12:11:18Z</time>
      </trkpt>
      <trkpt lat="43.9122" lon="5.19648">
        <ele>349.208</ele>
        <time>2020-09-11T12:11:23Z</time>
      </trkpt>
      <trkpt lat="43.91215" lon="5.19646">
        <ele>349.277</ele>
        <time>2020-09-11T12:11:26Z</time>
      </trkpt>
      <trkpt lat="43.9121" lon="5.19646">
        <ele>349.148</ele>
        <time>2020-09-11T12:11:32Z</time>
      </trkpt>
      <trkpt lat="43.91205" lon="5.19647">
        <ele>349.097</ele>
        <time>2020-09-11T12:11:36Z</time>
      </trkpt>
      <trkpt lat="43.912" lon="5.19646">
        <ele>349.045</ele>
        <time>2020-09-11T12:11:42Z</time>
      </trkpt>
      <trkpt lat="43.91195" lon="5.19645">
        <ele>348.857</ele>
        <time>2020-09-11T12:11:46Z</time>
      </trkpt>
      <trkpt lat="43.9119" lon="5.19643">
        <ele>348.077</ele>
        <time>2020-09-11T12:11:51Z</time>
      </trkpt>
      <trkpt lat="43.91187" lon="5.19638">
        <ele>348.167</ele>
        <time>2020-09-11T12:12:17Z</time>
      </trkpt>
      <trkpt lat="43.91182" lon="5.19637">
        <ele>348.036</ele>
        <time>2020-09-11T12:12:21Z</time>
      </trkpt>
      <trkpt lat="43.91177" lon="5.19636">
        <ele>347.954</ele>
        <time>2020-09-11T12:12:26Z</time>
      </trkpt>
      <trkpt lat="43.91181" lon="5.19631">
        <ele>348.656</ele>
        <time>2020-09-11T12:12:33Z</time>
      </trkpt>
      <trkpt lat="43.91186" lon="5.19625">
        <ele>348.611</ele>
        <time>2020-09-11T12:12:38Z</time>
      </trkpt>
      <trkpt lat="43.91191" lon="5.19622">
        <ele>349.108</ele>
        <time>2020-09-11T12:12:42Z</time>
      </trkpt>
      <trkpt lat="43.91195" lon="5.1962">
        <ele>349.68</ele>
        <time>2020-09-11T12:12:46Z</time>
      </trkpt>
      <trkpt lat="43.912" lon="5.19619">
        <ele>349.761</ele>
        <time>2020-09-11T12:12:49Z</time>
      </trkpt>
      <trkpt lat="43.91205" lon="5.19619">
        <ele>350.04</ele>
        <time>2020-09-11T12:12:54Z</time>
      </trkpt>
      <trkpt lat="43.912" lon="5.1962">
        <ele>349.528</ele>
        <time>2020-09-11T12:13:22Z</time>
      </trkpt>
      <trkpt lat="43.91195" lon="5.19624">
        <ele>349.43</ele>
        <time>2020-09-11T12:13:27Z</time>
      </trkpt>
      <trkpt lat="43.91191" lon="5.19627">
        <ele>349.17</ele>
        <time>2020-09-11T12:13:32Z</time>
      </trkpt>
      <trkpt lat="43.91187" lon="5.19631">
        <ele>348.75</ele>
        <time>2020-09-11T12:13:37Z</time>
      </trkpt>
      <trkpt lat="43.91183" lon="5.19635">
        <ele>348.189</ele>
        <time>2020-09-11T12:13:41Z</time>
      </trkpt>
      <trkpt lat="43.91181" lon="5.1964">
        <ele>347.848</ele>
        <time>2020-09-11T12:13:46Z</time>
      </trkpt>
      <trkpt lat="43.91177" lon="5.19646">
        <ele>347.361</ele>
        <time>2020-09-11T12:13:50Z</time>
      </trkpt>
      <trkpt lat="43.91175" lon="5.19652">
        <ele>347.417</ele>
        <time>2020-09-11T12:13:54Z</time>
      </trkpt>
      <trkpt lat="43.91172" lon="5.19657">
        <ele>347.008</ele>
        <time>2020-09-11T12:13:58Z</time>
      </trkpt>
      <trkpt lat="43.91167" lon="5.19661">
        <ele>346.479</ele>
        <time>2020-09-11T12:14:02Z</time>
      </trkpt>
      <trkpt lat="43.91162" lon="5.19663">
        <ele>346.55</ele>
        <time>2020-09-11T12:14:05Z</time>
      </trkpt>
      <trkpt lat="43.91157" lon="5.19664">
        <ele>346.529</ele>
        <time>2020-09-11T12:14:10Z</time>
      </trkpt>
      <trkpt lat="43.91152" lon="5.19664">
        <ele>346.177</ele>
        <time>2020-09-11T12:14:14Z</time>
      </trkpt>
      <trkpt lat="43.91147" lon="5.19665">
        <ele>345.659</ele>
        <time>2020-09-11T12:14:19Z</time>
      </trkpt>
      <trkpt lat="43.91142" lon="5.19667">
        <ele>345.439</ele>
        <time>2020-09-11T12:14:24Z</time>
      </trkpt>
      <trkpt lat="43.91137" lon="5.19669">
        <ele>345.489</ele>
        <time>2020-09-11T12:14:30Z</time>
      </trkpt>
      <trkpt lat="43.91132" lon="5.1967">
        <ele>344.828</ele>
        <time>2020-09-11T12:14:34Z</time>
      </trkpt>
      <trkpt lat="43.91127" lon="5.19671">
        <ele>344.838</ele>
        <time>2020-09-11T12:14:37Z</time>
      </trkpt>
      <trkpt lat="43.91122" lon="5.19672">
        <ele>344.27</ele>
        <time>2020-09-11T12:14:41Z</time>
      </trkpt>
      <trkpt lat="43.91117" lon="5.19674">
        <ele>344.617</ele>
        <time>2020-09-11T12:14:46Z</time>
      </trkpt>
      <trkpt lat="43.91113" lon="5.19671">
        <ele>343.508</ele>
        <time>2020-09-11T12:15:11Z</time>
      </trkpt>
      <trkpt lat="43.91108" lon="5.19672">
        <ele>343.278</ele>
        <time>2020-09-11T12:15:16Z</time>
      </trkpt>
      <trkpt lat="43.91105" lon="5.19677">
        <ele>343.369</ele>
        <time>2020-09-11T12:15:27Z</time>
      </trkpt>
      <trkpt lat="43.91101" lon="5.19679">
        <ele>342.988</ele>
        <time>2020-09-11T12:15:44Z</time>
      </trkpt>
      <trkpt lat="43.91096" lon="5.19681">
        <ele>342.836</ele>
        <time>2020-09-11T12:15:49Z</time>
      </trkpt>
      <trkpt lat="43.91091" lon="5.19683">
        <ele>342.648</ele>
        <time>2020-09-11T12:15:53Z</time>
      </trkpt>
      <trkpt lat="43.91086" lon="5.19685">
        <ele>342.438</ele>
        <time>2020-09-11T12:15:57Z</time>
      </trkpt>
      <trkpt lat="43.91082" lon="5.19688">
        <ele>342.288</ele>
        <time>2020-09-11T12:16:00Z</time>
      </trkpt>
      <trkpt lat="43.91077" lon="5.19692">
        <ele>341.967</ele>
        <time>2020-09-11T12:16:05Z</time>
      </trkpt>
      <trkpt lat="43.91073" lon="5.19694">
        <ele>341.659</ele>
        <time>2020-09-11T12:16:09Z</time>
      </trkpt>
      <trkpt lat="43.91068" lon="5.19696">
        <ele>341.503</ele>
        <time>2020-09-11T12:16:14Z</time>
      </trkpt>
      <trkpt lat="43.91063" lon="5.19697">
        <ele>341.523</ele>
        <time>2020-09-11T12:16:17Z</time>
      </trkpt>
      <trkpt lat="43.91059" lon="5.19698">
        <ele>341.108</ele>
        <time>2020-09-11T12:16:20Z</time>
      </trkpt>
      <trkpt lat="43.91054" lon="5.197">
        <ele>341.01</ele>
        <time>2020-09-11T12:16:25Z</time>
      </trkpt>
      <trkpt lat="43.9105" lon="5.19704">
        <ele>340.631</ele>
        <time>2020-09-11T12:16:29Z</time>
      </trkpt>
      <trkpt lat="43.91045" lon="5.19707">
        <ele>340.56</ele>
        <time>2020-09-11T12:16:33Z</time>
      </trkpt>
      <trkpt lat="43.91041" lon="5.19711">
        <ele>340.688</ele>
        <time>2020-09-11T12:16:39Z</time>
      </trkpt>
      <trkpt lat="43.91037" lon="5.19714">
        <ele>340.45</ele>
        <time>2020-09-11T12:16:43Z</time>
      </trkpt>
      <trkpt lat="43.91033" lon="5.19717">
        <ele>339.83</ele>
        <time>2020-09-11T12:16:46Z</time>
      </trkpt>
      <trkpt lat="43.91028" lon="5.19718">
        <ele>339.81</ele>
        <time>2020-09-11T12:16:49Z</time>
      </trkpt>
      <trkpt lat="43.91023" lon="5.19719">
        <ele>339.749</ele>
        <time>2020-09-11T12:16:54Z</time>
      </trkpt>
      <trkpt lat="43.91018" lon="5.19721">
        <ele>339.326</ele>
        <time>2020-09-11T12:16:58Z</time>
      </trkpt>
      <trkpt lat="43.91014" lon="5.19724">
        <ele>339.247</ele>
        <time>2020-09-11T12:17:02Z</time>
      </trkpt>
      <trkpt lat="43.91009" lon="5.19727">
        <ele>338.911</ele>
        <time>2020-09-11T12:17:07Z</time>
      </trkpt>
      <trkpt lat="43.91004" lon="5.19727">
        <ele>338.408</ele>
        <time>2020-09-11T12:17:11Z</time>
      </trkpt>
      <trkpt lat="43.90998" lon="5.19727">
        <ele>338.297</ele>
        <time>2020-09-11T12:17:15Z</time>
      </trkpt>
      <trkpt lat="43.90994" lon="5.19728">
        <ele>338.058</ele>
        <time>2020-09-11T12:17:20Z</time>
      </trkpt>
      <trkpt lat="43.90989" lon="5.1973">
        <ele>337.687</ele>
        <time>2020-09-11T12:18:00Z</time>
      </trkpt>
      <trkpt lat="43.90984" lon="5.19729">
        <ele>337.285</ele>
        <time>2020-09-11T12:18:06Z</time>
      </trkpt>
      <trkpt lat="43.90979" lon="5.1973">
        <ele>337.047</ele>
        <time>2020-09-11T12:18:10Z</time>
      </trkpt>
      <trkpt lat="43.90975" lon="5.19731">
        <ele>336.637</ele>
        <time>2020-09-11T12:18:14Z</time>
      </trkpt>
      <trkpt lat="43.90969" lon="5.19732">
        <ele>336.387</ele>
        <time>2020-09-11T12:18:18Z</time>
      </trkpt>
      <trkpt lat="43.90965" lon="5.19732">
        <ele>336.366</ele>
        <time>2020-09-11T12:18:23Z</time>
      </trkpt>
      <trkpt lat="43.9096" lon="5.19734">
        <ele>335.854</ele>
        <time>2020-09-11T12:18:27Z</time>
      </trkpt>
      <trkpt lat="43.90955" lon="5.19735">
        <ele>335.656</ele>
        <time>2020-09-11T12:18:31Z</time>
      </trkpt>
      <trkpt lat="43.9095" lon="5.19736">
        <ele>335.411</ele>
        <time>2020-09-11T12:18:35Z</time>
      </trkpt>
      <trkpt lat="43.90945" lon="5.19737">
        <ele>334.808</ele>
        <time>2020-09-11T12:18:40Z</time>
      </trkpt>
      <trkpt lat="43.90939" lon="5.19739">
        <ele>335.01</ele>
        <time>2020-09-11T12:18:44Z</time>
      </trkpt>
      <trkpt lat="43.90935" lon="5.1974">
        <ele>334.851</ele>
        <time>2020-09-11T12:18:48Z</time>
      </trkpt>
      <trkpt lat="43.90929" lon="5.19742">
        <ele>334.76</ele>
        <time>2020-09-11T12:18:52Z</time>
      </trkpt>
      <trkpt lat="43.90924" lon="5.19745">
        <ele>334.018</ele>
        <time>2020-09-11T12:18:57Z</time>
      </trkpt>
      <trkpt lat="43.90919" lon="5.19749">
        <ele>333.83</ele>
        <time>2020-09-11T12:19:02Z</time>
      </trkpt>
      <trkpt lat="43.90914" lon="5.19753">
        <ele>333.45</ele>
        <time>2020-09-11T12:19:06Z</time>
      </trkpt>
      <trkpt lat="43.9091" lon="5.19756">
        <ele>333.62</ele>
        <time>2020-09-11T12:19:17Z</time>
      </trkpt>
      <trkpt lat="43.90906" lon="5.19758">
        <ele>333.119</ele>
        <time>2020-09-11T12:19:23Z</time>
      </trkpt>
      <trkpt lat="43.90901" lon="5.1976">
        <ele>332.537</ele>
        <time>2020-09-11T12:19:26Z</time>
      </trkpt>
      <trkpt lat="43.90897" lon="5.19763">
        <ele>332.749</ele>
        <time>2020-09-11T12:19:30Z</time>
      </trkpt>
      <trkpt lat="43.90892" lon="5.19765">
        <ele>332.013</ele>
        <time>2020-09-11T12:19:34Z</time>
      </trkpt>
      <trkpt lat="43.90887" lon="5.19766">
        <ele>332.008</ele>
        <time>2020-09-11T12:19:39Z</time>
      </trkpt>
      <trkpt lat="43.90883" lon="5.19768">
        <ele>331.618</ele>
        <time>2020-09-11T12:19:42Z</time>
      </trkpt>
      <trkpt lat="43.90877" lon="5.1977">
        <ele>331.629</ele>
        <time>2020-09-11T12:19:46Z</time>
      </trkpt>
      <trkpt lat="43.90872" lon="5.19772">
        <ele>330.968</ele>
        <time>2020-09-11T12:19:51Z</time>
      </trkpt>
      <trkpt lat="43.90867" lon="5.19775">
        <ele>330.916</ele>
        <time>2020-09-11T12:19:56Z</time>
      </trkpt>
      <trkpt lat="43.90862" lon="5.19775">
        <ele>330.838</ele>
        <time>2020-09-11T12:20:01Z</time>
      </trkpt>
      <trkpt lat="43.90857" lon="5.19776">
        <ele>330.758</ele>
        <time>2020-09-11T12:20:06Z</time>
      </trkpt>
      <trkpt lat="43.90852" lon="5.19777">
        <ele>330.288</ele>
        <time>2020-09-11T12:20:11Z</time>
      </trkpt>
      <trkpt lat="43.90846" lon="5.19778">
        <ele>330.097</ele>
        <time>2020-09-11T12:20:15Z</time>
      </trkpt>
      <trkpt lat="43.90842" lon="5.19781">
        <ele>329.831</ele>
        <time>2020-09-11T12:20:22Z</time>
      </trkpt>
      <trkpt lat="43.90837" lon="5.19781">
        <ele>329.261</ele>
        <time>2020-09-11T12:22:27Z</time>
      </trkpt>
      <trkpt lat="43.90833" lon="5.1978">
        <ele>329.007</ele>
        <time>2020-09-11T12:23:27Z</time>
      </trkpt>
      <trkpt lat="43.90827" lon="5.19778">
        <ele>328.408</ele>
        <time>2020-09-11T12:23:35Z</time>
      </trkpt>
      <trkpt lat="43.90823" lon="5.19777">
        <ele>328.388</ele>
        <time>2020-09-11T12:23:37Z</time>
      </trkpt>
      <trkpt lat="43.90818" lon="5.19777">
        <ele>328.199</ele>
        <time>2020-09-11T12:23:42Z</time>
      </trkpt>
      <trkpt lat="43.90813" lon="5.19778">
        <ele>327.838</ele>
        <time>2020-09-11T12:23:47Z</time>
      </trkpt>
      <trkpt lat="43.90809" lon="5.19779">
        <ele>327.046</ele>
        <time>2020-09-11T12:23:54Z</time>
      </trkpt>
      <trkpt lat="43.90807" lon="5.19773">
        <ele>328.038</ele>
        <time>2020-09-11T12:24:19Z</time>
      </trkpt>
      <trkpt lat="43.90803" lon="5.19769">
        <ele>327.538</ele>
        <time>2020-09-11T12:24:23Z</time>
      </trkpt>
      <trkpt lat="43.90799" lon="5.19765">
        <ele>327.538</ele>
        <time>2020-09-11T12:24:28Z</time>
      </trkpt>
      <trkpt lat="43.90795" lon="5.1976">
        <ele>326.797</ele>
        <time>2020-09-11T12:24:34Z</time>
      </trkpt>
      <trkpt lat="43.90791" lon="5.19756">
        <ele>326.811</ele>
        <time>2020-09-11T12:24:38Z</time>
      </trkpt>
      <trkpt lat="43.90787" lon="5.19752">
        <ele>326.421</ele>
        <time>2020-09-11T12:24:43Z</time>
      </trkpt>
      <trkpt lat="43.90783" lon="5.19749">
        <ele>326.203</ele>
        <time>2020-09-11T12:24:46Z</time>
      </trkpt>
      <trkpt lat="43.90777" lon="5.19746">
        <ele>325.908</ele>
        <time>2020-09-11T12:24:50Z</time>
      </trkpt>
      <trkpt lat="43.90773" lon="5.19743">
        <ele>325.466</ele>
        <time>2020-09-11T12:24:56Z</time>
      </trkpt>
      <trkpt lat="43.90769" lon="5.19741">
        <ele>325.297</ele>
        <time>2020-09-11T12:24:59Z</time>
      </trkpt>
      <trkpt lat="43.90764" lon="5.19738">
        <ele>325.026</ele>
        <time>2020-09-11T12:25:04Z</time>
      </trkpt>
      <trkpt lat="43.90759" lon="5.19736">
        <ele>324.454</ele>
        <time>2020-09-11T12:25:10Z</time>
      </trkpt>
      <trkpt lat="43.90754" lon="5.19734">
        <ele>324.376</ele>
        <time>2020-09-11T12:25:14Z</time>
      </trkpt>
      <trkpt lat="43.9075" lon="5.19731">
        <ele>323.696</ele>
        <time>2020-09-11T12:25:17Z</time>
      </trkpt>
      <trkpt lat="43.90746" lon="5.19727">
        <ele>323.566</ele>
        <time>2020-09-11T12:25:22Z</time>
      </trkpt>
      <trkpt lat="43.90741" lon="5.19724">
        <ele>323.345</ele>
        <time>2020-09-11T12:25:27Z</time>
      </trkpt>
      <trkpt lat="43.90736" lon="5.19721">
        <ele>323.238</ele>
        <time>2020-09-11T12:25:30Z</time>
      </trkpt>
      <trkpt lat="43.9073" lon="5.19721">
        <ele>322.97</ele>
        <time>2020-09-11T12:25:35Z</time>
      </trkpt>
      <trkpt lat="43.90725" lon="5.1972">
        <ele>322.417</ele>
        <time>2020-09-11T12:25:40Z</time>
      </trkpt>
      <trkpt lat="43.9072" lon="5.19719">
        <ele>322.208</ele>
        <time>2020-09-11T12:25:43Z</time>
      </trkpt>
      <trkpt lat="43.90716" lon="5.1972">
        <ele>322.018</ele>
        <time>2020-09-11T12:25:47Z</time>
      </trkpt>
      <trkpt lat="43.90711" lon="5.19722">
        <ele>321.819</ele>
        <time>2020-09-11T12:25:51Z</time>
      </trkpt>
      <trkpt lat="43.90706" lon="5.19719">
        <ele>321.548</ele>
        <time>2020-09-11T12:26:02Z</time>
      </trkpt>
      <trkpt lat="43.90701" lon="5.19718">
        <ele>321.756</ele>
        <time>2020-09-11T12:26:05Z</time>
      </trkpt>
      <trkpt lat="43.90695" lon="5.19717">
        <ele>321.398</ele>
        <time>2020-09-11T12:26:10Z</time>
      </trkpt>
      <trkpt lat="43.90691" lon="5.1972">
        <ele>321.138</ele>
        <time>2020-09-11T12:26:21Z</time>
      </trkpt>
      <trkpt lat="43.90686" lon="5.19722">
        <ele>320.918</ele>
        <time>2020-09-11T12:26:35Z</time>
      </trkpt>
      <trkpt lat="43.90685" lon="5.19716">
        <ele>321.037</ele>
        <time>2020-09-11T12:26:44Z</time>
      </trkpt>
      <trkpt lat="43.90681" lon="5.19714">
        <ele>320.732</ele>
        <time>2020-09-11T12:27:06Z</time>
      </trkpt>
      <trkpt lat="43.90677" lon="5.19719">
        <ele>319.892</ele>
        <time>2020-09-11T12:28:00Z</time>
      </trkpt>
      <trkpt lat="43.90673" lon="5.19725">
        <ele>319.511</ele>
        <time>2020-09-11T12:28:04Z</time>
      </trkpt>
      <trkpt lat="43.90667" lon="5.19729">
        <ele>319.308</ele>
        <time>2020-09-11T12:28:07Z</time>
      </trkpt>
      <trkpt lat="43.90661" lon="5.19731">
        <ele>319.328</ele>
        <time>2020-09-11T12:28:10Z</time>
      </trkpt>
      <trkpt lat="43.90655" lon="5.19732">
        <ele>318.939</ele>
        <time>2020-09-11T12:28:14Z</time>
      </trkpt>
      <trkpt lat="43.90651" lon="5.19733">
        <ele>318.638</ele>
        <time>2020-09-11T12:28:18Z</time>
      </trkpt>
      <trkpt lat="43.90644" lon="5.19735">
        <ele>318.526</ele>
        <time>2020-09-11T12:28:23Z</time>
      </trkpt>
      <trkpt lat="43.90638" lon="5.19734">
        <ele>318.478</ele>
        <time>2020-09-11T12:28:28Z</time>
      </trkpt>
      <trkpt lat="43.90634" lon="5.19735">
        <ele>318.178</ele>
        <time>2020-09-11T12:28:32Z</time>
      </trkpt>
      <trkpt lat="43.90627" lon="5.19735">
        <ele>317.718</ele>
        <time>2020-09-11T12:28:36Z</time>
      </trkpt>
      <trkpt lat="43.90623" lon="5.19735">
        <ele>317.467</ele>
        <time>2020-09-11T12:28:41Z</time>
      </trkpt>
      <trkpt lat="43.90618" lon="5.19736">
        <ele>316.964</ele>
        <time>2020-09-11T12:28:44Z</time>
      </trkpt>
      <trkpt lat="43.90613" lon="5.19738">
        <ele>316.806</ele>
        <time>2020-09-11T12:28:48Z</time>
      </trkpt>
      <trkpt lat="43.90609" lon="5.1974">
        <ele>316.416</ele>
        <time>2020-09-11T12:28:51Z</time>
      </trkpt>
      <trkpt lat="43.90603" lon="5.19743">
        <ele>316.408</ele>
        <time>2020-09-11T12:28:56Z</time>
      </trkpt>
      <trkpt lat="43.90598" lon="5.19744">
        <ele>316.311</ele>
        <time>2020-09-11T12:29:00Z</time>
      </trkpt>
      <trkpt lat="43.90593" lon="5.19744">
        <ele>316.222</ele>
        <time>2020-09-11T12:29:06Z</time>
      </trkpt>
      <trkpt lat="43.90588" lon="5.19745">
        <ele>315.841</ele>
        <time>2020-09-11T12:29:10Z</time>
      </trkpt>
      <trkpt lat="43.90583" lon="5.19745">
        <ele>315.479</ele>
        <time>2020-09-11T12:29:14Z</time>
      </trkpt>
      <trkpt lat="43.90578" lon="5.19743">
        <ele>315.111</ele>
        <time>2020-09-11T12:29:17Z</time>
      </trkpt>
      <trkpt lat="43.90573" lon="5.19741">
        <ele>314.881</ele>
        <time>2020-09-11T12:29:21Z</time>
      </trkpt>
      <trkpt lat="43.90568" lon="5.19738">
        <ele>313.991</ele>
        <time>2020-09-11T12:29:26Z</time>
      </trkpt>
      <trkpt lat="43.90564" lon="5.19735">
        <ele>313.82</ele>
        <time>2020-09-11T12:29:29Z</time>
      </trkpt>
      <trkpt lat="43.90558" lon="5.19729">
        <ele>313.668</ele>
        <time>2020-09-11T12:29:35Z</time>
      </trkpt>
      <trkpt lat="43.90554" lon="5.19728">
        <ele>313.242</ele>
        <time>2020-09-11T12:29:39Z</time>
      </trkpt>
      <trkpt lat="43.90549" lon="5.19726">
        <ele>312.926</ele>
        <time>2020-09-11T12:29:43Z</time>
      </trkpt>
      <trkpt lat="43.90543" lon="5.19725">
        <ele>312.608</ele>
        <time>2020-09-11T12:29:47Z</time>
      </trkpt>
      <trkpt lat="43.90539" lon="5.19722">
        <ele>312.511</ele>
        <time>2020-09-11T12:29:51Z</time>
      </trkpt>
      <trkpt lat="43.90534" lon="5.19719">
        <ele>312.442</ele>
        <time>2020-09-11T12:29:54Z</time>
      </trkpt>
      <trkpt lat="43.9053" lon="5.19714">
        <ele>311.931</ele>
        <time>2020-09-11T12:29:59Z</time>
      </trkpt>
      <trkpt lat="43.90526" lon="5.19711">
        <ele>311.289</ele>
        <time>2020-09-11T12:30:02Z</time>
      </trkpt>
      <trkpt lat="43.90522" lon="5.19708">
        <ele>311.621</ele>
        <time>2020-09-11T12:30:06Z</time>
      </trkpt>
      <trkpt lat="43.90517" lon="5.19707">
        <ele>311.321</ele>
        <time>2020-09-11T12:30:10Z</time>
      </trkpt>
      <trkpt lat="43.90511" lon="5.19705">
        <ele>310.891</ele>
        <time>2020-09-11T12:30:15Z</time>
      </trkpt>
      <trkpt lat="43.90506" lon="5.19704">
        <ele>310.73</ele>
        <time>2020-09-11T12:30:20Z</time>
      </trkpt>
      <trkpt lat="43.905" lon="5.19702">
        <ele>310.569</ele>
        <time>2020-09-11T12:30:24Z</time>
      </trkpt>
      <trkpt lat="43.90496" lon="5.19701">
        <ele>310.004</ele>
        <time>2020-09-11T12:30:27Z</time>
      </trkpt>
      <trkpt lat="43.90491" lon="5.19698">
        <ele>309.524</ele>
        <time>2020-09-11T12:30:32Z</time>
      </trkpt>
      <trkpt lat="43.90487" lon="5.19696">
        <ele>309.208</ele>
        <time>2020-09-11T12:30:35Z</time>
      </trkpt>
      <trkpt lat="43.90481" lon="5.19694">
        <ele>309.091</ele>
        <time>2020-09-11T12:30:41Z</time>
      </trkpt>
      <trkpt lat="43.90477" lon="5.19699">
        <ele>309.432</ele>
        <time>2020-09-11T12:30:58Z</time>
      </trkpt>
      <trkpt lat="43.90473" lon="5.19699">
        <ele>309.211</ele>
        <time>2020-09-11T12:31:03Z</time>
      </trkpt>
      <trkpt lat="43.90468" lon="5.19698">
        <ele>309.349</ele>
        <time>2020-09-11T12:31:04Z</time>
      </trkpt>
      <trkpt lat="43.90462" lon="5.19695">
        <ele>309.181</ele>
        <time>2020-09-11T12:31:07Z</time>
      </trkpt>
      <trkpt lat="43.90457" lon="5.19696">
        <ele>309.071</ele>
        <time>2020-09-11T12:31:10Z</time>
      </trkpt>
      <trkpt lat="43.90451" lon="5.19696">
        <ele>308.721</ele>
        <time>2020-09-11T12:31:14Z</time>
      </trkpt>
      <trkpt lat="43.90447" lon="5.19698">
        <ele>308.58</ele>
        <time>2020-09-11T12:31:16Z</time>
      </trkpt>
      <trkpt lat="43.90442" lon="5.19698">
        <ele>308.234</ele>
        <time>2020-09-11T12:31:20Z</time>
      </trkpt>
      <trkpt lat="43.90436" lon="5.19695">
        <ele>307.955</ele>
        <time>2020-09-11T12:31:23Z</time>
      </trkpt>
      <trkpt lat="43.90431" lon="5.19694">
        <ele>307.61</ele>
        <time>2020-09-11T12:31:27Z</time>
      </trkpt>
      <trkpt lat="43.90427" lon="5.19692">
        <ele>307.508</ele>
        <time>2020-09-11T12:31:31Z</time>
      </trkpt>
      <trkpt lat="43.90421" lon="5.19691">
        <ele>306.918</ele>
        <time>2020-09-11T12:31:34Z</time>
      </trkpt>
      <trkpt lat="43.90417" lon="5.19688">
        <ele>306.969</ele>
        <time>2020-09-11T12:31:38Z</time>
      </trkpt>
      <trkpt lat="43.90413" lon="5.19686">
        <ele>307.018</ele>
        <time>2020-09-11T12:31:42Z</time>
      </trkpt>
      <trkpt lat="43.90408" lon="5.19684">
        <ele>306.676</ele>
        <time>2020-09-11T12:31:46Z</time>
      </trkpt>
      <trkpt lat="43.90403" lon="5.19681">
        <ele>306.428</ele>
        <time>2020-09-11T12:31:51Z</time>
      </trkpt>
      <trkpt lat="43.90396" lon="5.19679">
        <ele>306.498</ele>
        <time>2020-09-11T12:31:56Z</time>
      </trkpt>
      <trkpt lat="43.90391" lon="5.19677">
        <ele>306.378</ele>
        <time>2020-09-11T12:32:00Z</time>
      </trkpt>
      <trkpt lat="43.90386" lon="5.19674">
        <ele>305.787</ele>
        <time>2020-09-11T12:32:05Z</time>
      </trkpt>
      <trkpt lat="43.9038" lon="5.19671">
        <ele>305.683</ele>
        <time>2020-09-11T12:32:09Z</time>
      </trkpt>
      <trkpt lat="43.90375" lon="5.19667">
        <ele>305.425</ele>
        <time>2020-09-11T12:32:15Z</time>
      </trkpt>
      <trkpt lat="43.9037" lon="5.19663">
        <ele>304.817</ele>
        <time>2020-09-11T12:32:22Z</time>
      </trkpt>
      <trkpt lat="43.90365" lon="5.1966">
        <ele>304.608</ele>
        <time>2020-09-11T12:32:26Z</time>
      </trkpt>
      <trkpt lat="43.9036" lon="5.19658">
        <ele>304.653</ele>
        <time>2020-09-11T12:32:30Z</time>
      </trkpt>
      <trkpt lat="43.90355" lon="5.19657">
        <ele>304.384</ele>
        <time>2020-09-11T12:32:34Z</time>
      </trkpt>
      <trkpt lat="43.90351" lon="5.19653">
        <ele>304.173</ele>
        <time>2020-09-11T12:32:39Z</time>
      </trkpt>
      <trkpt lat="43.90348" lon="5.19649">
        <ele>303.411</ele>
        <time>2020-09-11T12:32:43Z</time>
      </trkpt>
      <trkpt lat="43.90344" lon="5.19645">
        <ele>303.333</ele>
        <time>2020-09-11T12:32:47Z</time>
      </trkpt>
      <trkpt lat="43.90339" lon="5.1964">
        <ele>302.743</ele>
        <time>2020-09-11T12:32:51Z</time>
      </trkpt>
      <trkpt lat="43.90335" lon="5.19636">
        <ele>302.673</ele>
        <time>2020-09-11T12:32:56Z</time>
      </trkpt>
      <trkpt lat="43.90331" lon="5.19634">
        <ele>302.042</ele>
        <time>2020-09-11T12:32:59Z</time>
      </trkpt>
      <trkpt lat="43.90325" lon="5.19633">
        <ele>302.025</ele>
        <time>2020-09-11T12:33:03Z</time>
      </trkpt>
      <trkpt lat="43.90319" lon="5.19631">
        <ele>302.026</ele>
        <time>2020-09-11T12:33:07Z</time>
      </trkpt>
      <trkpt lat="43.90315" lon="5.19628">
        <ele>301.708</ele>
        <time>2020-09-11T12:33:12Z</time>
      </trkpt>
      <trkpt lat="43.9031" lon="5.19626">
        <ele>301.208</ele>
        <time>2020-09-11T12:33:16Z</time>
      </trkpt>
      <trkpt lat="43.90305" lon="5.19624">
        <ele>301.367</ele>
        <time>2020-09-11T12:33:20Z</time>
      </trkpt>
      <trkpt lat="43.903" lon="5.19623">
        <ele>301.228</ele>
        <time>2020-09-11T12:33:22Z</time>
      </trkpt>
      <trkpt lat="43.90296" lon="5.19621">
        <ele>300.967</ele>
        <time>2020-09-11T12:33:28Z</time>
      </trkpt>
      <trkpt lat="43.90291" lon="5.19619">
        <ele>300.655</ele>
        <time>2020-09-11T12:33:32Z</time>
      </trkpt>
      <trkpt lat="43.90287" lon="5.19616">
        <ele>300.277</ele>
        <time>2020-09-11T12:33:35Z</time>
      </trkpt>
      <trkpt lat="43.90283" lon="5.19612">
        <ele>300.197</ele>
        <time>2020-09-11T12:33:39Z</time>
      </trkpt>
      <trkpt lat="43.90279" lon="5.19608">
        <ele>299.987</ele>
        <time>2020-09-11T12:33:43Z</time>
      </trkpt>
      <trkpt lat="43.90276" lon="5.19605">
        <ele>299.726</ele>
        <time>2020-09-11T12:33:46Z</time>
      </trkpt>
      <trkpt lat="43.90272" lon="5.196">
        <ele>298.512</ele>
        <time>2020-09-11T12:33:52Z</time>
      </trkpt>
      <trkpt lat="43.90269" lon="5.19595">
        <ele>298.232</ele>
        <time>2020-09-11T12:33:55Z</time>
      </trkpt>
      <trkpt lat="43.90265" lon="5.19591">
        <ele>297.705</ele>
        <time>2020-09-11T12:34:00Z</time>
      </trkpt>
      <trkpt lat="43.90262" lon="5.19586">
        <ele>297.208</ele>
        <time>2020-09-11T12:34:03Z</time>
      </trkpt>
      <trkpt lat="43.90258" lon="5.1958">
        <ele>296.826</ele>
        <time>2020-09-11T12:34:08Z</time>
      </trkpt>
      <trkpt lat="43.90254" lon="5.19571">
        <ele>295.417</ele>
        <time>2020-09-11T12:34:15Z</time>
      </trkpt>
      <trkpt lat="43.90252" lon="5.19565">
        <ele>294.436</ele>
        <time>2020-09-11T12:34:21Z</time>
      </trkpt>
      <trkpt lat="43.90249" lon="5.19559">
        <ele>293.544</ele>
        <time>2020-09-11T12:34:24Z</time>
      </trkpt>
      <trkpt lat="43.90247" lon="5.19551">
        <ele>293.046</ele>
        <time>2020-09-11T12:34:28Z</time>
      </trkpt>
      <trkpt lat="43.90244" lon="5.19544">
        <ele>292.226</ele>
        <time>2020-09-11T12:34:34Z</time>
      </trkpt>
      <trkpt lat="43.90241" lon="5.19539">
        <ele>291.396</ele>
        <time>2020-09-11T12:34:38Z</time>
      </trkpt>
      <trkpt lat="43.90238" lon="5.19534">
        <ele>290.985</ele>
        <time>2020-09-11T12:34:43Z</time>
      </trkpt>
      <trkpt lat="43.90235" lon="5.19529">
        <ele>290.354</ele>
        <time>2020-09-11T12:34:47Z</time>
      </trkpt>
      <trkpt lat="43.90232" lon="5.19524">
        <ele>289.656</ele>
        <time>2020-09-11T12:34:53Z</time>
      </trkpt>
      <trkpt lat="43.9023" lon="5.19517">
        <ele>288.711</ele>
        <time>2020-09-11T12:34:57Z</time>
      </trkpt>
      <trkpt lat="43.9023" lon="5.1951">
        <ele>288.308</ele>
        <time>2020-09-11T12:35:01Z</time>
      </trkpt>
      <trkpt lat="43.9023" lon="5.19504">
        <ele>287.88</ele>
        <time>2020-09-11T12:35:05Z</time>
      </trkpt>
      <trkpt lat="43.90234" lon="5.19502">
        <ele>288.031</ele>
        <time>2020-09-11T12:35:11Z</time>
      </trkpt>
      <trkpt lat="43.90239" lon="5.19502">
        <ele>288.67</ele>
        <time>2020-09-11T12:35:30Z</time>
      </trkpt>
      <trkpt lat="43.90236" lon="5.19497">
        <ele>287.998</ele>
        <time>2020-09-11T12:35:44Z</time>
      </trkpt>
      <trkpt lat="43.90232" lon="5.19494">
        <ele>287.74</ele>
        <time>2020-09-11T12:35:47Z</time>
      </trkpt>
      <trkpt lat="43.90227" lon="5.19492">
        <ele>287.54</ele>
        <time>2020-09-11T12:35:52Z</time>
      </trkpt>
      <trkpt lat="43.90222" lon="5.1949">
        <ele>287.47</ele>
        <time>2020-09-11T12:35:54Z</time>
      </trkpt>
      <trkpt lat="43.90218" lon="5.19488">
        <ele>286.979</ele>
        <time>2020-09-11T12:35:57Z</time>
      </trkpt>
      <trkpt lat="43.90214" lon="5.19485">
        <ele>286.543</ele>
        <time>2020-09-11T12:36:00Z</time>
      </trkpt>
      <trkpt lat="43.90209" lon="5.19481">
        <ele>285.864</ele>
        <time>2020-09-11T12:36:05Z</time>
      </trkpt>
      <trkpt lat="43.90206" lon="5.19477">
        <ele>285.51</ele>
        <time>2020-09-11T12:36:07Z</time>
      </trkpt>
      <trkpt lat="43.90202" lon="5.19474">
        <ele>285.308</ele>
        <time>2020-09-11T12:36:11Z</time>
      </trkpt>
      <trkpt lat="43.90198" lon="5.1947">
        <ele>284.769</ele>
        <time>2020-09-11T12:36:15Z</time>
      </trkpt>
      <trkpt lat="43.90194" lon="5.19468">
        <ele>284.42</ele>
        <time>2020-09-11T12:36:19Z</time>
      </trkpt>
      <trkpt lat="43.90189" lon="5.19465">
        <ele>283.699</ele>
        <time>2020-09-11T12:36:25Z</time>
      </trkpt>
      <trkpt lat="43.90184" lon="5.19462">
        <ele>283.267</ele>
        <time>2020-09-11T12:36:29Z</time>
      </trkpt>
      <trkpt lat="43.90178" lon="5.19458">
        <ele>282.999</ele>
        <time>2020-09-11T12:36:33Z</time>
      </trkpt>
      <trkpt lat="43.90175" lon="5.19454">
        <ele>282.579</ele>
        <time>2020-09-11T12:36:37Z</time>
      </trkpt>
      <trkpt lat="43.90171" lon="5.19449">
        <ele>281.939</ele>
        <time>2020-09-11T12:36:41Z</time>
      </trkpt>
      <trkpt lat="43.90167" lon="5.19445">
        <ele>281.658</ele>
        <time>2020-09-11T12:36:45Z</time>
      </trkpt>
      <trkpt lat="43.90164" lon="5.19441">
        <ele>281.118</ele>
        <time>2020-09-11T12:36:51Z</time>
      </trkpt>
      <trkpt lat="43.9016" lon="5.19436">
        <ele>280.598</ele>
        <time>2020-09-11T12:36:55Z</time>
      </trkpt>
      <trkpt lat="43.90156" lon="5.19433">
        <ele>279.917</ele>
        <time>2020-09-11T12:37:00Z</time>
      </trkpt>
      <trkpt lat="43.90152" lon="5.19428">
        <ele>279.308</ele>
        <time>2020-09-11T12:37:06Z</time>
      </trkpt>
      <trkpt lat="43.90151" lon="5.19421">
        <ele>279.376</ele>
        <time>2020-09-11T12:37:09Z</time>
      </trkpt>
      <trkpt lat="43.90152" lon="5.19412">
        <ele>279.347</ele>
        <time>2020-09-11T12:37:14Z</time>
      </trkpt>
      <trkpt lat="43.90153" lon="5.19406">
        <ele>279.176</ele>
        <time>2020-09-11T12:37:20Z</time>
      </trkpt>
      <trkpt lat="43.90154" lon="5.19399">
        <ele>278.544</ele>
        <time>2020-09-11T12:37:24Z</time>
      </trkpt>
      <trkpt lat="43.90154" lon="5.19391">
        <ele>278.556</ele>
        <time>2020-09-11T12:37:27Z</time>
      </trkpt>
      <trkpt lat="43.90153" lon="5.19384">
        <ele>277.866</ele>
        <time>2020-09-11T12:37:33Z</time>
      </trkpt>
      <trkpt lat="43.90152" lon="5.19377">
        <ele>277.476</ele>
        <time>2020-09-11T12:37:37Z</time>
      </trkpt>
      <trkpt lat="43.9015" lon="5.19371">
        <ele>277.395</ele>
        <time>2020-09-11T12:37:41Z</time>
      </trkpt>
      <trkpt lat="43.90147" lon="5.19366">
        <ele>276.879</ele>
        <time>2020-09-11T12:37:46Z</time>
      </trkpt>
      <trkpt lat="43.90144" lon="5.19361">
        <ele>276.505</ele>
        <time>2020-09-11T12:37:49Z</time>
      </trkpt>
      <trkpt lat="43.9014" lon="5.19363">
        <ele>275.525</ele>
        <time>2020-09-11T12:37:54Z</time>
      </trkpt>
      <trkpt lat="43.90135" lon="5.19361">
        <ele>275.408</ele>
        <time>2020-09-11T12:37:59Z</time>
      </trkpt>
      <trkpt lat="43.90131" lon="5.19357">
        <ele>275.042</ele>
        <time>2020-09-11T12:38:03Z</time>
      </trkpt>
      <trkpt lat="43.90128" lon="5.19351">
        <ele>274.713</ele>
        <time>2020-09-11T12:38:06Z</time>
      </trkpt>
      <trkpt lat="43.90127" lon="5.19345">
        <ele>274.762</ele>
        <time>2020-09-11T12:38:08Z</time>
      </trkpt>
      <trkpt lat="43.90126" lon="5.19338">
        <ele>274.75</ele>
        <time>2020-09-11T12:38:11Z</time>
      </trkpt>
      <trkpt lat="43.90125" lon="5.19331">
        <ele>274.752</ele>
        <time>2020-09-11T12:38:14Z</time>
      </trkpt>
      <trkpt lat="43.90125" lon="5.19325">
        <ele>274.652</ele>
        <time>2020-09-11T12:38:17Z</time>
      </trkpt>
      <trkpt lat="43.90126" lon="5.19317">
        <ele>273.942</ele>
        <time>2020-09-11T12:38:20Z</time>
      </trkpt>
      <trkpt lat="43.90128" lon="5.19311">
        <ele>273.111</ele>
        <time>2020-09-11T12:38:23Z</time>
      </trkpt>
      <trkpt lat="43.90132" lon="5.19304">
        <ele>273.085</ele>
        <time>2020-09-11T12:38:27Z</time>
      </trkpt>
      <trkpt lat="43.90134" lon="5.19298">
        <ele>272.589</ele>
        <time>2020-09-11T12:38:30Z</time>
      </trkpt>
      <trkpt lat="43.90137" lon="5.19291">
        <ele>272.617</ele>
        <time>2020-09-11T12:38:34Z</time>
      </trkpt>
      <trkpt lat="43.90139" lon="5.19286">
        <ele>272.108</ele>
        <time>2020-09-11T12:38:37Z</time>
      </trkpt>
      <trkpt lat="43.90141" lon="5.19279">
        <ele>271.863</ele>
        <time>2020-09-11T12:38:41Z</time>
      </trkpt>
      <trkpt lat="43.90143" lon="5.19272">
        <ele>271.444</ele>
        <time>2020-09-11T12:38:45Z</time>
      </trkpt>
      <trkpt lat="43.90145" lon="5.19267">
        <ele>271.123</ele>
        <time>2020-09-11T12:38:48Z</time>
      </trkpt>
      <trkpt lat="43.90147" lon="5.1926">
        <ele>270.821</ele>
        <time>2020-09-11T12:38:53Z</time>
      </trkpt>
      <trkpt lat="43.90149" lon="5.19253">
        <ele>270.793</ele>
        <time>2020-09-11T12:38:56Z</time>
      </trkpt>
      <trkpt lat="43.90151" lon="5.19247">
        <ele>270.173</ele>
        <time>2020-09-11T12:39:00Z</time>
      </trkpt>
      <trkpt lat="43.90151" lon="5.19241">
        <ele>269.793</ele>
        <time>2020-09-11T12:39:04Z</time>
      </trkpt>
      <trkpt lat="43.90152" lon="5.19232">
        <ele>269.342</ele>
        <time>2020-09-11T12:39:09Z</time>
      </trkpt>
      <trkpt lat="43.90152" lon="5.19226">
        <ele>268.822</ele>
        <time>2020-09-11T12:39:13Z</time>
      </trkpt>
      <trkpt lat="43.90151" lon="5.19218">
        <ele>268.362</ele>
        <time>2020-09-11T12:39:17Z</time>
      </trkpt>
      <trkpt lat="43.90152" lon="5.19211">
        <ele>267.908</ele>
        <time>2020-09-11T12:39:21Z</time>
      </trkpt>
      <trkpt lat="43.90154" lon="5.19204">
        <ele>267.608</ele>
        <time>2020-09-11T12:39:25Z</time>
      </trkpt>
      <trkpt lat="43.90155" lon="5.19197">
        <ele>267.667</ele>
        <time>2020-09-11T12:39:28Z</time>
      </trkpt>
      <trkpt lat="43.90157" lon="5.19189">
        <ele>267.288</ele>
        <time>2020-09-11T12:39:34Z</time>
      </trkpt>
      <trkpt lat="43.90159" lon="5.19183">
        <ele>266.627</ele>
        <time>2020-09-11T12:39:38Z</time>
      </trkpt>
      <trkpt lat="43.90161" lon="5.19176">
        <ele>266.475</ele>
        <time>2020-09-11T12:39:41Z</time>
      </trkpt>
      <trkpt lat="43.90164" lon="5.1917">
        <ele>266.047</ele>
        <time>2020-09-11T12:39:46Z</time>
      </trkpt>
      <trkpt lat="43.90167" lon="5.19163">
        <ele>265.637</ele>
        <time>2020-09-11T12:39:50Z</time>
      </trkpt>
      <trkpt lat="43.90172" lon="5.19158">
        <ele>265.287</ele>
        <time>2020-09-11T12:39:55Z</time>
      </trkpt>
      <trkpt lat="43.90177" lon="5.19157">
        <ele>265.946</ele>
        <time>2020-09-11T12:39:59Z</time>
      </trkpt>
      <trkpt lat="43.90182" lon="5.19158">
        <ele>266.665</ele>
        <time>2020-09-11T12:40:03Z</time>
      </trkpt>
      <trkpt lat="43.90188" lon="5.19161">
        <ele>266.568</ele>
        <time>2020-09-11T12:40:09Z</time>
      </trkpt>
      <trkpt lat="43.90193" lon="5.19164">
        <ele>266.914</ele>
        <time>2020-09-11T12:40:13Z</time>
      </trkpt>
      <trkpt lat="43.90197" lon="5.19166">
        <ele>267.208</ele>
        <time>2020-09-11T12:40:16Z</time>
      </trkpt>
      <trkpt lat="43.90202" lon="5.19167">
        <ele>267.621</ele>
        <time>2020-09-11T12:40:20Z</time>
      </trkpt>
      <trkpt lat="43.90207" lon="5.19166">
        <ele>267.422</ele>
        <time>2020-09-11T12:40:23Z</time>
      </trkpt>
      <trkpt lat="43.90211" lon="5.19164">
        <ele>267.951</ele>
        <time>2020-09-11T12:40:27Z</time>
      </trkpt>
      <trkpt lat="43.90216" lon="5.19161">
        <ele>267.699</ele>
        <time>2020-09-11T12:40:31Z</time>
      </trkpt>
      <trkpt lat="43.90221" lon="5.19159">
        <ele>267.551</ele>
        <time>2020-09-11T12:40:34Z</time>
      </trkpt>
      <trkpt lat="43.90226" lon="5.19156">
        <ele>267.331</ele>
        <time>2020-09-11T12:40:39Z</time>
      </trkpt>
      <trkpt lat="43.9023" lon="5.19154">
        <ele>266.991</ele>
        <time>2020-09-11T12:40:43Z</time>
      </trkpt>
      <trkpt lat="43.90236" lon="5.19154">
        <ele>266.56</ele>
        <time>2020-09-11T12:40:48Z</time>
      </trkpt>
      <trkpt lat="43.90242" lon="5.19154">
        <ele>266.818</ele>
        <time>2020-09-11T12:40:53Z</time>
      </trkpt>
      <trkpt lat="43.90246" lon="5.19155">
        <ele>266.398</ele>
        <time>2020-09-11T12:40:58Z</time>
      </trkpt>
      <trkpt lat="43.90251" lon="5.19154">
        <ele>266.217</ele>
        <time>2020-09-11T12:41:01Z</time>
      </trkpt>
      <trkpt lat="43.90255" lon="5.19153">
        <ele>266.108</ele>
        <time>2020-09-11T12:41:04Z</time>
      </trkpt>
      <trkpt lat="43.90259" lon="5.19149">
        <ele>266.386</ele>
        <time>2020-09-11T12:41:08Z</time>
      </trkpt>
      <trkpt lat="43.90262" lon="5.19143">
        <ele>266.017</ele>
        <time>2020-09-11T12:41:13Z</time>
      </trkpt>
      <trkpt lat="43.90264" lon="5.19137">
        <ele>265.826</ele>
        <time>2020-09-11T12:41:18Z</time>
      </trkpt>
      <trkpt lat="43.90264" lon="5.1913">
        <ele>266.474</ele>
        <time>2020-09-11T12:41:23Z</time>
      </trkpt>
      <trkpt lat="43.90264" lon="5.19122">
        <ele>266.756</ele>
        <time>2020-09-11T12:41:27Z</time>
      </trkpt>
      <trkpt lat="43.90264" lon="5.19115">
        <ele>267.016</ele>
        <time>2020-09-11T12:41:33Z</time>
      </trkpt>
      <trkpt lat="43.90265" lon="5.19108">
        <ele>267.476</ele>
        <time>2020-09-11T12:41:38Z</time>
      </trkpt>
      <trkpt lat="43.90265" lon="5.191">
        <ele>267.385</ele>
        <time>2020-09-11T12:41:44Z</time>
      </trkpt>
      <trkpt lat="43.90266" lon="5.19094">
        <ele>267.555</ele>
        <time>2020-09-11T12:41:47Z</time>
      </trkpt>
      <trkpt lat="43.90268" lon="5.19085">
        <ele>267.307</ele>
        <time>2020-09-11T12:41:51Z</time>
      </trkpt>
      <trkpt lat="43.9027" lon="5.19079">
        <ele>267.617</ele>
        <time>2020-09-11T12:41:55Z</time>
      </trkpt>
      <trkpt lat="43.90274" lon="5.19073">
        <ele>267.708</ele>
        <time>2020-09-11T12:41:59Z</time>
      </trkpt>
      <trkpt lat="43.90277" lon="5.19067">
        <ele>267.96</ele>
        <time>2020-09-11T12:42:03Z</time>
      </trkpt>
      <trkpt lat="43.90279" lon="5.19061">
        <ele>267.931</ele>
        <time>2020-09-11T12:42:06Z</time>
      </trkpt>
      <trkpt lat="43.90282" lon="5.19056">
        <ele>267.66</ele>
        <time>2020-09-11T12:42:10Z</time>
      </trkpt>
      <trkpt lat="43.90286" lon="5.19052">
        <ele>267.648</ele>
        <time>2020-09-11T12:42:14Z</time>
      </trkpt>
      <trkpt lat="43.90289" lon="5.19047">
        <ele>267.87</ele>
        <time>2020-09-11T12:42:18Z</time>
      </trkpt>
      <trkpt lat="43.90293" lon="5.19041">
        <ele>267.48</ele>
        <time>2020-09-11T12:42:22Z</time>
      </trkpt>
      <trkpt lat="43.90297" lon="5.19035">
        <ele>267.28</ele>
        <time>2020-09-11T12:42:26Z</time>
      </trkpt>
      <trkpt lat="43.90301" lon="5.19029">
        <ele>267.089</ele>
        <time>2020-09-11T12:42:31Z</time>
      </trkpt>
      <trkpt lat="43.90304" lon="5.19023">
        <ele>266.972</ele>
        <time>2020-09-11T12:42:35Z</time>
      </trkpt>
      <trkpt lat="43.90307" lon="5.19016">
        <ele>267.013</ele>
        <time>2020-09-11T12:42:38Z</time>
      </trkpt>
      <trkpt lat="43.90309" lon="5.19009">
        <ele>267.014</ele>
        <time>2020-09-11T12:42:43Z</time>
      </trkpt>
      <trkpt lat="43.90312" lon="5.19004">
        <ele>267.008</ele>
        <time>2020-09-11T12:42:46Z</time>
      </trkpt>
      <trkpt lat="43.90316" lon="5.19">
        <ele>267.122</ele>
        <time>2020-09-11T12:42:50Z</time>
      </trkpt>
      <trkpt lat="43.90321" lon="5.19001">
        <ele>268.343</ele>
        <time>2020-09-11T12:42:56Z</time>
      </trkpt>
      <trkpt lat="43.90324" lon="5.19005">
        <ele>268.572</ele>
        <time>2020-09-11T12:42:59Z</time>
      </trkpt>
      <trkpt lat="43.90328" lon="5.19009">
        <ele>268.52</ele>
        <time>2020-09-11T12:43:02Z</time>
      </trkpt>
      <trkpt lat="43.90332" lon="5.19013">
        <ele>268.662</ele>
        <time>2020-09-11T12:43:05Z</time>
      </trkpt>
      <trkpt lat="43.90336" lon="5.19018">
        <ele>269.482</ele>
        <time>2020-09-11T12:43:10Z</time>
      </trkpt>
      <trkpt lat="43.9034" lon="5.19024">
        <ele>269.812</ele>
        <time>2020-09-11T12:43:14Z</time>
      </trkpt>
      <trkpt lat="43.90344" lon="5.1902">
        <ele>269.781</ele>
        <time>2020-09-11T12:43:28Z</time>
      </trkpt>
      <trkpt lat="43.90348" lon="5.19015">
        <ele>269.952</ele>
        <time>2020-09-11T12:43:32Z</time>
      </trkpt>
      <trkpt lat="43.90352" lon="5.19009">
        <ele>269.853</ele>
        <time>2020-09-11T12:43:36Z</time>
      </trkpt>
      <trkpt lat="43.90355" lon="5.19003">
        <ele>270.008</ele>
        <time>2020-09-11T12:43:41Z</time>
      </trkpt>
      <trkpt lat="43.90358" lon="5.18998">
        <ele>269.808</ele>
        <time>2020-09-11T12:43:45Z</time>
      </trkpt>
      <trkpt lat="43.90361" lon="5.1899">
        <ele>270.02</ele>
        <time>2020-09-11T12:43:49Z</time>
      </trkpt>
      <trkpt lat="43.90362" lon="5.18983">
        <ele>270.071</ele>
        <time>2020-09-11T12:43:55Z</time>
      </trkpt>
      <trkpt lat="43.90361" lon="5.18976">
        <ele>269.84</ele>
        <time>2020-09-11T12:43:59Z</time>
      </trkpt>
      <trkpt lat="43.90362" lon="5.18969">
        <ele>269.538</ele>
        <time>2020-09-11T12:44:02Z</time>
      </trkpt>
      <trkpt lat="43.90363" lon="5.18963">
        <ele>269.67</ele>
        <time>2020-09-11T12:44:07Z</time>
      </trkpt>
      <trkpt lat="43.90364" lon="5.18956">
        <ele>270.35</ele>
        <time>2020-09-11T12:44:10Z</time>
      </trkpt>
      <trkpt lat="43.90365" lon="5.18949">
        <ele>269.56</ele>
        <time>2020-09-11T12:44:14Z</time>
      </trkpt>
      <trkpt lat="43.90365" lon="5.18943">
        <ele>269.779</ele>
        <time>2020-09-11T12:44:17Z</time>
      </trkpt>
      <trkpt lat="43.90365" lon="5.18936">
        <ele>269.532</ele>
        <time>2020-09-11T12:44:21Z</time>
      </trkpt>
      <trkpt lat="43.90366" lon="5.18929">
        <ele>269.692</ele>
        <time>2020-09-11T12:44:24Z</time>
      </trkpt>
      <trkpt lat="43.90367" lon="5.18921">
        <ele>269.611</ele>
        <time>2020-09-11T12:44:28Z</time>
      </trkpt>
      <trkpt lat="43.90368" lon="5.18914">
        <ele>269.508</ele>
        <time>2020-09-11T12:44:33Z</time>
      </trkpt>
      <trkpt lat="43.9037" lon="5.18908">
        <ele>269.558</ele>
        <time>2020-09-11T12:44:36Z</time>
      </trkpt>
      <trkpt lat="43.90372" lon="5.18902">
        <ele>269.639</ele>
        <time>2020-09-11T12:44:39Z</time>
      </trkpt>
      <trkpt lat="43.90373" lon="5.18896">
        <ele>269.768</ele>
        <time>2020-09-11T12:44:42Z</time>
      </trkpt>
      <trkpt lat="43.90375" lon="5.18888">
        <ele>269.876</ele>
        <time>2020-09-11T12:44:47Z</time>
      </trkpt>
      <trkpt lat="43.90377" lon="5.18882">
        <ele>269.968</ele>
        <time>2020-09-11T12:44:51Z</time>
      </trkpt>
      <trkpt lat="43.90379" lon="5.18876">
        <ele>270.128</ele>
        <time>2020-09-11T12:44:55Z</time>
      </trkpt>
      <trkpt lat="43.90381" lon="5.18869">
        <ele>270.038</ele>
        <time>2020-09-11T12:44:59Z</time>
      </trkpt>
      <trkpt lat="43.90383" lon="5.18863">
        <ele>270.597</ele>
        <time>2020-09-11T12:45:02Z</time>
      </trkpt>
      <trkpt lat="43.90385" lon="5.18857">
        <ele>270.398</ele>
        <time>2020-09-11T12:45:06Z</time>
      </trkpt>
      <trkpt lat="43.90388" lon="5.18851">
        <ele>270.215</ele>
        <time>2020-09-11T12:45:10Z</time>
      </trkpt>
      <trkpt lat="43.90391" lon="5.18843">
        <ele>270.626</ele>
        <time>2020-09-11T12:45:14Z</time>
      </trkpt>
      <trkpt lat="43.90394" lon="5.18837">
        <ele>270.708</ele>
        <time>2020-09-11T12:45:19Z</time>
      </trkpt>
      <trkpt lat="43.90396" lon="5.18831">
        <ele>270.824</ele>
        <time>2020-09-11T12:45:22Z</time>
      </trkpt>
      <trkpt lat="43.904" lon="5.18826">
        <ele>270.645</ele>
        <time>2020-09-11T12:45:26Z</time>
      </trkpt>
      <trkpt lat="43.90403" lon="5.18821">
        <ele>271.174</ele>
        <time>2020-09-11T12:45:30Z</time>
      </trkpt>
      <trkpt lat="43.90406" lon="5.18815">
        <ele>271.332</ele>
        <time>2020-09-11T12:45:33Z</time>
      </trkpt>
      <trkpt lat="43.90409" lon="5.18809">
        <ele>270.984</ele>
        <time>2020-09-11T12:45:38Z</time>
      </trkpt>
      <trkpt lat="43.90412" lon="5.18803">
        <ele>271.694</ele>
        <time>2020-09-11T12:45:42Z</time>
      </trkpt>
      <trkpt lat="43.90414" lon="5.18796">
        <ele>271.364</ele>
        <time>2020-09-11T12:45:46Z</time>
      </trkpt>
      <trkpt lat="43.90418" lon="5.18789">
        <ele>271.423</ele>
        <time>2020-09-11T12:45:51Z</time>
      </trkpt>
      <trkpt lat="43.90421" lon="5.18783">
        <ele>271.076</ele>
        <time>2020-09-11T12:45:54Z</time>
      </trkpt>
      <trkpt lat="43.90426" lon="5.18777">
        <ele>271.19</ele>
        <time>2020-09-11T12:45:58Z</time>
      </trkpt>
      <trkpt lat="43.90429" lon="5.18772">
        <ele>271.719</ele>
        <time>2020-09-11T12:46:02Z</time>
      </trkpt>
      <trkpt lat="43.90431" lon="5.18766">
        <ele>271.608</ele>
        <time>2020-09-11T12:46:05Z</time>
      </trkpt>
      <trkpt lat="43.90435" lon="5.1876">
        <ele>271.282</ele>
        <time>2020-09-11T12:46:10Z</time>
      </trkpt>
      <trkpt lat="43.90438" lon="5.18754">
        <ele>271.213</ele>
        <time>2020-09-11T12:46:14Z</time>
      </trkpt>
      <trkpt lat="43.90442" lon="5.18748">
        <ele>271.812</ele>
        <time>2020-09-11T12:46:18Z</time>
      </trkpt>
      <trkpt lat="43.90445" lon="5.18742">
        <ele>272.17</ele>
        <time>2020-09-11T12:46:23Z</time>
      </trkpt>
      <trkpt lat="43.90448" lon="5.18737">
        <ele>272.112</ele>
        <time>2020-09-11T12:46:27Z</time>
      </trkpt>
      <trkpt lat="43.90452" lon="5.18732">
        <ele>272.192</ele>
        <time>2020-09-11T12:46:31Z</time>
      </trkpt>
      <trkpt lat="43.90456" lon="5.18728">
        <ele>272.212</ele>
        <time>2020-09-11T12:46:34Z</time>
      </trkpt>
      <trkpt lat="43.9046" lon="5.18725">
        <ele>272.021</ele>
        <time>2020-09-11T12:46:38Z</time>
      </trkpt>
      <trkpt lat="43.90463" lon="5.1872">
        <ele>272.149</ele>
        <time>2020-09-11T12:46:43Z</time>
      </trkpt>
      <trkpt lat="43.90466" lon="5.18714">
        <ele>272.502</ele>
        <time>2020-09-11T12:46:46Z</time>
      </trkpt>
      <trkpt lat="43.90469" lon="5.18708">
        <ele>272.522</ele>
        <time>2020-09-11T12:46:50Z</time>
      </trkpt>
      <trkpt lat="43.90471" lon="5.18702">
        <ele>272.508</ele>
        <time>2020-09-11T12:46:53Z</time>
      </trkpt>
      <trkpt lat="43.90473" lon="5.18696">
        <ele>272.769</ele>
        <time>2020-09-11T12:46:57Z</time>
      </trkpt>
      <trkpt lat="43.90477" lon="5.18692">
        <ele>272.74</ele>
        <time>2020-09-11T12:47:01Z</time>
      </trkpt>
      <trkpt lat="43.90483" lon="5.1869">
        <ele>272.479</ele>
        <time>2020-09-11T12:47:05Z</time>
      </trkpt>
      <trkpt lat="43.90488" lon="5.18689">
        <ele>272.437</ele>
        <time>2020-09-11T12:47:10Z</time>
      </trkpt>
      <trkpt lat="43.90494" lon="5.18689">
        <ele>272.369</ele>
        <time>2020-09-11T12:47:14Z</time>
      </trkpt>
      <trkpt lat="43.90499" lon="5.1869">
        <ele>272.379</ele>
        <time>2020-09-11T12:47:17Z</time>
      </trkpt>
      <trkpt lat="43.90504" lon="5.18691">
        <ele>272.729</ele>
        <time>2020-09-11T12:47:22Z</time>
      </trkpt>
      <trkpt lat="43.90508" lon="5.18693">
        <ele>272.678</ele>
        <time>2020-09-11T12:47:26Z</time>
      </trkpt>
      <trkpt lat="43.90512" lon="5.18695">
        <ele>272.532</ele>
        <time>2020-09-11T12:47:30Z</time>
      </trkpt>
      <trkpt lat="43.90517" lon="5.18698">
        <ele>272.492</ele>
        <time>2020-09-11T12:47:33Z</time>
      </trkpt>
      <trkpt lat="43.90521" lon="5.187">
        <ele>272.411</ele>
        <time>2020-09-11T12:47:36Z</time>
      </trkpt>
      <trkpt lat="43.90526" lon="5.18703">
        <ele>272.508</ele>
        <time>2020-09-11T12:47:40Z</time>
      </trkpt>
      <trkpt lat="43.90532" lon="5.18706">
        <ele>272.388</ele>
        <time>2020-09-11T12:47:44Z</time>
      </trkpt>
      <trkpt lat="43.90536" lon="5.18709">
        <ele>272.459</ele>
        <time>2020-09-11T12:47:48Z</time>
      </trkpt>
      <trkpt lat="43.90541" lon="5.18711">
        <ele>272.358</ele>
        <time>2020-09-11T12:47:52Z</time>
      </trkpt>
      <trkpt lat="43.90546" lon="5.18714">
        <ele>272.386</ele>
        <time>2020-09-11T12:47:56Z</time>
      </trkpt>
      <trkpt lat="43.9055" lon="5.18717">
        <ele>272.378</ele>
        <time>2020-09-11T12:48:00Z</time>
      </trkpt>
      <trkpt lat="43.90555" lon="5.18721">
        <ele>272.298</ele>
        <time>2020-09-11T12:48:03Z</time>
      </trkpt>
      <trkpt lat="43.90559" lon="5.18723">
        <ele>271.998</ele>
        <time>2020-09-11T12:48:08Z</time>
      </trkpt>
      <trkpt lat="43.90564" lon="5.18725">
        <ele>272.047</ele>
        <time>2020-09-11T12:48:11Z</time>
      </trkpt>
      <trkpt lat="43.90569" lon="5.18728">
        <ele>271.982</ele>
        <time>2020-09-11T12:48:15Z</time>
      </trkpt>
      <trkpt lat="43.90573" lon="5.18731">
        <ele>271.943</ele>
        <time>2020-09-11T12:48:19Z</time>
      </trkpt>
      <trkpt lat="43.90578" lon="5.18735">
        <ele>272.117</ele>
        <time>2020-09-11T12:48:23Z</time>
      </trkpt>
      <trkpt lat="43.90583" lon="5.1874">
        <ele>272.008</ele>
        <time>2020-09-11T12:48:28Z</time>
      </trkpt>
      <trkpt lat="43.90587" lon="5.18743">
        <ele>271.953</ele>
        <time>2020-09-11T12:48:32Z</time>
      </trkpt>
      <trkpt lat="43.90592" lon="5.18745">
        <ele>271.794</ele>
        <time>2020-09-11T12:48:36Z</time>
      </trkpt>
      <trkpt lat="43.90596" lon="5.18746">
        <ele>271.653</ele>
        <time>2020-09-11T12:48:40Z</time>
      </trkpt>
      <trkpt lat="43.90601" lon="5.18744">
        <ele>271.121</ele>
        <time>2020-09-11T12:48:44Z</time>
      </trkpt>
      <trkpt lat="43.90605" lon="5.18742">
        <ele>271.233</ele>
        <time>2020-09-11T12:48:48Z</time>
      </trkpt>
      <trkpt lat="43.9061" lon="5.18737">
        <ele>270.353</ele>
        <time>2020-09-11T12:48:52Z</time>
      </trkpt>
      <trkpt lat="43.90612" lon="5.18731">
        <ele>270.473</ele>
        <time>2020-09-11T12:48:58Z</time>
      </trkpt>
      <trkpt lat="43.90613" lon="5.18724">
        <ele>270.312</ele>
        <time>2020-09-11T12:49:04Z</time>
      </trkpt>
      <trkpt lat="43.90609" lon="5.1872">
        <ele>270.838</ele>
        <time>2020-09-11T12:49:09Z</time>
      </trkpt>
      <trkpt lat="43.90606" lon="5.18715">
        <ele>270.97</ele>
        <time>2020-09-11T12:49:12Z</time>
      </trkpt>
      <trkpt lat="43.90602" lon="5.18711">
        <ele>270.617</ele>
        <time>2020-09-11T12:49:17Z</time>
      </trkpt>
      <trkpt lat="43.90598" lon="5.18706">
        <ele>271.208</ele>
        <time>2020-09-11T12:49:22Z</time>
      </trkpt>
      <trkpt lat="43.90593" lon="5.18701">
        <ele>271.668</ele>
        <time>2020-09-11T12:49:26Z</time>
      </trkpt>
      <trkpt lat="43.90588" lon="5.18697">
        <ele>271.259</ele>
        <time>2020-09-11T12:49:30Z</time>
      </trkpt>
      <trkpt lat="43.90585" lon="5.18693">
        <ele>271.188</ele>
        <time>2020-09-11T12:49:33Z</time>
      </trkpt>
      <trkpt lat="43.9058" lon="5.18688">
        <ele>271.226</ele>
        <time>2020-09-11T12:49:38Z</time>
      </trkpt>
      <trkpt lat="43.90576" lon="5.18684">
        <ele>271.228</ele>
        <time>2020-09-11T12:49:41Z</time>
      </trkpt>
      <trkpt lat="43.90571" lon="5.18679">
        <ele>270.778</ele>
        <time>2020-09-11T12:49:45Z</time>
      </trkpt>
      <trkpt lat="43.90567" lon="5.18675">
        <ele>270.428</ele>
        <time>2020-09-11T12:49:50Z</time>
      </trkpt>
      <trkpt lat="43.90564" lon="5.1867">
        <ele>270.377</ele>
        <time>2020-09-11T12:49:54Z</time>
      </trkpt>
      <trkpt lat="43.9056" lon="5.18664">
        <ele>269.893</ele>
        <time>2020-09-11T12:49:58Z</time>
      </trkpt>
      <trkpt lat="43.90557" lon="5.18659">
        <ele>270.165</ele>
        <time>2020-09-11T12:50:02Z</time>
      </trkpt>
      <trkpt lat="43.90554" lon="5.18654">
        <ele>269.921</ele>
        <time>2020-09-11T12:50:06Z</time>
      </trkpt>
      <trkpt lat="43.9055" lon="5.1865">
        <ele>269.708</ele>
        <time>2020-09-11T12:50:11Z</time>
      </trkpt>
      <trkpt lat="43.90546" lon="5.18646">
        <ele>269.644</ele>
        <time>2020-09-11T12:50:14Z</time>
      </trkpt>
      <trkpt lat="43.90542" lon="5.18642">
        <ele>269.955</ele>
        <time>2020-09-11T12:50:18Z</time>
      </trkpt>
      <trkpt lat="43.90537" lon="5.18637">
        <ele>269.834</ele>
        <time>2020-09-11T12:50:22Z</time>
      </trkpt>
      <trkpt lat="43.90534" lon="5.18633">
        <ele>269.822</ele>
        <time>2020-09-11T12:50:25Z</time>
      </trkpt>
      <trkpt lat="43.90532" lon="5.18627">
        <ele>269.554</ele>
        <time>2020-09-11T12:50:29Z</time>
      </trkpt>
      <trkpt lat="43.9053" lon="5.1862">
        <ele>269.684</ele>
        <time>2020-09-11T12:50:33Z</time>
      </trkpt>
      <trkpt lat="43.9053" lon="5.18611">
        <ele>269.594</ele>
        <time>2020-09-11T12:50:38Z</time>
      </trkpt>
      <trkpt lat="43.9053" lon="5.18604">
        <ele>269.493</ele>
        <time>2020-09-11T12:50:42Z</time>
      </trkpt>
      <trkpt lat="43.9053" lon="5.18598">
        <ele>269.573</ele>
        <time>2020-09-11T12:50:45Z</time>
      </trkpt>
      <trkpt lat="43.90528" lon="5.18589">
        <ele>269.885</ele>
        <time>2020-09-11T12:50:50Z</time>
      </trkpt>
      <trkpt lat="43.90525" lon="5.18582">
        <ele>269.413</ele>
        <time>2020-09-11T12:50:57Z</time>
      </trkpt>
      <trkpt lat="43.90521" lon="5.18575">
        <ele>269.308</ele>
        <time>2020-09-11T12:51:03Z</time>
      </trkpt>
      <trkpt lat="43.90519" lon="5.1857">
        <ele>269.542</ele>
        <time>2020-09-11T12:51:06Z</time>
      </trkpt>
      <trkpt lat="43.90515" lon="5.18564">
        <ele>269.293</ele>
        <time>2020-09-11T12:51:10Z</time>
      </trkpt>
      <trkpt lat="43.90511" lon="5.18558">
        <ele>269.422</ele>
        <time>2020-09-11T12:51:15Z</time>
      </trkpt>
      <trkpt lat="43.90508" lon="5.18551">
        <ele>269.19</ele>
        <time>2020-09-11T12:51:19Z</time>
      </trkpt>
      <trkpt lat="43.90505" lon="5.18541">
        <ele>268.912</ele>
        <time>2020-09-11T12:51:23Z</time>
      </trkpt>
      <trkpt lat="43.90503" lon="5.18535">
        <ele>268.812</ele>
        <time>2020-09-11T12:51:27Z</time>
      </trkpt>
      <trkpt lat="43.90501" lon="5.18529">
        <ele>268.992</ele>
        <time>2020-09-11T12:51:31Z</time>
      </trkpt>
      <trkpt lat="43.90499" lon="5.18522">
        <ele>268.761</ele>
        <time>2020-09-11T12:51:35Z</time>
      </trkpt>
      <trkpt lat="43.90498" lon="5.18515">
        <ele>268.514</ele>
        <time>2020-09-11T12:51:40Z</time>
      </trkpt>
      <trkpt lat="43.90497" lon="5.18507">
        <ele>268.854</ele>
        <time>2020-09-11T12:51:43Z</time>
      </trkpt>
      <trkpt lat="43.90498" lon="5.185">
        <ele>268.909</ele>
        <time>2020-09-11T12:51:47Z</time>
      </trkpt>
      <trkpt lat="43.905" lon="5.18493">
        <ele>269.108</ele>
        <time>2020-09-11T12:51:51Z</time>
      </trkpt>
      <trkpt lat="43.90503" lon="5.18486">
        <ele>268.926</ele>
        <time>2020-09-11T12:51:55Z</time>
      </trkpt>
      <trkpt lat="43.90505" lon="5.18481">
        <ele>269.377</ele>
        <time>2020-09-11T12:51:57Z</time>
      </trkpt>
      <trkpt lat="43.90508" lon="5.18475">
        <ele>269.536</ele>
        <time>2020-09-11T12:52:01Z</time>
      </trkpt>
      <trkpt lat="43.9051" lon="5.18469">
        <ele>269.644</ele>
        <time>2020-09-11T12:52:05Z</time>
      </trkpt>
      <trkpt lat="43.90513" lon="5.18462">
        <ele>269.876</ele>
        <time>2020-09-11T12:52:08Z</time>
      </trkpt>
      <trkpt lat="43.90515" lon="5.18455">
        <ele>270.086</ele>
        <time>2020-09-11T12:52:14Z</time>
      </trkpt>
      <trkpt lat="43.90517" lon="5.18448">
        <ele>270.266</ele>
        <time>2020-09-11T12:52:18Z</time>
      </trkpt>
      <trkpt lat="43.90519" lon="5.18442">
        <ele>270.515</ele>
        <time>2020-09-11T12:52:21Z</time>
      </trkpt>
      <trkpt lat="43.9052" lon="5.18435">
        <ele>270.771</ele>
        <time>2020-09-11T12:52:27Z</time>
      </trkpt>
      <trkpt lat="43.90522" lon="5.18428">
        <ele>270.641</ele>
        <time>2020-09-11T12:52:31Z</time>
      </trkpt>
      <trkpt lat="43.90525" lon="5.18421">
        <ele>270.715</ele>
        <time>2020-09-11T12:52:34Z</time>
      </trkpt>
      <trkpt lat="43.90528" lon="5.18416">
        <ele>271.008</ele>
        <time>2020-09-11T12:52:39Z</time>
      </trkpt>
      <trkpt lat="43.90533" lon="5.18412">
        <ele>271.472</ele>
        <time>2020-09-11T12:52:44Z</time>
      </trkpt>
      <trkpt lat="43.90537" lon="5.1841">
        <ele>272.123</ele>
        <time>2020-09-11T12:52:47Z</time>
      </trkpt>
      <trkpt lat="43.90543" lon="5.18408">
        <ele>272.512</ele>
        <time>2020-09-11T12:52:51Z</time>
      </trkpt>
      <trkpt lat="43.90547" lon="5.18406">
        <ele>272.66</ele>
        <time>2020-09-11T12:52:54Z</time>
      </trkpt>
      <trkpt lat="43.90552" lon="5.18404">
        <ele>273.152</ele>
        <time>2020-09-11T12:52:59Z</time>
      </trkpt>
      <trkpt lat="43.90556" lon="5.18398">
        <ele>274.222</ele>
        <time>2020-09-11T12:53:08Z</time>
      </trkpt>
      <trkpt lat="43.90561" lon="5.18396">
        <ele>274.562</ele>
        <time>2020-09-11T12:53:11Z</time>
      </trkpt>
      <trkpt lat="43.90567" lon="5.18392">
        <ele>274.261</ele>
        <time>2020-09-11T12:53:14Z</time>
      </trkpt>
      <trkpt lat="43.90571" lon="5.1839">
        <ele>275.487</ele>
        <time>2020-09-11T12:53:22Z</time>
      </trkpt>
      <trkpt lat="43.90577" lon="5.18387">
        <ele>275.542</ele>
        <time>2020-09-11T12:53:26Z</time>
      </trkpt>
      <trkpt lat="43.90582" lon="5.18383">
        <ele>276.426</ele>
        <time>2020-09-11T12:53:30Z</time>
      </trkpt>
      <trkpt lat="43.90587" lon="5.1838">
        <ele>276.208</ele>
        <time>2020-09-11T12:53:33Z</time>
      </trkpt>
      <trkpt lat="43.90592" lon="5.18378">
        <ele>276.793</ele>
        <time>2020-09-11T12:53:37Z</time>
      </trkpt>
      <trkpt lat="43.90597" lon="5.18376">
        <ele>277.234</ele>
        <time>2020-09-11T12:53:41Z</time>
      </trkpt>
      <trkpt lat="43.90602" lon="5.18372">
        <ele>277.033</ele>
        <time>2020-09-11T12:53:46Z</time>
      </trkpt>
      <trkpt lat="43.90606" lon="5.18366">
        <ele>278.471</ele>
        <time>2020-09-11T12:53:52Z</time>
      </trkpt>
      <trkpt lat="43.90608" lon="5.18361">
        <ele>278.483</ele>
        <time>2020-09-11T12:53:56Z</time>
      </trkpt>
      <trkpt lat="43.9061" lon="5.18354">
        <ele>278.623</ele>
        <time>2020-09-11T12:53:59Z</time>
      </trkpt>
      <trkpt lat="43.9061" lon="5.18347">
        <ele>278.633</ele>
        <time>2020-09-11T12:54:02Z</time>
      </trkpt>
      <trkpt lat="43.9061" lon="5.18341">
        <ele>278.622</ele>
        <time>2020-09-11T12:54:06Z</time>
      </trkpt>
      <trkpt lat="43.9061" lon="5.18334">
        <ele>278.315</ele>
        <time>2020-09-11T12:54:10Z</time>
      </trkpt>
      <trkpt lat="43.90609" lon="5.18325">
        <ele>278.165</ele>
        <time>2020-09-11T12:54:14Z</time>
      </trkpt>
      <trkpt lat="43.9061" lon="5.18317">
        <ele>277.911</ele>
        <time>2020-09-11T12:54:20Z</time>
      </trkpt>
      <trkpt lat="43.9061" lon="5.18309">
        <ele>277.708</ele>
        <time>2020-09-11T12:54:24Z</time>
      </trkpt>
      <trkpt lat="43.90611" lon="5.18302">
        <ele>277.836</ele>
        <time>2020-09-11T12:54:28Z</time>
      </trkpt>
      <trkpt lat="43.90614" lon="5.18294">
        <ele>277.647</ele>
        <time>2020-09-11T12:54:34Z</time>
      </trkpt>
      <trkpt lat="43.90616" lon="5.18287">
        <ele>277.646</ele>
        <time>2020-09-11T12:54:39Z</time>
      </trkpt>
      <trkpt lat="43.90619" lon="5.18281">
        <ele>277.874</ele>
        <time>2020-09-11T12:54:43Z</time>
      </trkpt>
      <trkpt lat="43.9062" lon="5.18275">
        <ele>277.996</ele>
        <time>2020-09-11T12:54:46Z</time>
      </trkpt>
      <trkpt lat="43.90621" lon="5.18269">
        <ele>278.076</ele>
        <time>2020-09-11T12:54:51Z</time>
      </trkpt>
      <trkpt lat="43.90622" lon="5.18262">
        <ele>278.176</ele>
        <time>2020-09-11T12:54:56Z</time>
      </trkpt>
      <trkpt lat="43.90626" lon="5.18255">
        <ele>277.895</ele>
        <time>2020-09-11T12:55:00Z</time>
      </trkpt>
      <trkpt lat="43.90627" lon="5.18249">
        <ele>278.278</ele>
        <time>2020-09-11T12:55:04Z</time>
      </trkpt>
      <trkpt lat="43.90629" lon="5.18242">
        <ele>278.233</ele>
        <time>2020-09-11T12:55:07Z</time>
      </trkpt>
      <trkpt lat="43.90631" lon="5.18236">
        <ele>278.026</ele>
        <time>2020-09-11T12:55:10Z</time>
      </trkpt>
      <trkpt lat="43.90634" lon="5.18231">
        <ele>278.108</ele>
        <time>2020-09-11T12:55:13Z</time>
      </trkpt>
      <trkpt lat="43.90637" lon="5.18226">
        <ele>277.812</ele>
        <time>2020-09-11T12:55:17Z</time>
      </trkpt>
      <trkpt lat="43.90641" lon="5.18221">
        <ele>277.453</ele>
        <time>2020-09-11T12:55:21Z</time>
      </trkpt>
      <trkpt lat="43.90645" lon="5.18217">
        <ele>277.032</ele>
        <time>2020-09-11T12:55:25Z</time>
      </trkpt>
      <trkpt lat="43.90649" lon="5.18212">
        <ele>276.49</ele>
        <time>2020-09-11T12:55:29Z</time>
      </trkpt>
      <trkpt lat="43.90653" lon="5.18207">
        <ele>276.182</ele>
        <time>2020-09-11T12:55:33Z</time>
      </trkpt>
      <trkpt lat="43.90655" lon="5.18202">
        <ele>275.972</ele>
        <time>2020-09-11T12:55:37Z</time>
      </trkpt>
      <trkpt lat="43.90659" lon="5.18197">
        <ele>275.732</ele>
        <time>2020-09-11T12:55:41Z</time>
      </trkpt>
      <trkpt lat="43.90662" lon="5.18193">
        <ele>275.751</ele>
        <time>2020-09-11T12:55:45Z</time>
      </trkpt>
      <trkpt lat="43.90666" lon="5.18188">
        <ele>276.325</ele>
        <time>2020-09-11T12:55:49Z</time>
      </trkpt>
      <trkpt lat="43.90671" lon="5.18185">
        <ele>276.426</ele>
        <time>2020-09-11T12:55:52Z</time>
      </trkpt>
      <trkpt lat="43.90675" lon="5.18183">
        <ele>276.708</ele>
        <time>2020-09-11T12:55:56Z</time>
      </trkpt>
      <trkpt lat="43.9068" lon="5.1818">
        <ele>275.708</ele>
        <time>2020-09-11T12:55:59Z</time>
      </trkpt>
      <trkpt lat="43.90685" lon="5.18175">
        <ele>276.317</ele>
        <time>2020-09-11T12:56:04Z</time>
      </trkpt>
      <trkpt lat="43.90688" lon="5.18169">
        <ele>276.578</ele>
        <time>2020-09-11T12:56:10Z</time>
      </trkpt>
      <trkpt lat="43.90688" lon="5.18162">
        <ele>276.637</ele>
        <time>2020-09-11T12:56:14Z</time>
      </trkpt>
      <trkpt lat="43.90688" lon="5.18155">
        <ele>276.795</ele>
        <time>2020-09-11T12:56:19Z</time>
      </trkpt>
      <trkpt lat="43.90688" lon="5.18148">
        <ele>277.937</ele>
        <time>2020-09-11T12:56:25Z</time>
      </trkpt>
      <trkpt lat="43.90685" lon="5.18143">
        <ele>278.537</ele>
        <time>2020-09-11T12:56:30Z</time>
      </trkpt>
      <trkpt lat="43.9068" lon="5.18137">
        <ele>278.727</ele>
        <time>2020-09-11T12:56:35Z</time>
      </trkpt>
      <trkpt lat="43.90676" lon="5.18134">
        <ele>278.956</ele>
        <time>2020-09-11T12:56:39Z</time>
      </trkpt>
      <trkpt lat="43.90671" lon="5.18133">
        <ele>278.946</ele>
        <time>2020-09-11T12:56:47Z</time>
      </trkpt>
      <trkpt lat="43.90666" lon="5.18131">
        <ele>279.588</ele>
        <time>2020-09-11T12:56:53Z</time>
      </trkpt>
      <trkpt lat="43.90662" lon="5.1813">
        <ele>279.716</ele>
        <time>2020-09-11T12:57:01Z</time>
      </trkpt>
      <trkpt lat="43.90657" lon="5.18128">
        <ele>280.008</ele>
        <time>2020-09-11T12:57:05Z</time>
      </trkpt>
      <trkpt lat="43.90653" lon="5.18125">
        <ele>279.719</ele>
        <time>2020-09-11T12:57:09Z</time>
      </trkpt>
      <trkpt lat="43.90648" lon="5.18121">
        <ele>280.04</ele>
        <time>2020-09-11T12:57:14Z</time>
      </trkpt>
      <trkpt lat="43.90644" lon="5.18117">
        <ele>280.599</ele>
        <time>2020-09-11T12:57:17Z</time>
      </trkpt>
      <trkpt lat="43.9064" lon="5.18111">
        <ele>280.517</ele>
        <time>2020-09-11T12:57:23Z</time>
      </trkpt>
      <trkpt lat="43.90637" lon="5.18105">
        <ele>280.619</ele>
        <time>2020-09-11T12:57:27Z</time>
      </trkpt>
      <trkpt lat="43.90637" lon="5.18097">
        <ele>280.769</ele>
        <time>2020-09-11T12:57:32Z</time>
      </trkpt>
      <trkpt lat="43.90637" lon="5.18091">
        <ele>281.569</ele>
        <time>2020-09-11T12:57:37Z</time>
      </trkpt>
      <trkpt lat="43.90637" lon="5.18084">
        <ele>282.018</ele>
        <time>2020-09-11T12:57:40Z</time>
      </trkpt>
      <trkpt lat="43.90639" lon="5.18077">
        <ele>282.081</ele>
        <time>2020-09-11T12:57:44Z</time>
      </trkpt>
      <trkpt lat="43.90642" lon="5.18071">
        <ele>282.661</ele>
        <time>2020-09-11T12:57:49Z</time>
      </trkpt>
      <trkpt lat="43.90646" lon="5.18067">
        <ele>282.917</ele>
        <time>2020-09-11T12:57:53Z</time>
      </trkpt>
      <trkpt lat="43.9065" lon="5.18063">
        <ele>283.508</ele>
        <time>2020-09-11T12:57:57Z</time>
      </trkpt>
      <trkpt lat="43.90653" lon="5.18057">
        <ele>284.323</ele>
        <time>2020-09-11T12:58:02Z</time>
      </trkpt>
      <trkpt lat="43.90651" lon="5.1805">
        <ele>284.694</ele>
        <time>2020-09-11T12:58:06Z</time>
      </trkpt>
      <trkpt lat="43.90649" lon="5.18045">
        <ele>284.143</ele>
        <time>2020-09-11T12:58:11Z</time>
      </trkpt>
      <trkpt lat="43.90649" lon="5.18038">
        <ele>284.281</ele>
        <time>2020-09-11T12:58:20Z</time>
      </trkpt>
      <trkpt lat="43.90651" lon="5.18032">
        <ele>283.863</ele>
        <time>2020-09-11T12:58:24Z</time>
      </trkpt>
      <trkpt lat="43.90655" lon="5.18026">
        <ele>283.933</ele>
        <time>2020-09-11T12:58:28Z</time>
      </trkpt>
      <trkpt lat="43.90659" lon="5.18021">
        <ele>284.083</ele>
        <time>2020-09-11T12:58:33Z</time>
      </trkpt>
      <trkpt lat="43.90662" lon="5.18015">
        <ele>284.472</ele>
        <time>2020-09-11T12:58:37Z</time>
      </trkpt>
      <trkpt lat="43.90666" lon="5.18011">
        <ele>284.741</ele>
        <time>2020-09-11T12:58:42Z</time>
      </trkpt>
      <trkpt lat="43.9067" lon="5.18007">
        <ele>285.081</ele>
        <time>2020-09-11T12:58:47Z</time>
      </trkpt>
      <trkpt lat="43.90674" lon="5.1801">
        <ele>285.809</ele>
        <time>2020-09-11T12:59:15Z</time>
      </trkpt>
      <trkpt lat="43.90677" lon="5.18014">
        <ele>285.608</ele>
        <time>2020-09-11T12:59:54Z</time>
      </trkpt>
      <trkpt lat="43.90682" lon="5.18011">
        <ele>286.769</ele>
        <time>2020-09-11T13:00:25Z</time>
      </trkpt>
      <trkpt lat="43.90686" lon="5.18009">
        <ele>286.89</ele>
        <time>2020-09-11T13:00:39Z</time>
      </trkpt>
      <trkpt lat="43.9069" lon="5.18013">
        <ele>287.229</ele>
        <time>2020-09-11T13:01:01Z</time>
      </trkpt>
      <trkpt lat="43.90695" lon="5.18016">
        <ele>287.767</ele>
        <time>2020-09-11T13:01:08Z</time>
      </trkpt>
      <trkpt lat="43.907" lon="5.18012">
        <ele>287.859</ele>
        <time>2020-09-11T13:01:14Z</time>
      </trkpt>
      <trkpt lat="43.90701" lon="5.18019">
        <ele>288.329</ele>
        <time>2020-09-11T13:01:31Z</time>
      </trkpt>
      <trkpt lat="43.90701" lon="5.18026">
        <ele>288.059</ele>
        <time>2020-09-11T13:01:37Z</time>
      </trkpt>
      <trkpt lat="43.90702" lon="5.18032">
        <ele>288.158</ele>
        <time>2020-09-11T13:01:43Z</time>
      </trkpt>
      <trkpt lat="43.90703" lon="5.18038">
        <ele>287.519</ele>
        <time>2020-09-11T13:01:51Z</time>
      </trkpt>
      <trkpt lat="43.90705" lon="5.18044">
        <ele>287.709</ele>
        <time>2020-09-11T13:02:04Z</time>
      </trkpt>
      <trkpt lat="43.90706" lon="5.18034">
        <ele>287.319</ele>
        <time>2020-09-11T13:02:32Z</time>
      </trkpt>
      <trkpt lat="43.90702" lon="5.1803">
        <ele>287.708</ele>
        <time>2020-09-11T13:02:40Z</time>
      </trkpt>
      <trkpt lat="43.90699" lon="5.18025">
        <ele>288.176</ele>
        <time>2020-09-11T13:02:52Z</time>
      </trkpt>
      <trkpt lat="43.90696" lon="5.18018">
        <ele>287.817</ele>
        <time>2020-09-11T13:02:58Z</time>
      </trkpt>
      <trkpt lat="43.90696" lon="5.18012">
        <ele>288.276</ele>
        <time>2020-09-11T13:03:04Z</time>
      </trkpt>
      <trkpt lat="43.90699" lon="5.18007">
        <ele>288.564</ele>
        <time>2020-09-11T13:03:10Z</time>
      </trkpt>
      <trkpt lat="43.90703" lon="5.18005">
        <ele>289.146</ele>
        <time>2020-09-11T13:03:16Z</time>
      </trkpt>
      <trkpt lat="43.90708" lon="5.18003">
        <ele>289.446</ele>
        <time>2020-09-11T13:03:23Z</time>
      </trkpt>
      <trkpt lat="43.90713" lon="5.18005">
        <ele>289.976</ele>
        <time>2020-09-11T13:03:30Z</time>
      </trkpt>
      <trkpt lat="43.90718" lon="5.18008">
        <ele>290.145</ele>
        <time>2020-09-11T13:03:36Z</time>
      </trkpt>
      <trkpt lat="43.90723" lon="5.18011">
        <ele>290.574</ele>
        <time>2020-09-11T13:03:50Z</time>
      </trkpt>
      <trkpt lat="43.90721" lon="5.18004">
        <ele>291.556</ele>
        <time>2020-09-11T13:04:57Z</time>
      </trkpt>
      <trkpt lat="43.90723" lon="5.17999">
        <ele>291.621</ele>
        <time>2020-09-11T13:05:12Z</time>
      </trkpt>
      <trkpt lat="43.90726" lon="5.18004">
        <ele>291.308</ele>
        <time>2020-09-11T13:05:25Z</time>
      </trkpt>
      <trkpt lat="43.90728" lon="5.17998">
        <ele>291.912</ele>
        <time>2020-09-11T13:05:58Z</time>
      </trkpt>
      <trkpt lat="43.90731" lon="5.17993">
        <ele>292.443</ele>
        <time>2020-09-11T13:06:13Z</time>
      </trkpt>
      <trkpt lat="43.90733" lon="5.17987">
        <ele>291.842</ele>
        <time>2020-09-11T13:06:29Z</time>
      </trkpt>
      <trkpt lat="43.90731" lon="5.17981">
        <ele>291.43</ele>
        <time>2020-09-11T13:06:33Z</time>
      </trkpt>
      <trkpt lat="43.9073" lon="5.17975">
        <ele>291.232</ele>
        <time>2020-09-11T13:06:37Z</time>
      </trkpt>
      <trkpt lat="43.90728" lon="5.17968">
        <ele>291.342</ele>
        <time>2020-09-11T13:06:42Z</time>
      </trkpt>
      <trkpt lat="43.90728" lon="5.17961">
        <ele>291.582</ele>
        <time>2020-09-11T13:06:48Z</time>
      </trkpt>
      <trkpt lat="43.90728" lon="5.17955">
        <ele>291.581</ele>
        <time>2020-09-11T13:06:53Z</time>
      </trkpt>
      <trkpt lat="43.90729" lon="5.17948">
        <ele>291.969</ele>
        <time>2020-09-11T13:06:57Z</time>
      </trkpt>
      <trkpt lat="43.90734" lon="5.17943">
        <ele>292.604</ele>
        <time>2020-09-11T13:07:02Z</time>
      </trkpt>
      <trkpt lat="43.90738" lon="5.17946">
        <ele>292.924</ele>
        <time>2020-09-11T13:07:07Z</time>
      </trkpt>
      <trkpt lat="43.90741" lon="5.17951">
        <ele>293.108</ele>
        <time>2020-09-11T13:07:11Z</time>
      </trkpt>
      <trkpt lat="43.90741" lon="5.17958">
        <ele>293.051</ele>
        <time>2020-09-11T13:07:16Z</time>
      </trkpt>
      <trkpt lat="43.9074" lon="5.17965">
        <ele>293.362</ele>
        <time>2020-09-11T13:07:21Z</time>
      </trkpt>
      <trkpt lat="43.90735" lon="5.17964">
        <ele>292.081</ele>
        <time>2020-09-11T13:07:41Z</time>
      </trkpt>
      <trkpt lat="43.90735" lon="5.17971">
        <ele>291.929</ele>
        <time>2020-09-11T13:08:20Z</time>
      </trkpt>
      <trkpt lat="43.90734" lon="5.17979">
        <ele>291.811</ele>
        <time>2020-09-11T13:08:26Z</time>
      </trkpt>
      <trkpt lat="43.90736" lon="5.17985">
        <ele>291.911</ele>
        <time>2020-09-11T13:09:04Z</time>
      </trkpt>
      <trkpt lat="43.90738" lon="5.17992">
        <ele>292.491</ele>
        <time>2020-09-11T13:09:13Z</time>
      </trkpt>
      <trkpt lat="43.90742" lon="5.17995">
        <ele>293.01</ele>
        <time>2020-09-11T13:10:03Z</time>
      </trkpt>
      <trkpt lat="43.90738" lon="5.17997">
        <ele>292.254</ele>
        <time>2020-09-11T13:10:18Z</time>
      </trkpt>
      <trkpt lat="43.90737" lon="5.17991">
        <ele>292.256</ele>
        <time>2020-09-11T13:10:30Z</time>
      </trkpt>
      <trkpt lat="43.9074" lon="5.17985">
        <ele>292.811</ele>
        <time>2020-09-11T13:10:56Z</time>
      </trkpt>
      <trkpt lat="43.90737" lon="5.1799">
        <ele>292.008</ele>
        <time>2020-09-11T13:11:12Z</time>
      </trkpt>
      <trkpt lat="43.90738" lon="5.17996">
        <ele>291.93</ele>
        <time>2020-09-11T13:11:24Z</time>
      </trkpt>
      <trkpt lat="43.90736" lon="5.18005">
        <ele>291.671</ele>
        <time>2020-09-11T13:11:31Z</time>
      </trkpt>
      <trkpt lat="43.9074" lon="5.18008">
        <ele>291.66</ele>
        <time>2020-09-11T13:12:26Z</time>
      </trkpt>
      <trkpt lat="43.9074" lon="5.18016">
        <ele>292.048</ele>
        <time>2020-09-11T13:12:58Z</time>
      </trkpt>
      <trkpt lat="43.90742" lon="5.18022">
        <ele>291.88</ele>
        <time>2020-09-11T13:13:01Z</time>
      </trkpt>
      <trkpt lat="43.90744" lon="5.18028">
        <ele>291.98</ele>
        <time>2020-09-11T13:13:06Z</time>
      </trkpt>
      <trkpt lat="43.90745" lon="5.18034">
        <ele>292.04</ele>
        <time>2020-09-11T13:13:10Z</time>
      </trkpt>
      <trkpt lat="43.90742" lon="5.18029">
        <ele>292.589</ele>
        <time>2020-09-11T13:13:19Z</time>
      </trkpt>
      <trkpt lat="43.9074" lon="5.18021">
        <ele>292.255</ele>
        <time>2020-09-11T13:13:24Z</time>
      </trkpt>
      <trkpt lat="43.90737" lon="5.18015">
        <ele>292.107</ele>
        <time>2020-09-11T13:13:28Z</time>
      </trkpt>
      <trkpt lat="43.90731" lon="5.18013">
        <ele>291.717</ele>
        <time>2020-09-11T13:13:34Z</time>
      </trkpt>
      <trkpt lat="43.90735" lon="5.18017">
        <ele>291.808</ele>
        <time>2020-09-11T13:13:47Z</time>
      </trkpt>
      <trkpt lat="43.90737" lon="5.18024">
        <ele>291.92</ele>
        <time>2020-09-11T13:13:51Z</time>
      </trkpt>
      <trkpt lat="43.90739" lon="5.18031">
        <ele>292.051</ele>
        <time>2020-09-11T13:13:55Z</time>
      </trkpt>
      <trkpt lat="43.90742" lon="5.18038">
        <ele>291.88</ele>
        <time>2020-09-11T13:13:59Z</time>
      </trkpt>
      <trkpt lat="43.90746" lon="5.18039">
        <ele>292.188</ele>
        <time>2020-09-11T13:14:05Z</time>
      </trkpt>
      <trkpt lat="43.90751" lon="5.18037">
        <ele>293.23</ele>
        <time>2020-09-11T13:14:13Z</time>
      </trkpt>
      <trkpt lat="43.90756" lon="5.18036">
        <ele>293.27</ele>
        <time>2020-09-11T13:14:32Z</time>
      </trkpt>
      <trkpt lat="43.90761" lon="5.18037">
        <ele>293.49</ele>
        <time>2020-09-11T13:14:42Z</time>
      </trkpt>
      <trkpt lat="43.90764" lon="5.18041">
        <ele>293.659</ele>
        <time>2020-09-11T13:14:46Z</time>
      </trkpt>
      <trkpt lat="43.90769" lon="5.18045">
        <ele>293.592</ele>
        <time>2020-09-11T13:14:51Z</time>
      </trkpt>
      <trkpt lat="43.90769" lon="5.18051">
        <ele>292.773</ele>
        <time>2020-09-11T13:14:56Z</time>
      </trkpt>
      <trkpt lat="43.90772" lon="5.18058">
        <ele>292.82</ele>
        <time>2020-09-11T13:15:01Z</time>
      </trkpt>
      <trkpt lat="43.90768" lon="5.18063">
        <ele>292.408</ele>
        <time>2020-09-11T13:15:12Z</time>
      </trkpt>
      <trkpt lat="43.90764" lon="5.1806">
        <ele>292.514</ele>
        <time>2020-09-11T13:15:47Z</time>
      </trkpt>
      <trkpt lat="43.9076" lon="5.1806">
        <ele>292.255</ele>
        <time>2020-09-11T13:16:06Z</time>
      </trkpt>
      <trkpt lat="43.90755" lon="5.18058">
        <ele>291.414</ele>
        <time>2020-09-11T13:16:26Z</time>
      </trkpt>
      <trkpt lat="43.90751" lon="5.18054">
        <ele>291.752</ele>
        <time>2020-09-11T13:16:39Z</time>
      </trkpt>
      <trkpt lat="43.90747" lon="5.18052">
        <ele>291.724</ele>
        <time>2020-09-11T13:17:00Z</time>
      </trkpt>
      <trkpt lat="43.90743" lon="5.18048">
        <ele>291.434</ele>
        <time>2020-09-11T13:17:08Z</time>
      </trkpt>
      <trkpt lat="43.9074" lon="5.18042">
        <ele>291.564</ele>
        <time>2020-09-11T13:17:13Z</time>
      </trkpt>
      <trkpt lat="43.90738" lon="5.18036">
        <ele>291.733</ele>
        <time>2020-09-11T13:17:19Z</time>
      </trkpt>
      <trkpt lat="43.90733" lon="5.18034">
        <ele>291.929</ele>
        <time>2020-09-11T13:17:25Z</time>
      </trkpt>
      <trkpt lat="43.90731" lon="5.18028">
        <ele>291.7</ele>
        <time>2020-09-11T13:17:31Z</time>
      </trkpt>
      <trkpt lat="43.90729" lon="5.18022">
        <ele>291.72</ele>
        <time>2020-09-11T13:17:36Z</time>
      </trkpt>
      <trkpt lat="43.90729" lon="5.18015">
        <ele>291.708</ele>
        <time>2020-09-11T13:17:39Z</time>
      </trkpt>
      <trkpt lat="43.90731" lon="5.18007">
        <ele>291.837</ele>
        <time>2020-09-11T13:17:44Z</time>
      </trkpt>
      <trkpt lat="43.90726" lon="5.18013">
        <ele>291.088</ele>
        <time>2020-09-11T13:17:57Z</time>
      </trkpt>
      <trkpt lat="43.90721" lon="5.18016">
        <ele>290.417</ele>
        <time>2020-09-11T13:18:04Z</time>
      </trkpt>
      <trkpt lat="43.90716" lon="5.18017">
        <ele>290.025</ele>
        <time>2020-09-11T13:18:13Z</time>
      </trkpt>
      <trkpt lat="43.90711" lon="5.18018">
        <ele>289.577</ele>
        <time>2020-09-11T13:18:17Z</time>
      </trkpt>
      <trkpt lat="43.90712" lon="5.18012">
        <ele>289.757</ele>
        <time>2020-09-11T13:18:38Z</time>
      </trkpt>
      <trkpt lat="43.90708" lon="5.18008">
        <ele>289.167</ele>
        <time>2020-09-11T13:18:50Z</time>
      </trkpt>
      <trkpt lat="43.90704" lon="5.18008">
        <ele>287.636</ele>
        <time>2020-09-11T13:19:42Z</time>
      </trkpt>
      <trkpt lat="43.907" lon="5.18012">
        <ele>287.399</ele>
        <time>2020-09-11T13:19:52Z</time>
      </trkpt>
      <trkpt lat="43.90696" lon="5.18014">
        <ele>287.207</ele>
        <time>2020-09-11T13:20:00Z</time>
      </trkpt>
      <trkpt lat="43.90691" lon="5.18013">
        <ele>287.227</ele>
        <time>2020-09-11T13:20:06Z</time>
      </trkpt>
      <trkpt lat="43.90686" lon="5.18011">
        <ele>286.708</ele>
        <time>2020-09-11T13:20:11Z</time>
      </trkpt>
      <trkpt lat="43.90682" lon="5.18008">
        <ele>286.784</ele>
        <time>2020-09-11T13:20:17Z</time>
      </trkpt>
      <trkpt lat="43.90678" lon="5.18005">
        <ele>285.955</ele>
        <time>2020-09-11T13:20:24Z</time>
      </trkpt>
      <trkpt lat="43.90678" lon="5.18011">
        <ele>285.284</ele>
        <time>2020-09-11T13:20:38Z</time>
      </trkpt>
      <trkpt lat="43.90674" lon="5.18008">
        <ele>285.082</ele>
        <time>2020-09-11T13:21:02Z</time>
      </trkpt>
      <trkpt lat="43.90669" lon="5.18008">
        <ele>284.984</ele>
        <time>2020-09-11T13:22:23Z</time>
      </trkpt>
      <trkpt lat="43.90664" lon="5.18011">
        <ele>284.784</ele>
        <time>2020-09-11T13:22:48Z</time>
      </trkpt>
      <trkpt lat="43.90663" lon="5.18018">
        <ele>283.934</ele>
        <time>2020-09-11T13:22:59Z</time>
      </trkpt>
      <trkpt lat="43.9066" lon="5.18023">
        <ele>283.993</ele>
        <time>2020-09-11T13:23:02Z</time>
      </trkpt>
      <trkpt lat="43.90657" lon="5.18031">
        <ele>283.715</ele>
        <time>2020-09-11T13:23:05Z</time>
      </trkpt>
      <trkpt lat="43.90654" lon="5.18038">
        <ele>283.765</ele>
        <time>2020-09-11T13:23:07Z</time>
      </trkpt>
      <trkpt lat="43.90651" lon="5.18043">
        <ele>283.611</ele>
        <time>2020-09-11T13:23:13Z</time>
      </trkpt>
      <trkpt lat="43.90647" lon="5.18037">
        <ele>283.408</ele>
        <time>2020-09-11T13:23:19Z</time>
      </trkpt>
      <trkpt lat="43.90644" lon="5.18031">
        <ele>283.386</ele>
        <time>2020-09-11T13:23:23Z</time>
      </trkpt>
      <trkpt lat="43.90641" lon="5.18024">
        <ele>283.027</ele>
        <time>2020-09-11T13:23:27Z</time>
      </trkpt>
      <trkpt lat="43.90638" lon="5.18019">
        <ele>282.446</ele>
        <time>2020-09-11T13:23:32Z</time>
      </trkpt>
      <trkpt lat="43.90635" lon="5.18016">
        <ele>282.394</ele>
        <time>2020-09-11T13:23:38Z</time>
      </trkpt>
      <trkpt lat="43.90633" lon="5.18009">
        <ele>282.326</ele>
        <time>2020-09-11T13:23:42Z</time>
      </trkpt>
      <trkpt lat="43.9063" lon="5.18004">
        <ele>282.216</ele>
        <time>2020-09-11T13:23:46Z</time>
      </trkpt>
      <trkpt lat="43.90629" lon="5.17998">
        <ele>281.816</ele>
        <time>2020-09-11T13:23:52Z</time>
      </trkpt>
      <trkpt lat="43.90628" lon="5.17991">
        <ele>281.475</ele>
        <time>2020-09-11T13:23:56Z</time>
      </trkpt>
      <trkpt lat="43.90628" lon="5.17984">
        <ele>281.435</ele>
        <time>2020-09-11T13:24:01Z</time>
      </trkpt>
      <trkpt lat="43.90631" lon="5.17977">
        <ele>281.386</ele>
        <time>2020-09-11T13:24:07Z</time>
      </trkpt>
      <trkpt lat="43.90636" lon="5.17974">
        <ele>281.714</ele>
        <time>2020-09-11T13:24:12Z</time>
      </trkpt>
      <trkpt lat="43.9064" lon="5.1797">
        <ele>282.008</ele>
        <time>2020-09-11T13:24:16Z</time>
      </trkpt>
      <trkpt lat="43.90644" lon="5.17967">
        <ele>282.698</ele>
        <time>2020-09-11T13:24:21Z</time>
      </trkpt>
      <trkpt lat="43.90649" lon="5.17968">
        <ele>283.069</ele>
        <time>2020-09-11T13:24:26Z</time>
      </trkpt>
      <trkpt lat="43.90654" lon="5.17968">
        <ele>283.418</ele>
        <time>2020-09-11T13:24:30Z</time>
      </trkpt>
      <trkpt lat="43.90658" lon="5.17966">
        <ele>283.776</ele>
        <time>2020-09-11T13:24:34Z</time>
      </trkpt>
      <trkpt lat="43.90663" lon="5.17961">
        <ele>283.868</ele>
        <time>2020-09-11T13:24:39Z</time>
      </trkpt>
      <trkpt lat="43.90666" lon="5.17957">
        <ele>284.348</ele>
        <time>2020-09-11T13:24:43Z</time>
      </trkpt>
      <trkpt lat="43.90671" lon="5.17954">
        <ele>284.678</ele>
        <time>2020-09-11T13:24:47Z</time>
      </trkpt>
      <trkpt lat="43.90676" lon="5.17953">
        <ele>285.177</ele>
        <time>2020-09-11T13:24:59Z</time>
      </trkpt>
      <trkpt lat="43.90681" lon="5.17951">
        <ele>285.517</ele>
        <time>2020-09-11T13:25:04Z</time>
      </trkpt>
      <trkpt lat="43.90686" lon="5.17948">
        <ele>286.187</ele>
        <time>2020-09-11T13:25:09Z</time>
      </trkpt>
      <trkpt lat="43.90692" lon="5.17945">
        <ele>286.015</ele>
        <time>2020-09-11T13:25:15Z</time>
      </trkpt>
      <trkpt lat="43.90694" lon="5.17939">
        <ele>286.608</ele>
        <time>2020-09-11T13:25:20Z</time>
      </trkpt>
      <trkpt lat="43.90692" lon="5.17931">
        <ele>286.966</ele>
        <time>2020-09-11T13:25:25Z</time>
      </trkpt>
      <trkpt lat="43.90691" lon="5.17924">
        <ele>286.617</ele>
        <time>2020-09-11T13:25:32Z</time>
      </trkpt>
      <trkpt lat="43.90688" lon="5.17918">
        <ele>286.396</ele>
        <time>2020-09-11T13:25:41Z</time>
      </trkpt>
      <trkpt lat="43.90686" lon="5.17912">
        <ele>286.194</ele>
        <time>2020-09-11T13:25:52Z</time>
      </trkpt>
      <trkpt lat="43.90687" lon="5.17903">
        <ele>286.386</ele>
        <time>2020-09-11T13:25:57Z</time>
      </trkpt>
      <trkpt lat="43.90688" lon="5.17897">
        <ele>285.946</ele>
        <time>2020-09-11T13:26:03Z</time>
      </trkpt>
      <trkpt lat="43.90688" lon="5.1789">
        <ele>285.956</ele>
        <time>2020-09-11T13:26:08Z</time>
      </trkpt>
      <trkpt lat="43.90688" lon="5.17883">
        <ele>285.925</ele>
        <time>2020-09-11T13:26:14Z</time>
      </trkpt>
      <trkpt lat="43.90687" lon="5.17877">
        <ele>285.971</ele>
        <time>2020-09-11T13:26:18Z</time>
      </trkpt>
      <trkpt lat="43.90684" lon="5.17869">
        <ele>286.041</ele>
        <time>2020-09-11T13:26:23Z</time>
      </trkpt>
      <trkpt lat="43.90683" lon="5.17862">
        <ele>286.215</ele>
        <time>2020-09-11T13:26:29Z</time>
      </trkpt>
      <trkpt lat="43.90683" lon="5.17855">
        <ele>286.108</ele>
        <time>2020-09-11T13:26:33Z</time>
      </trkpt>
      <trkpt lat="43.90684" lon="5.17849">
        <ele>286.752</ele>
        <time>2020-09-11T13:26:37Z</time>
      </trkpt>
      <trkpt lat="43.90683" lon="5.17841">
        <ele>286.473</ele>
        <time>2020-09-11T13:26:43Z</time>
      </trkpt>
      <trkpt lat="43.90684" lon="5.17834">
        <ele>286.212</ele>
        <time>2020-09-11T13:26:48Z</time>
      </trkpt>
      <trkpt lat="43.90683" lon="5.17827">
        <ele>286.31</ele>
        <time>2020-09-11T13:26:54Z</time>
      </trkpt>
      <trkpt lat="43.90683" lon="5.1782">
        <ele>286.382</ele>
        <time>2020-09-11T13:26:59Z</time>
      </trkpt>
      <trkpt lat="43.90682" lon="5.17814">
        <ele>286.272</ele>
        <time>2020-09-11T13:27:03Z</time>
      </trkpt>
      <trkpt lat="43.9068" lon="5.17808">
        <ele>286.292</ele>
        <time>2020-09-11T13:27:12Z</time>
      </trkpt>
      <trkpt lat="43.9068" lon="5.17802">
        <ele>285.891</ele>
        <time>2020-09-11T13:27:19Z</time>
      </trkpt>
      <trkpt lat="43.90679" lon="5.17794">
        <ele>285.916</ele>
        <time>2020-09-11T13:27:24Z</time>
      </trkpt>
      <trkpt lat="43.90676" lon="5.17789">
        <ele>286.076</ele>
        <time>2020-09-11T13:27:29Z</time>
      </trkpt>
      <trkpt lat="43.90673" lon="5.17784">
        <ele>286.013</ele>
        <time>2020-09-11T13:27:35Z</time>
      </trkpt>
      <trkpt lat="43.90672" lon="5.17777">
        <ele>285.908</ele>
        <time>2020-09-11T13:27:40Z</time>
      </trkpt>
      <trkpt lat="43.90673" lon="5.1777">
        <ele>285.976</ele>
        <time>2020-09-11T13:27:44Z</time>
      </trkpt>
      <trkpt lat="43.90674" lon="5.17763">
        <ele>285.917</ele>
        <time>2020-09-11T13:27:50Z</time>
      </trkpt>
      <trkpt lat="43.90677" lon="5.17756">
        <ele>285.986</ele>
        <time>2020-09-11T13:27:55Z</time>
      </trkpt>
      <trkpt lat="43.90679" lon="5.17749">
        <ele>285.764</ele>
        <time>2020-09-11T13:28:02Z</time>
      </trkpt>
      <trkpt lat="43.90682" lon="5.17742">
        <ele>285.626</ele>
        <time>2020-09-11T13:28:07Z</time>
      </trkpt>
      <trkpt lat="43.90684" lon="5.17737">
        <ele>285.976</ele>
        <time>2020-09-11T13:28:12Z</time>
      </trkpt>
      <trkpt lat="43.90687" lon="5.1773">
        <ele>285.976</ele>
        <time>2020-09-11T13:28:19Z</time>
      </trkpt>
      <trkpt lat="43.90691" lon="5.17726">
        <ele>285.935</ele>
        <time>2020-09-11T13:28:25Z</time>
      </trkpt>
      <trkpt lat="43.90696" lon="5.17724">
        <ele>286.098</ele>
        <time>2020-09-11T13:28:29Z</time>
      </trkpt>
      <trkpt lat="43.907" lon="5.17723">
        <ele>286.115</ele>
        <time>2020-09-11T13:28:33Z</time>
      </trkpt>
      <trkpt lat="43.90705" lon="5.17723">
        <ele>286.526</ele>
        <time>2020-09-11T13:28:38Z</time>
      </trkpt>
      <trkpt lat="43.9071" lon="5.17724">
        <ele>286.808</ele>
        <time>2020-09-11T13:28:44Z</time>
      </trkpt>
      <trkpt lat="43.90714" lon="5.17726">
        <ele>287.014</ele>
        <time>2020-09-11T13:28:48Z</time>
      </trkpt>
      <trkpt lat="43.90719" lon="5.17724">
        <ele>287.375</ele>
        <time>2020-09-11T13:28:57Z</time>
      </trkpt>
      <trkpt lat="43.90722" lon="5.17728">
        <ele>288.044</ele>
        <time>2020-09-11T13:29:25Z</time>
      </trkpt>
      <trkpt lat="43.90728" lon="5.1773">
        <ele>288.352</ele>
        <time>2020-09-11T13:29:29Z</time>
      </trkpt>
      <trkpt lat="43.90734" lon="5.17731">
        <ele>288.534</ele>
        <time>2020-09-11T13:29:33Z</time>
      </trkpt>
      <trkpt lat="43.90739" lon="5.17734">
        <ele>288.924</ele>
        <time>2020-09-11T13:29:37Z</time>
      </trkpt>
      <trkpt lat="43.90744" lon="5.17736">
        <ele>289.854</ele>
        <time>2020-09-11T13:29:43Z</time>
      </trkpt>
      <trkpt lat="43.90749" lon="5.17738">
        <ele>289.693</ele>
        <time>2020-09-11T13:29:47Z</time>
      </trkpt>
      <trkpt lat="43.90753" lon="5.17741">
        <ele>290.073</ele>
        <time>2020-09-11T13:29:51Z</time>
      </trkpt>
      <trkpt lat="43.90759" lon="5.17741">
        <ele>290.385</ele>
        <time>2020-09-11T13:29:57Z</time>
      </trkpt>
      <trkpt lat="43.90763" lon="5.17739">
        <ele>290.913</ele>
        <time>2020-09-11T13:30:03Z</time>
      </trkpt>
      <trkpt lat="43.90768" lon="5.17739">
        <ele>291.408</ele>
        <time>2020-09-11T13:30:08Z</time>
      </trkpt>
      <trkpt lat="43.90773" lon="5.17739">
        <ele>291.512</ele>
        <time>2020-09-11T13:30:14Z</time>
      </trkpt>
      <trkpt lat="43.90777" lon="5.17743">
        <ele>292.263</ele>
        <time>2020-09-11T13:30:20Z</time>
      </trkpt>
      <trkpt lat="43.90781" lon="5.17747">
        <ele>292.982</ele>
        <time>2020-09-11T13:30:26Z</time>
      </trkpt>
      <trkpt lat="43.90785" lon="5.17745">
        <ele>293.02</ele>
        <time>2020-09-11T13:30:31Z</time>
      </trkpt>
      <trkpt lat="43.9079" lon="5.17745">
        <ele>293.392</ele>
        <time>2020-09-11T13:30:37Z</time>
      </trkpt>
      <trkpt lat="43.90795" lon="5.17744">
        <ele>293.522</ele>
        <time>2020-09-11T13:30:42Z</time>
      </trkpt>
      <trkpt lat="43.908" lon="5.17745">
        <ele>293.692</ele>
        <time>2020-09-11T13:30:48Z</time>
      </trkpt>
      <trkpt lat="43.90805" lon="5.17745">
        <ele>294.081</ele>
        <time>2020-09-11T13:30:53Z</time>
      </trkpt>
      <trkpt lat="43.9081" lon="5.17743">
        <ele>294.029</ele>
        <time>2020-09-11T13:30:58Z</time>
      </trkpt>
      <trkpt lat="43.90815" lon="5.17742">
        <ele>294</ele>
        <time>2020-09-11T13:31:03Z</time>
      </trkpt>
      <trkpt lat="43.90819" lon="5.17744">
        <ele>294.72</ele>
        <time>2020-09-11T13:31:08Z</time>
      </trkpt>
      <trkpt lat="43.90824" lon="5.17747">
        <ele>294.808</ele>
        <time>2020-09-11T13:31:13Z</time>
      </trkpt>
      <trkpt lat="43.90829" lon="5.17749">
        <ele>294.457</ele>
        <time>2020-09-11T13:31:18Z</time>
      </trkpt>
      <trkpt lat="43.90834" lon="5.17749">
        <ele>294.388</ele>
        <time>2020-09-11T13:31:24Z</time>
      </trkpt>
      <trkpt lat="43.90839" lon="5.1775">
        <ele>293.997</ele>
        <time>2020-09-11T13:31:30Z</time>
      </trkpt>
      <trkpt lat="43.90843" lon="5.17753">
        <ele>294.015</ele>
        <time>2020-09-11T13:31:36Z</time>
      </trkpt>
      <trkpt lat="43.90846" lon="5.17758">
        <ele>294.277</ele>
        <time>2020-09-11T13:32:01Z</time>
      </trkpt>
      <trkpt lat="43.9085" lon="5.17756">
        <ele>292.657</ele>
        <time>2020-09-11T13:32:57Z</time>
      </trkpt>
      <trkpt lat="43.90855" lon="5.17755">
        <ele>291.947</ele>
        <time>2020-09-11T13:33:01Z</time>
      </trkpt>
      <trkpt lat="43.9086" lon="5.17755">
        <ele>291.726</ele>
        <time>2020-09-11T13:33:05Z</time>
      </trkpt>
      <trkpt lat="43.90865" lon="5.17757">
        <ele>291.379</ele>
        <time>2020-09-11T13:33:09Z</time>
      </trkpt>
      <trkpt lat="43.90871" lon="5.17761">
        <ele>291.105</ele>
        <time>2020-09-11T13:33:14Z</time>
      </trkpt>
      <trkpt lat="43.90875" lon="5.17765">
        <ele>290.525</ele>
        <time>2020-09-11T13:33:19Z</time>
      </trkpt>
      <trkpt lat="43.9088" lon="5.17766">
        <ele>289.908</ele>
        <time>2020-09-11T13:33:26Z</time>
      </trkpt>
      <trkpt lat="43.90885" lon="5.17765">
        <ele>289.352</ele>
        <time>2020-09-11T13:33:31Z</time>
      </trkpt>
      <trkpt lat="43.9089" lon="5.17764">
        <ele>288.983</ele>
        <time>2020-09-11T13:33:36Z</time>
      </trkpt>
      <trkpt lat="43.90895" lon="5.17763">
        <ele>288.792</ele>
        <time>2020-09-11T13:33:41Z</time>
      </trkpt>
      <trkpt lat="43.909" lon="5.17761">
        <ele>288.63</ele>
        <time>2020-09-11T13:33:47Z</time>
      </trkpt>
      <trkpt lat="43.90905" lon="5.17763">
        <ele>288.372</ele>
        <time>2020-09-11T13:33:53Z</time>
      </trkpt>
      <trkpt lat="43.9091" lon="5.17765">
        <ele>287.852</ele>
        <time>2020-09-11T13:33:58Z</time>
      </trkpt>
      <trkpt lat="43.90915" lon="5.17766">
        <ele>287.742</ele>
        <time>2020-09-11T13:34:04Z</time>
      </trkpt>
      <trkpt lat="43.9092" lon="5.17765">
        <ele>287.361</ele>
        <time>2020-09-11T13:34:09Z</time>
      </trkpt>
      <trkpt lat="43.90926" lon="5.17764">
        <ele>287.135</ele>
        <time>2020-09-11T13:34:14Z</time>
      </trkpt>
      <trkpt lat="43.90931" lon="5.17764">
        <ele>286.486</ele>
        <time>2020-09-11T13:34:20Z</time>
      </trkpt>
      <trkpt lat="43.90936" lon="5.17764">
        <ele>285.914</ele>
        <time>2020-09-11T13:34:26Z</time>
      </trkpt>
      <trkpt lat="43.90943" lon="5.17764">
        <ele>285.308</ele>
        <time>2020-09-11T13:34:33Z</time>
      </trkpt>
      <trkpt lat="43.90948" lon="5.17764">
        <ele>284.858</ele>
        <time>2020-09-11T13:34:39Z</time>
      </trkpt>
      <trkpt lat="43.90953" lon="5.17764">
        <ele>284.369</ele>
        <time>2020-09-11T13:34:45Z</time>
      </trkpt>
      <trkpt lat="43.90958" lon="5.17761">
        <ele>283.678</ele>
        <time>2020-09-11T13:34:53Z</time>
      </trkpt>
      <trkpt lat="43.90963" lon="5.17758">
        <ele>283.076</ele>
        <time>2020-09-11T13:35:00Z</time>
      </trkpt>
      <trkpt lat="43.90958" lon="5.17757">
        <ele>282.338</ele>
        <time>2020-09-11T13:35:07Z</time>
      </trkpt>
      <trkpt lat="43.90953" lon="5.17762">
        <ele>281.918</ele>
        <time>2020-09-11T13:35:12Z</time>
      </trkpt>
      <trkpt lat="43.90949" lon="5.17765">
        <ele>281.478</ele>
        <time>2020-09-11T13:35:19Z</time>
      </trkpt>
      <trkpt lat="43.90943" lon="5.17764">
        <ele>280.527</ele>
        <time>2020-09-11T13:35:25Z</time>
      </trkpt>
      <trkpt lat="43.9094" lon="5.17759">
        <ele>279.739</ele>
        <time>2020-09-11T13:35:33Z</time>
      </trkpt>
      <trkpt lat="43.90943" lon="5.17754">
        <ele>279.201</ele>
        <time>2020-09-11T13:35:38Z</time>
      </trkpt>
      <trkpt lat="43.90946" lon="5.1775">
        <ele>278.621</ele>
        <time>2020-09-11T13:35:42Z</time>
      </trkpt>
      <trkpt lat="43.90951" lon="5.17748">
        <ele>278.108</ele>
        <time>2020-09-11T13:35:48Z</time>
      </trkpt>
      <trkpt lat="43.90956" lon="5.17747">
        <ele>277.728</ele>
        <time>2020-09-11T13:35:52Z</time>
      </trkpt>
      <trkpt lat="43.90961" lon="5.17747">
        <ele>277.139</ele>
        <time>2020-09-11T13:35:59Z</time>
      </trkpt>
      <trkpt lat="43.90966" lon="5.17743">
        <ele>276.488</ele>
        <time>2020-09-11T13:36:04Z</time>
      </trkpt>
      <trkpt lat="43.90969" lon="5.17739">
        <ele>275.826</ele>
        <time>2020-09-11T13:36:12Z</time>
      </trkpt>
      <trkpt lat="43.90974" lon="5.17737">
        <ele>274.928</ele>
        <time>2020-09-11T13:36:19Z</time>
      </trkpt>
      <trkpt lat="43.90978" lon="5.17733">
        <ele>274.388</ele>
        <time>2020-09-11T13:36:26Z</time>
      </trkpt>
      <trkpt lat="43.90981" lon="5.17728">
        <ele>273.538</ele>
        <time>2020-09-11T13:36:31Z</time>
      </trkpt>
      <trkpt lat="43.90985" lon="5.17726">
        <ele>272.837</ele>
        <time>2020-09-11T13:36:36Z</time>
      </trkpt>
      <trkpt lat="43.9099" lon="5.17726">
        <ele>272.456</ele>
        <time>2020-09-11T13:36:41Z</time>
      </trkpt>
      <trkpt lat="43.90994" lon="5.17725">
        <ele>271.959</ele>
        <time>2020-09-11T13:36:47Z</time>
      </trkpt>
      <trkpt lat="43.90998" lon="5.17722">
        <ele>271.314</ele>
        <time>2020-09-11T13:36:52Z</time>
      </trkpt>
      <trkpt lat="43.91002" lon="5.17718">
        <ele>270.708</ele>
        <time>2020-09-11T13:36:58Z</time>
      </trkpt>
      <trkpt lat="43.91006" lon="5.17714">
        <ele>270.16</ele>
        <time>2020-09-11T13:37:04Z</time>
      </trkpt>
      <trkpt lat="43.91009" lon="5.17708">
        <ele>269.651</ele>
        <time>2020-09-11T13:37:09Z</time>
      </trkpt>
      <trkpt lat="43.91011" lon="5.17702">
        <ele>268.79</ele>
        <time>2020-09-11T13:37:18Z</time>
      </trkpt>
      <trkpt lat="43.91014" lon="5.17697">
        <ele>267.598</ele>
        <time>2020-09-11T13:37:32Z</time>
      </trkpt>
      <trkpt lat="43.91018" lon="5.17692">
        <ele>267.18</ele>
        <time>2020-09-11T13:37:38Z</time>
      </trkpt>
      <trkpt lat="43.91022" lon="5.17688">
        <ele>266.51</ele>
        <time>2020-09-11T13:37:42Z</time>
      </trkpt>
      <trkpt lat="43.91026" lon="5.17683">
        <ele>266.44</ele>
        <time>2020-09-11T13:37:48Z</time>
      </trkpt>
      <trkpt lat="43.9103" lon="5.17676">
        <ele>265.989</ele>
        <time>2020-09-11T13:37:55Z</time>
      </trkpt>
      <trkpt lat="43.91033" lon="5.17671">
        <ele>265.889</ele>
        <time>2020-09-11T13:38:01Z</time>
      </trkpt>
      <trkpt lat="43.91038" lon="5.17668">
        <ele>265.306</ele>
        <time>2020-09-11T13:38:06Z</time>
      </trkpt>
      <trkpt lat="43.91041" lon="5.17663">
        <ele>265.126</ele>
        <time>2020-09-11T13:38:15Z</time>
      </trkpt>
      <trkpt lat="43.91044" lon="5.17657">
        <ele>264.708</ele>
        <time>2020-09-11T13:38:22Z</time>
      </trkpt>
      <trkpt lat="43.91047" lon="5.17651">
        <ele>264.343</ele>
        <time>2020-09-11T13:38:27Z</time>
      </trkpt>
      <trkpt lat="43.9105" lon="5.17647">
        <ele>263.874</ele>
        <time>2020-09-11T13:38:32Z</time>
      </trkpt>
      <trkpt lat="43.91054" lon="5.17643">
        <ele>263.633</ele>
        <time>2020-09-11T13:38:37Z</time>
      </trkpt>
      <trkpt lat="43.91058" lon="5.17639">
        <ele>262.891</ele>
        <time>2020-09-11T13:38:43Z</time>
      </trkpt>
      <trkpt lat="43.91061" lon="5.17634">
        <ele>262.123</ele>
        <time>2020-09-11T13:38:49Z</time>
      </trkpt>
      <trkpt lat="43.91066" lon="5.17629">
        <ele>261.363</ele>
        <time>2020-09-11T13:38:54Z</time>
      </trkpt>
      <trkpt lat="43.9107" lon="5.17625">
        <ele>261.383</ele>
        <time>2020-09-11T13:38:59Z</time>
      </trkpt>
      <trkpt lat="43.91073" lon="5.1762">
        <ele>260.992</ele>
        <time>2020-09-11T13:39:04Z</time>
      </trkpt>
      <trkpt lat="43.91077" lon="5.17615">
        <ele>260.135</ele>
        <time>2020-09-11T13:39:11Z</time>
      </trkpt>
      <trkpt lat="43.91081" lon="5.17613">
        <ele>260.086</ele>
        <time>2020-09-11T13:39:16Z</time>
      </trkpt>
      <trkpt lat="43.91085" lon="5.17609">
        <ele>259.514</ele>
        <time>2020-09-11T13:39:21Z</time>
      </trkpt>
      <trkpt lat="43.91089" lon="5.17604">
        <ele>258.808</ele>
        <time>2020-09-11T13:39:28Z</time>
      </trkpt>
      <trkpt lat="43.91093" lon="5.176">
        <ele>258.128</ele>
        <time>2020-09-11T13:39:34Z</time>
      </trkpt>
      <trkpt lat="43.91098" lon="5.17598">
        <ele>257.259</ele>
        <time>2020-09-11T13:39:40Z</time>
      </trkpt>
      <trkpt lat="43.91102" lon="5.17595">
        <ele>255.668</ele>
        <time>2020-09-11T13:39:50Z</time>
      </trkpt>
      <trkpt lat="43.91106" lon="5.17592">
        <ele>254.736</ele>
        <time>2020-09-11T13:40:02Z</time>
      </trkpt>
      <trkpt lat="43.9111" lon="5.17593">
        <ele>255.368</ele>
        <time>2020-09-11T13:40:16Z</time>
      </trkpt>
      <trkpt lat="43.91115" lon="5.17593">
        <ele>255.158</ele>
        <time>2020-09-11T13:40:21Z</time>
      </trkpt>
      <trkpt lat="43.91121" lon="5.17592">
        <ele>255.228</ele>
        <time>2020-09-11T13:40:28Z</time>
      </trkpt>
      <trkpt lat="43.91126" lon="5.17589">
        <ele>256.027</ele>
        <time>2020-09-11T13:40:39Z</time>
      </trkpt>
      <trkpt lat="43.91131" lon="5.17589">
        <ele>256.219</ele>
        <time>2020-09-11T13:40:45Z</time>
      </trkpt>
      <trkpt lat="43.91136" lon="5.17588">
        <ele>256.609</ele>
        <time>2020-09-11T13:40:50Z</time>
      </trkpt>
      <trkpt lat="43.9114" lon="5.17584">
        <ele>256.719</ele>
        <time>2020-09-11T13:40:53Z</time>
      </trkpt>
      <trkpt lat="43.91144" lon="5.17578">
        <ele>257.008</ele>
        <time>2020-09-11T13:40:57Z</time>
      </trkpt>
      <trkpt lat="43.91147" lon="5.17574">
        <ele>257.356</ele>
        <time>2020-09-11T13:41:00Z</time>
      </trkpt>
      <trkpt lat="43.91152" lon="5.1757">
        <ele>257.517</ele>
        <time>2020-09-11T13:41:05Z</time>
      </trkpt>
      <trkpt lat="43.91157" lon="5.17568">
        <ele>258.156</ele>
        <time>2020-09-11T13:41:09Z</time>
      </trkpt>
      <trkpt lat="43.91163" lon="5.17568">
        <ele>258.244</ele>
        <time>2020-09-11T13:41:13Z</time>
      </trkpt>
      <trkpt lat="43.91168" lon="5.17566">
        <ele>259.096</ele>
        <time>2020-09-11T13:41:17Z</time>
      </trkpt>
      <trkpt lat="43.91173" lon="5.17564">
        <ele>259.446</ele>
        <time>2020-09-11T13:41:21Z</time>
      </trkpt>
      <trkpt lat="43.91177" lon="5.17566">
        <ele>259.916</ele>
        <time>2020-09-11T13:41:29Z</time>
      </trkpt>
      <trkpt lat="43.91183" lon="5.17566">
        <ele>260.185</ele>
        <time>2020-09-11T13:41:33Z</time>
      </trkpt>
      <trkpt lat="43.91187" lon="5.17565">
        <ele>260.517</ele>
        <time>2020-09-11T13:41:38Z</time>
      </trkpt>
      <trkpt lat="43.91192" lon="5.17563">
        <ele>260.887</ele>
        <time>2020-09-11T13:41:41Z</time>
      </trkpt>
      <trkpt lat="43.91197" lon="5.17563">
        <ele>261.015</ele>
        <time>2020-09-11T13:41:45Z</time>
      </trkpt>
      <trkpt lat="43.91203" lon="5.17563">
        <ele>261.208</ele>
        <time>2020-09-11T13:41:50Z</time>
      </trkpt>
      <trkpt lat="43.91207" lon="5.17562">
        <ele>261.666</ele>
        <time>2020-09-11T13:41:54Z</time>
      </trkpt>
      <trkpt lat="43.91213" lon="5.1756">
        <ele>261.237</ele>
        <time>2020-09-11T13:41:57Z</time>
      </trkpt>
      <trkpt lat="43.91218" lon="5.17559">
        <ele>261.466</ele>
        <time>2020-09-11T13:42:03Z</time>
      </trkpt>
      <trkpt lat="43.91222" lon="5.17561">
        <ele>261.214</ele>
        <time>2020-09-11T13:42:07Z</time>
      </trkpt>
      <trkpt lat="43.91227" lon="5.17564">
        <ele>261.246</ele>
        <time>2020-09-11T13:42:11Z</time>
      </trkpt>
      <trkpt lat="43.91232" lon="5.17567">
        <ele>261.366</ele>
        <time>2020-09-11T13:42:16Z</time>
      </trkpt>
      <trkpt lat="43.91237" lon="5.1757">
        <ele>261.416</ele>
        <time>2020-09-11T13:42:20Z</time>
      </trkpt>
      <trkpt lat="43.91241" lon="5.17572">
        <ele>261.535</ele>
        <time>2020-09-11T13:42:24Z</time>
      </trkpt>
      <trkpt lat="43.91246" lon="5.17572">
        <ele>261.189</ele>
        <time>2020-09-11T13:42:29Z</time>
      </trkpt>
      <trkpt lat="43.9125" lon="5.17568">
        <ele>260.206</ele>
        <time>2020-09-11T13:42:41Z</time>
      </trkpt>
      <trkpt lat="43.91252" lon="5.17562">
        <ele>262.326</ele>
        <time>2020-09-11T13:42:50Z</time>
      </trkpt>
      <trkpt lat="43.91257" lon="5.17564">
        <ele>262.608</ele>
        <time>2020-09-11T13:43:06Z</time>
      </trkpt>
      <trkpt lat="43.91261" lon="5.17563">
        <ele>262.913</ele>
        <time>2020-09-11T13:43:11Z</time>
      </trkpt>
      <trkpt lat="43.91267" lon="5.17562">
        <ele>263.384</ele>
        <time>2020-09-11T13:43:16Z</time>
      </trkpt>
      <trkpt lat="43.91272" lon="5.17562">
        <ele>263.493</ele>
        <time>2020-09-11T13:43:19Z</time>
      </trkpt>
      <trkpt lat="43.91277" lon="5.17563">
        <ele>263.911</ele>
        <time>2020-09-11T13:43:24Z</time>
      </trkpt>
      <trkpt lat="43.91282" lon="5.17564">
        <ele>264.053</ele>
        <time>2020-09-11T13:43:27Z</time>
      </trkpt>
      <trkpt lat="43.91287" lon="5.17567">
        <ele>264.063</ele>
        <time>2020-09-11T13:43:32Z</time>
      </trkpt>
      <trkpt lat="43.91291" lon="5.17573">
        <ele>264.063</ele>
        <time>2020-09-11T13:43:35Z</time>
      </trkpt>
      <trkpt lat="43.91293" lon="5.17579">
        <ele>263.512</ele>
        <time>2020-09-11T13:43:39Z</time>
      </trkpt>
      <trkpt lat="43.91297" lon="5.17583">
        <ele>262.993</ele>
        <time>2020-09-11T13:43:45Z</time>
      </trkpt>
      <trkpt lat="43.91301" lon="5.17584">
        <ele>261.765</ele>
        <time>2020-09-11T13:43:53Z</time>
      </trkpt>
      <trkpt lat="43.91306" lon="5.17586">
        <ele>262.321</ele>
        <time>2020-09-11T13:44:01Z</time>
      </trkpt>
      <trkpt lat="43.91311" lon="5.17588">
        <ele>263.308</ele>
        <time>2020-09-11T13:44:10Z</time>
      </trkpt>
      <trkpt lat="43.91316" lon="5.17588">
        <ele>263.794</ele>
        <time>2020-09-11T13:44:15Z</time>
      </trkpt>
      <trkpt lat="43.9132" lon="5.17592">
        <ele>264.265</ele>
        <time>2020-09-11T13:44:20Z</time>
      </trkpt>
      <trkpt lat="43.91323" lon="5.17596">
        <ele>264.384</ele>
        <time>2020-09-11T13:44:24Z</time>
      </trkpt>
      <trkpt lat="43.91327" lon="5.17601">
        <ele>264.832</ele>
        <time>2020-09-11T13:44:27Z</time>
      </trkpt>
      <trkpt lat="43.91332" lon="5.17603">
        <ele>264.764</ele>
        <time>2020-09-11T13:44:33Z</time>
      </trkpt>
      <trkpt lat="43.91334" lon="5.17609">
        <ele>266.154</ele>
        <time>2020-09-11T13:45:08Z</time>
      </trkpt>
      <trkpt lat="43.91338" lon="5.17612">
        <ele>266.224</ele>
        <time>2020-09-11T13:45:13Z</time>
      </trkpt>
      <trkpt lat="43.91343" lon="5.17615">
        <ele>266.373</ele>
        <time>2020-09-11T13:45:18Z</time>
      </trkpt>
      <trkpt lat="43.91347" lon="5.17618">
        <ele>266.731</ele>
        <time>2020-09-11T13:45:22Z</time>
      </trkpt>
      <trkpt lat="43.91351" lon="5.17621">
        <ele>266.861</ele>
        <time>2020-09-11T13:45:27Z</time>
      </trkpt>
      <trkpt lat="43.91356" lon="5.17624">
        <ele>267.107</ele>
        <time>2020-09-11T13:45:31Z</time>
      </trkpt>
      <trkpt lat="43.91361" lon="5.17626">
        <ele>267.208</ele>
        <time>2020-09-11T13:45:35Z</time>
      </trkpt>
      <trkpt lat="43.91367" lon="5.17628">
        <ele>267.588</ele>
        <time>2020-09-11T13:45:41Z</time>
      </trkpt>
      <trkpt lat="43.9137" lon="5.17632">
        <ele>267.929</ele>
        <time>2020-09-11T13:45:46Z</time>
      </trkpt>
      <trkpt lat="43.91375" lon="5.17636">
        <ele>268.198</ele>
        <time>2020-09-11T13:45:51Z</time>
      </trkpt>
      <trkpt lat="43.91378" lon="5.1764">
        <ele>268.026</ele>
        <time>2020-09-11T13:45:55Z</time>
      </trkpt>
      <trkpt lat="43.91383" lon="5.17643">
        <ele>268.378</ele>
        <time>2020-09-11T13:45:59Z</time>
      </trkpt>
      <trkpt lat="43.91387" lon="5.17646">
        <ele>268.598</ele>
        <time>2020-09-11T13:46:04Z</time>
      </trkpt>
      <trkpt lat="43.9139" lon="5.17651">
        <ele>268.498</ele>
        <time>2020-09-11T13:46:09Z</time>
      </trkpt>
      <trkpt lat="43.91395" lon="5.17654">
        <ele>268.897</ele>
        <time>2020-09-11T13:46:13Z</time>
      </trkpt>
      <trkpt lat="43.914" lon="5.17657">
        <ele>269.111</ele>
        <time>2020-09-11T13:46:18Z</time>
      </trkpt>
      <trkpt lat="43.91404" lon="5.17658">
        <ele>269.221</ele>
        <time>2020-09-11T13:46:23Z</time>
      </trkpt>
      <trkpt lat="43.91409" lon="5.17658">
        <ele>269.203</ele>
        <time>2020-09-11T13:46:29Z</time>
      </trkpt>
      <trkpt lat="43.91414" lon="5.17657">
        <ele>269.808</ele>
        <time>2020-09-11T13:46:34Z</time>
      </trkpt>
      <trkpt lat="43.91419" lon="5.1766">
        <ele>270.536</ele>
        <time>2020-09-11T13:46:40Z</time>
      </trkpt>
      <trkpt lat="43.91425" lon="5.17662">
        <ele>271.677</ele>
        <time>2020-09-11T13:46:46Z</time>
      </trkpt>
      <trkpt lat="43.9143" lon="5.17663">
        <ele>272.316</ele>
        <time>2020-09-11T13:46:52Z</time>
      </trkpt>
      <trkpt lat="43.91435" lon="5.17664">
        <ele>272.844</ele>
        <time>2020-09-11T13:46:58Z</time>
      </trkpt>
      <trkpt lat="43.9144" lon="5.17668">
        <ele>273.026</ele>
        <time>2020-09-11T13:47:05Z</time>
      </trkpt>
      <trkpt lat="43.91446" lon="5.17669">
        <ele>272.926</ele>
        <time>2020-09-11T13:47:12Z</time>
      </trkpt>
      <trkpt lat="43.9145" lon="5.17674">
        <ele>272.186</ele>
        <time>2020-09-11T13:47:17Z</time>
      </trkpt>
      <trkpt lat="43.91454" lon="5.17679">
        <ele>271.425</ele>
        <time>2020-09-11T13:47:23Z</time>
      </trkpt>
      <trkpt lat="43.91457" lon="5.17684">
        <ele>271.563</ele>
        <time>2020-09-11T13:47:28Z</time>
      </trkpt>
      <trkpt lat="43.91461" lon="5.17688">
        <ele>271.344</ele>
        <time>2020-09-11T13:47:34Z</time>
      </trkpt>
      <trkpt lat="43.91464" lon="5.17693">
        <ele>271.718</ele>
        <time>2020-09-11T13:47:56Z</time>
      </trkpt>
      <trkpt lat="43.91458" lon="5.17694">
        <ele>273.208</ele>
        <time>2020-09-11T13:48:27Z</time>
      </trkpt>
      <trkpt lat="43.91453" lon="5.17694">
        <ele>273.271</ele>
        <time>2020-09-11T13:48:31Z</time>
      </trkpt>
      <trkpt lat="43.91449" lon="5.17698">
        <ele>273.412</ele>
        <time>2020-09-11T13:48:47Z</time>
      </trkpt>
      <trkpt lat="43.91455" lon="5.17699">
        <ele>271.521</ele>
        <time>2020-09-11T13:49:30Z</time>
      </trkpt>
      <trkpt lat="43.91458" lon="5.17694">
        <ele>271.689</ele>
        <time>2020-09-11T13:49:35Z</time>
      </trkpt>
      <trkpt lat="43.91462" lon="5.1769">
        <ele>271.941</ele>
        <time>2020-09-11T13:49:53Z</time>
      </trkpt>
      <trkpt lat="43.91465" lon="5.17695">
        <ele>271.731</ele>
        <time>2020-09-11T13:50:15Z</time>
      </trkpt>
      <trkpt lat="43.91468" lon="5.177">
        <ele>272.461</ele>
        <time>2020-09-11T13:50:23Z</time>
      </trkpt>
      <trkpt lat="43.91472" lon="5.17704">
        <ele>272.57</ele>
        <time>2020-09-11T13:50:28Z</time>
      </trkpt>
      <trkpt lat="43.91478" lon="5.17708">
        <ele>273.041</ele>
        <time>2020-09-11T13:50:32Z</time>
      </trkpt>
      <trkpt lat="43.91482" lon="5.17711">
        <ele>273.181</ele>
        <time>2020-09-11T13:50:34Z</time>
      </trkpt>
      <trkpt lat="43.91487" lon="5.17715">
        <ele>272.809</ele>
        <time>2020-09-11T13:50:37Z</time>
      </trkpt>
      <trkpt lat="43.91491" lon="5.1772">
        <ele>273.008</ele>
        <time>2020-09-11T13:50:42Z</time>
      </trkpt>
      <trkpt lat="43.91496" lon="5.17724">
        <ele>273.759</ele>
        <time>2020-09-11T13:50:46Z</time>
      </trkpt>
      <trkpt lat="43.91501" lon="5.17727">
        <ele>273.93</ele>
        <time>2020-09-11T13:50:51Z</time>
      </trkpt>
      <trkpt lat="43.91504" lon="5.17732">
        <ele>274.539</ele>
        <time>2020-09-11T13:50:56Z</time>
      </trkpt>
      <trkpt lat="43.91507" lon="5.17737">
        <ele>274.977</ele>
        <time>2020-09-11T13:51:00Z</time>
      </trkpt>
      <trkpt lat="43.9151" lon="5.17744">
        <ele>274.939</ele>
        <time>2020-09-11T13:51:05Z</time>
      </trkpt>
      <trkpt lat="43.91514" lon="5.17748">
        <ele>274.989</ele>
        <time>2020-09-11T13:51:08Z</time>
      </trkpt>
      <trkpt lat="43.91518" lon="5.17754">
        <ele>275.349</ele>
        <time>2020-09-11T13:51:13Z</time>
      </trkpt>
      <trkpt lat="43.91522" lon="5.17759">
        <ele>275.868</ele>
        <time>2020-09-11T13:51:17Z</time>
      </trkpt>
      <trkpt lat="43.91526" lon="5.17763">
        <ele>275.918</ele>
        <time>2020-09-11T13:51:22Z</time>
      </trkpt>
      <trkpt lat="43.9153" lon="5.17766">
        <ele>275.898</ele>
        <time>2020-09-11T13:51:27Z</time>
      </trkpt>
      <trkpt lat="43.91535" lon="5.17768">
        <ele>276.117</ele>
        <time>2020-09-11T13:51:31Z</time>
      </trkpt>
      <trkpt lat="43.91539" lon="5.17772">
        <ele>276.608</ele>
        <time>2020-09-11T13:51:36Z</time>
      </trkpt>
      <trkpt lat="43.91543" lon="5.17776">
        <ele>276.796</ele>
        <time>2020-09-11T13:51:41Z</time>
      </trkpt>
      <trkpt lat="43.91547" lon="5.17781">
        <ele>276.627</ele>
        <time>2020-09-11T13:51:45Z</time>
      </trkpt>
      <trkpt lat="43.9155" lon="5.17786">
        <ele>276.636</ele>
        <time>2020-09-11T13:51:48Z</time>
      </trkpt>
      <trkpt lat="43.91554" lon="5.17791">
        <ele>276.224</ele>
        <time>2020-09-11T13:51:53Z</time>
      </trkpt>
      <trkpt lat="43.91559" lon="5.17795">
        <ele>276.776</ele>
        <time>2020-09-11T13:51:58Z</time>
      </trkpt>
      <trkpt lat="43.91563" lon="5.17798">
        <ele>276.686</ele>
        <time>2020-09-11T13:52:02Z</time>
      </trkpt>
      <trkpt lat="43.91568" lon="5.17799">
        <ele>277.046</ele>
        <time>2020-09-11T13:52:07Z</time>
      </trkpt>
      <trkpt lat="43.91574" lon="5.178">
        <ele>277.355</ele>
        <time>2020-09-11T13:52:12Z</time>
      </trkpt>
      <trkpt lat="43.91578" lon="5.17804">
        <ele>277.388</ele>
        <time>2020-09-11T13:52:16Z</time>
      </trkpt>
      <trkpt lat="43.91582" lon="5.1781">
        <ele>277.424</ele>
        <time>2020-09-11T13:52:22Z</time>
      </trkpt>
      <trkpt lat="43.91585" lon="5.17815">
        <ele>278.126</ele>
        <time>2020-09-11T13:52:26Z</time>
      </trkpt>
      <trkpt lat="43.91589" lon="5.17819">
        <ele>277.808</ele>
        <time>2020-09-11T13:52:31Z</time>
      </trkpt>
      <trkpt lat="43.91593" lon="5.17822">
        <ele>278.223</ele>
        <time>2020-09-11T13:52:35Z</time>
      </trkpt>
      <trkpt lat="43.91593" lon="5.1783">
        <ele>278.894</ele>
        <time>2020-09-11T13:52:41Z</time>
      </trkpt>
      <trkpt lat="43.91592" lon="5.17837">
        <ele>279.943</ele>
        <time>2020-09-11T13:52:46Z</time>
      </trkpt>
      <trkpt lat="43.91596" lon="5.17841">
        <ele>279.921</ele>
        <time>2020-09-11T13:53:00Z</time>
      </trkpt>
      <trkpt lat="43.91599" lon="5.17846">
        <ele>280.243</ele>
        <time>2020-09-11T13:53:04Z</time>
      </trkpt>
      <trkpt lat="43.916" lon="5.17853">
        <ele>281.043</ele>
        <time>2020-09-11T13:53:08Z</time>
      </trkpt>
      <trkpt lat="43.91602" lon="5.1786">
        <ele>281.233</ele>
        <time>2020-09-11T13:53:13Z</time>
      </trkpt>
      <trkpt lat="43.91605" lon="5.17866">
        <ele>281.712</ele>
        <time>2020-09-11T13:53:18Z</time>
      </trkpt>
      <trkpt lat="43.91606" lon="5.17872">
        <ele>281.552</ele>
        <time>2020-09-11T13:54:57Z</time>
      </trkpt>
      <trkpt lat="43.91609" lon="5.17878">
        <ele>281.353</ele>
        <time>2020-09-11T13:55:10Z</time>
      </trkpt>
      <trkpt lat="43.91611" lon="5.17887">
        <ele>281.008</ele>
        <time>2020-09-11T13:55:16Z</time>
      </trkpt>
      <trkpt lat="43.91613" lon="5.17894">
        <ele>281.408</ele>
        <time>2020-09-11T13:55:19Z</time>
      </trkpt>
      <trkpt lat="43.91615" lon="5.17901">
        <ele>282.03</ele>
        <time>2020-09-11T13:55:23Z</time>
      </trkpt>
      <trkpt lat="43.91618" lon="5.17907">
        <ele>282.081</ele>
        <time>2020-09-11T13:55:30Z</time>
      </trkpt>
      <trkpt lat="43.91619" lon="5.17914">
        <ele>281.93</ele>
        <time>2020-09-11T13:55:34Z</time>
      </trkpt>
      <trkpt lat="43.91621" lon="5.17921">
        <ele>282.098</ele>
        <time>2020-09-11T13:55:38Z</time>
      </trkpt>
      <trkpt lat="43.91624" lon="5.17927">
        <ele>282.08</ele>
        <time>2020-09-11T13:55:42Z</time>
      </trkpt>
      <trkpt lat="43.91627" lon="5.17933">
        <ele>282.01</ele>
        <time>2020-09-11T13:55:48Z</time>
      </trkpt>
      <trkpt lat="43.9163" lon="5.17939">
        <ele>283.26</ele>
        <time>2020-09-11T13:55:56Z</time>
      </trkpt>
      <trkpt lat="43.91633" lon="5.17944">
        <ele>283.659</ele>
        <time>2020-09-11T13:56:01Z</time>
      </trkpt>
      <trkpt lat="43.91636" lon="5.17949">
        <ele>283.814</ele>
        <time>2020-09-11T13:56:06Z</time>
      </trkpt>
      <trkpt lat="43.91638" lon="5.17955">
        <ele>284.454</ele>
        <time>2020-09-11T13:56:12Z</time>
      </trkpt>
      <trkpt lat="43.91635" lon="5.1796">
        <ele>284.509</ele>
        <time>2020-09-11T13:56:37Z</time>
      </trkpt>
      <trkpt lat="43.91639" lon="5.17962">
        <ele>283.808</ele>
        <time>2020-09-11T13:56:56Z</time>
      </trkpt>
      <trkpt lat="43.91643" lon="5.17967">
        <ele>283.846</ele>
        <time>2020-09-11T13:57:00Z</time>
      </trkpt>
      <trkpt lat="43.91648" lon="5.17972">
        <ele>283.647</ele>
        <time>2020-09-11T13:57:03Z</time>
      </trkpt>
      <trkpt lat="43.91651" lon="5.17977">
        <ele>283.586</ele>
        <time>2020-09-11T13:57:07Z</time>
      </trkpt>
      <trkpt lat="43.91652" lon="5.17983">
        <ele>284.094</ele>
        <time>2020-09-11T13:57:14Z</time>
      </trkpt>
      <trkpt lat="43.91647" lon="5.17986">
        <ele>283.756</ele>
        <time>2020-09-11T13:57:24Z</time>
      </trkpt>
      <trkpt lat="43.91643" lon="5.17987">
        <ele>284.596</ele>
        <time>2020-09-11T13:57:46Z</time>
      </trkpt>
      <trkpt lat="43.9164" lon="5.17993">
        <ele>285.816</ele>
        <time>2020-09-11T13:58:20Z</time>
      </trkpt>
      <trkpt lat="43.91643" lon="5.17997">
        <ele>285.435</ele>
        <time>2020-09-11T13:58:29Z</time>
      </trkpt>
      <trkpt lat="43.91647" lon="5.18001">
        <ele>286.015</ele>
        <time>2020-09-11T13:58:35Z</time>
      </trkpt>
      <trkpt lat="43.9165" lon="5.18006">
        <ele>286.665</ele>
        <time>2020-09-11T13:58:41Z</time>
      </trkpt>
      <trkpt lat="43.91653" lon="5.18011">
        <ele>286.711</ele>
        <time>2020-09-11T13:58:47Z</time>
      </trkpt>
      <trkpt lat="43.91657" lon="5.18015">
        <ele>287.808</ele>
        <time>2020-09-11T13:58:55Z</time>
      </trkpt>
      <trkpt lat="43.91661" lon="5.18018">
        <ele>287.976</ele>
        <time>2020-09-11T13:59:01Z</time>
      </trkpt>
      <trkpt lat="43.91665" lon="5.18022">
        <ele>287.947</ele>
        <time>2020-09-11T13:59:07Z</time>
      </trkpt>
      <trkpt lat="43.91669" lon="5.18025">
        <ele>288.076</ele>
        <time>2020-09-11T13:59:11Z</time>
      </trkpt>
      <trkpt lat="43.91673" lon="5.18026">
        <ele>287.114</ele>
        <time>2020-09-11T13:59:18Z</time>
      </trkpt>
      <trkpt lat="43.91675" lon="5.18032">
        <ele>286.436</ele>
        <time>2020-09-11T13:59:27Z</time>
      </trkpt>
      <trkpt lat="43.91677" lon="5.18037">
        <ele>285.386</ele>
        <time>2020-09-11T13:59:35Z</time>
      </trkpt>
      <trkpt lat="43.9168" lon="5.18042">
        <ele>284.746</ele>
        <time>2020-09-11T13:59:52Z</time>
      </trkpt>
      <trkpt lat="43.9168" lon="5.18049">
        <ele>285.175</ele>
        <time>2020-09-11T14:00:01Z</time>
      </trkpt>
      <trkpt lat="43.9168" lon="5.18055">
        <ele>285.511</ele>
        <time>2020-09-11T14:00:47Z</time>
      </trkpt>
      <trkpt lat="43.91682" lon="5.18061">
        <ele>286.321</ele>
        <time>2020-09-11T14:01:14Z</time>
      </trkpt>
      <trkpt lat="43.91686" lon="5.18066">
        <ele>287.603</ele>
        <time>2020-09-11T14:01:24Z</time>
      </trkpt>
      <trkpt lat="43.91688" lon="5.18073">
        <ele>288.808</ele>
        <time>2020-09-11T14:01:32Z</time>
      </trkpt>
      <trkpt lat="43.91692" lon="5.18078">
        <ele>289.056</ele>
        <time>2020-09-11T14:01:41Z</time>
      </trkpt>
      <trkpt lat="43.91695" lon="5.18083">
        <ele>288.987</ele>
        <time>2020-09-11T14:01:49Z</time>
      </trkpt>
      <trkpt lat="43.91699" lon="5.18088">
        <ele>288.746</ele>
        <time>2020-09-11T14:01:56Z</time>
      </trkpt>
      <trkpt lat="43.91702" lon="5.18093">
        <ele>289.084</ele>
        <time>2020-09-11T14:02:03Z</time>
      </trkpt>
      <trkpt lat="43.91704" lon="5.18099">
        <ele>289.446</ele>
        <time>2020-09-11T14:02:12Z</time>
      </trkpt>
      <trkpt lat="43.91707" lon="5.18104">
        <ele>290.426</ele>
        <time>2020-09-11T14:02:26Z</time>
      </trkpt>
      <trkpt lat="43.91707" lon="5.1811">
        <ele>291.476</ele>
        <time>2020-09-11T14:02:33Z</time>
      </trkpt>
      <trkpt lat="43.91707" lon="5.18116">
        <ele>291.525</ele>
        <time>2020-09-11T14:02:37Z</time>
      </trkpt>
      <trkpt lat="43.91709" lon="5.18123">
        <ele>291.163</ele>
        <time>2020-09-11T14:02:42Z</time>
      </trkpt>
      <trkpt lat="43.91711" lon="5.18129">
        <ele>290.944</ele>
        <time>2020-09-11T14:02:46Z</time>
      </trkpt>
      <trkpt lat="43.91713" lon="5.18136">
        <ele>290.818</ele>
        <time>2020-09-11T14:02:51Z</time>
      </trkpt>
      <trkpt lat="43.91712" lon="5.18143">
        <ele>291.208</ele>
        <time>2020-09-11T14:03:21Z</time>
      </trkpt>
      <trkpt lat="43.91714" lon="5.18148">
        <ele>291.931</ele>
        <time>2020-09-11T14:03:24Z</time>
      </trkpt>
      <trkpt lat="43.91717" lon="5.18154">
        <ele>294.012</ele>
        <time>2020-09-11T14:03:33Z</time>
      </trkpt>
      <trkpt lat="43.91719" lon="5.1816">
        <ele>295.171</ele>
        <time>2020-09-11T14:03:39Z</time>
      </trkpt>
      <trkpt lat="43.91721" lon="5.18167">
        <ele>295.689</ele>
        <time>2020-09-11T14:03:45Z</time>
      </trkpt>
      <trkpt lat="43.91724" lon="5.18172">
        <ele>296.241</ele>
        <time>2020-09-11T14:03:50Z</time>
      </trkpt>
      <trkpt lat="43.91728" lon="5.18177">
        <ele>297.131</ele>
        <time>2020-09-11T14:03:56Z</time>
      </trkpt>
      <trkpt lat="43.91729" lon="5.18184">
        <ele>297.051</ele>
        <time>2020-09-11T14:04:01Z</time>
      </trkpt>
      <trkpt lat="43.91732" lon="5.18189">
        <ele>296.95</ele>
        <time>2020-09-11T14:04:06Z</time>
      </trkpt>
      <trkpt lat="43.91736" lon="5.18193">
        <ele>296.711</ele>
        <time>2020-09-11T14:04:11Z</time>
      </trkpt>
      <trkpt lat="43.91741" lon="5.18197">
        <ele>296.621</ele>
        <time>2020-09-11T14:04:15Z</time>
      </trkpt>
      <trkpt lat="43.91745" lon="5.18199">
        <ele>296.503</ele>
        <time>2020-09-11T14:04:21Z</time>
      </trkpt>
      <trkpt lat="43.9175" lon="5.182">
        <ele>296.908</ele>
        <time>2020-09-11T14:04:27Z</time>
      </trkpt>
      <trkpt lat="43.91755" lon="5.18199">
        <ele>296.896</ele>
        <time>2020-09-11T14:04:31Z</time>
      </trkpt>
      <trkpt lat="43.9176" lon="5.182">
        <ele>296.687</ele>
        <time>2020-09-11T14:04:37Z</time>
      </trkpt>
      <trkpt lat="43.91765" lon="5.182">
        <ele>296.036</ele>
        <time>2020-09-11T14:04:43Z</time>
      </trkpt>
      <trkpt lat="43.91768" lon="5.18204">
        <ele>296.344</ele>
        <time>2020-09-11T14:05:11Z</time>
      </trkpt>
      <trkpt lat="43.91772" lon="5.18202">
        <ele>296.576</ele>
        <time>2020-09-11T14:05:20Z</time>
      </trkpt>
      <trkpt lat="43.91777" lon="5.182">
        <ele>296.576</ele>
        <time>2020-09-11T14:05:25Z</time>
      </trkpt>
      <trkpt lat="43.91781" lon="5.18198">
        <ele>296.796</ele>
        <time>2020-09-11T14:05:30Z</time>
      </trkpt>
      <trkpt lat="43.91786" lon="5.18197">
        <ele>296.535</ele>
        <time>2020-09-11T14:05:34Z</time>
      </trkpt>
      <trkpt lat="43.91791" lon="5.18196">
        <ele>296.467</ele>
        <time>2020-09-11T14:05:39Z</time>
      </trkpt>
      <trkpt lat="43.91796" lon="5.18196">
        <ele>296.581</ele>
        <time>2020-09-11T14:05:44Z</time>
      </trkpt>
      <trkpt lat="43.91801" lon="5.18195">
        <ele>296.419</ele>
        <time>2020-09-11T14:05:47Z</time>
      </trkpt>
      <trkpt lat="43.91807" lon="5.18195">
        <ele>296.208</ele>
        <time>2020-09-11T14:05:53Z</time>
      </trkpt>
      <trkpt lat="43.91811" lon="5.18194">
        <ele>296.071</ele>
        <time>2020-09-11T14:05:58Z</time>
      </trkpt>
      <trkpt lat="43.91816" lon="5.18194">
        <ele>296.442</ele>
        <time>2020-09-11T14:06:04Z</time>
      </trkpt>
      <trkpt lat="43.91814" lon="5.182">
        <ele>296.561</ele>
        <time>2020-09-11T14:06:37Z</time>
      </trkpt>
      <trkpt lat="43.91813" lon="5.18193">
        <ele>298.499</ele>
        <time>2020-09-11T14:06:49Z</time>
      </trkpt>
      <trkpt lat="43.91816" lon="5.18188">
        <ele>299.241</ele>
        <time>2020-09-11T14:06:52Z</time>
      </trkpt>
      <trkpt lat="43.91821" lon="5.18185">
        <ele>299.141</ele>
        <time>2020-09-11T14:06:57Z</time>
      </trkpt>
      <trkpt lat="43.91826" lon="5.18183">
        <ele>299.111</ele>
        <time>2020-09-11T14:06:59Z</time>
      </trkpt>
      <trkpt lat="43.91831" lon="5.18182">
        <ele>299.69</ele>
        <time>2020-09-11T14:07:04Z</time>
      </trkpt>
      <trkpt lat="43.91835" lon="5.1818">
        <ele>300.568</ele>
        <time>2020-09-11T14:07:07Z</time>
      </trkpt>
      <trkpt lat="43.9184" lon="5.18177">
        <ele>301.442</ele>
        <time>2020-09-11T14:07:12Z</time>
      </trkpt>
      <trkpt lat="43.91845" lon="5.18175">
        <ele>302.126</ele>
        <time>2020-09-11T14:07:19Z</time>
      </trkpt>
      <trkpt lat="43.91849" lon="5.18174">
        <ele>302.708</ele>
        <time>2020-09-11T14:07:23Z</time>
      </trkpt>
      <trkpt lat="43.91854" lon="5.18174">
        <ele>302.851</ele>
        <time>2020-09-11T14:07:29Z</time>
      </trkpt>
      <trkpt lat="43.91859" lon="5.18173">
        <ele>302.032</ele>
        <time>2020-09-11T14:07:35Z</time>
      </trkpt>
      <trkpt lat="43.91862" lon="5.18168">
        <ele>303.451</ele>
        <time>2020-09-11T14:07:43Z</time>
      </trkpt>
      <trkpt lat="43.91866" lon="5.18163">
        <ele>304.039</ele>
        <time>2020-09-11T14:07:49Z</time>
      </trkpt>
      <trkpt lat="43.9187" lon="5.1816">
        <ele>305.251</ele>
        <time>2020-09-11T14:07:56Z</time>
      </trkpt>
      <trkpt lat="43.91876" lon="5.1816">
        <ele>304.761</ele>
        <time>2020-09-11T14:08:03Z</time>
      </trkpt>
      <trkpt lat="43.91881" lon="5.1816">
        <ele>304.861</ele>
        <time>2020-09-11T14:08:10Z</time>
      </trkpt>
      <trkpt lat="43.91885" lon="5.18161">
        <ele>304.23</ele>
        <time>2020-09-11T14:08:15Z</time>
      </trkpt>
      <trkpt lat="43.9189" lon="5.1816">
        <ele>305.063</ele>
        <time>2020-09-11T14:08:20Z</time>
      </trkpt>
      <trkpt lat="43.91895" lon="5.18161">
        <ele>304.644</ele>
        <time>2020-09-11T14:08:26Z</time>
      </trkpt>
      <trkpt lat="43.91899" lon="5.18161">
        <ele>305.418</ele>
        <time>2020-09-11T14:08:30Z</time>
      </trkpt>
      <trkpt lat="43.91904" lon="5.18158">
        <ele>306.008</ele>
        <time>2020-09-11T14:08:35Z</time>
      </trkpt>
      <trkpt lat="43.91907" lon="5.18153">
        <ele>307.571</ele>
        <time>2020-09-11T14:08:43Z</time>
      </trkpt>
      <trkpt lat="43.91911" lon="5.18149">
        <ele>308.762</ele>
        <time>2020-09-11T14:08:51Z</time>
      </trkpt>
      <trkpt lat="43.91916" lon="5.18152">
        <ele>308.341</ele>
        <time>2020-09-11T14:09:03Z</time>
      </trkpt>
      <trkpt lat="43.91921" lon="5.18152">
        <ele>308.079</ele>
        <time>2020-09-11T14:09:09Z</time>
      </trkpt>
      <trkpt lat="43.91925" lon="5.18152">
        <ele>308.441</ele>
        <time>2020-09-11T14:09:15Z</time>
      </trkpt>
      <trkpt lat="43.9193" lon="5.18151">
        <ele>308.891</ele>
        <time>2020-09-11T14:09:21Z</time>
      </trkpt>
      <trkpt lat="43.91935" lon="5.18149">
        <ele>308.661</ele>
        <time>2020-09-11T14:09:28Z</time>
      </trkpt>
      <trkpt lat="43.9194" lon="5.18149">
        <ele>309.43</ele>
        <time>2020-09-11T14:09:37Z</time>
      </trkpt>
      <trkpt lat="43.91944" lon="5.1815">
        <ele>310.518</ele>
        <time>2020-09-11T14:09:56Z</time>
      </trkpt>
      <trkpt lat="43.91948" lon="5.18147">
        <ele>311.798</ele>
        <time>2020-09-11T14:10:08Z</time>
      </trkpt>
      <trkpt lat="43.91953" lon="5.18144">
        <ele>312.217</ele>
        <time>2020-09-11T14:10:15Z</time>
      </trkpt>
      <trkpt lat="43.91957" lon="5.18143">
        <ele>311.808</ele>
        <time>2020-09-11T14:10:22Z</time>
      </trkpt>
      <trkpt lat="43.91962" lon="5.18143">
        <ele>312.886</ele>
        <time>2020-09-11T14:10:30Z</time>
      </trkpt>
      <trkpt lat="43.91966" lon="5.18144">
        <ele>313.457</ele>
        <time>2020-09-11T14:10:53Z</time>
      </trkpt>
      <trkpt lat="43.91971" lon="5.18146">
        <ele>314.526</ele>
        <time>2020-09-11T14:11:01Z</time>
      </trkpt>
      <trkpt lat="43.91974" lon="5.18151">
        <ele>315.784</ele>
        <time>2020-09-11T14:11:10Z</time>
      </trkpt>
      <trkpt lat="43.91978" lon="5.18147">
        <ele>317.036</ele>
        <time>2020-09-11T14:11:32Z</time>
      </trkpt>
      <trkpt lat="43.91983" lon="5.18147">
        <ele>318.566</ele>
        <time>2020-09-11T14:11:41Z</time>
      </trkpt>
      <trkpt lat="43.91988" lon="5.18147">
        <ele>318.096</ele>
        <time>2020-09-11T14:12:11Z</time>
      </trkpt>
      <trkpt lat="43.91993" lon="5.18148">
        <ele>318.035</ele>
        <time>2020-09-11T14:12:15Z</time>
      </trkpt>
      <trkpt lat="43.91998" lon="5.18147">
        <ele>317.958</ele>
        <time>2020-09-11T14:12:19Z</time>
      </trkpt>
      <trkpt lat="43.92003" lon="5.18147">
        <ele>316.852</ele>
        <time>2020-09-11T14:12:40Z</time>
      </trkpt>
      <trkpt lat="43.92008" lon="5.18148">
        <ele>317.217</ele>
        <time>2020-09-11T14:12:51Z</time>
      </trkpt>
      <trkpt lat="43.92009" lon="5.18154">
        <ele>317.508</ele>
        <time>2020-09-11T14:13:21Z</time>
      </trkpt>
      <trkpt lat="43.92014" lon="5.18156">
        <ele>318.66</ele>
        <time>2020-09-11T14:13:43Z</time>
      </trkpt>
      <trkpt lat="43.92018" lon="5.18158">
        <ele>318.951</ele>
        <time>2020-09-11T14:13:48Z</time>
      </trkpt>
      <trkpt lat="43.92022" lon="5.18161">
        <ele>319.26</ele>
        <time>2020-09-11T14:13:52Z</time>
      </trkpt>
      <trkpt lat="43.92027" lon="5.18164">
        <ele>319.768</ele>
        <time>2020-09-11T14:13:58Z</time>
      </trkpt>
      <trkpt lat="43.92031" lon="5.18168">
        <ele>320.77</ele>
        <time>2020-09-11T14:14:04Z</time>
      </trkpt>
      <trkpt lat="43.92034" lon="5.18173">
        <ele>320.85</ele>
        <time>2020-09-11T14:14:09Z</time>
      </trkpt>
      <trkpt lat="43.92037" lon="5.18181">
        <ele>320.05</ele>
        <time>2020-09-11T14:14:15Z</time>
      </trkpt>
      <trkpt lat="43.92038" lon="5.18187">
        <ele>319.439</ele>
        <time>2020-09-11T14:14:21Z</time>
      </trkpt>
      <trkpt lat="43.92041" lon="5.18193">
        <ele>319.967</ele>
        <time>2020-09-11T14:14:30Z</time>
      </trkpt>
      <trkpt lat="43.9204" lon="5.182">
        <ele>318.781</ele>
        <time>2020-09-11T14:14:41Z</time>
      </trkpt>
      <trkpt lat="43.92037" lon="5.18204">
        <ele>318.019</ele>
        <time>2020-09-11T14:14:49Z</time>
      </trkpt>
      <trkpt lat="43.92036" lon="5.1821">
        <ele>316.708</ele>
        <time>2020-09-11T14:15:01Z</time>
      </trkpt>
      <trkpt lat="43.92031" lon="5.18209">
        <ele>314.951</ele>
        <time>2020-09-11T14:15:16Z</time>
      </trkpt>
      <trkpt lat="43.92027" lon="5.18209">
        <ele>312.852</ele>
        <time>2020-09-11T14:15:33Z</time>
      </trkpt>
      <trkpt lat="43.92022" lon="5.18208">
        <ele>311.511</ele>
        <time>2020-09-11T14:15:44Z</time>
      </trkpt>
      <trkpt lat="43.92017" lon="5.18209">
        <ele>310.649</ele>
        <time>2020-09-11T14:15:50Z</time>
      </trkpt>
      <trkpt lat="43.92013" lon="5.18213">
        <ele>310.251</ele>
        <time>2020-09-11T14:15:56Z</time>
      </trkpt>
      <trkpt lat="43.92008" lon="5.18212">
        <ele>308.941</ele>
        <time>2020-09-11T14:16:31Z</time>
      </trkpt>
      <trkpt lat="43.92004" lon="5.1821">
        <ele>309.071</ele>
        <time>2020-09-11T14:16:48Z</time>
      </trkpt>
      <trkpt lat="43.91999" lon="5.18211">
        <ele>309.14</ele>
        <time>2020-09-11T14:17:02Z</time>
      </trkpt>
      <trkpt lat="43.91998" lon="5.18205">
        <ele>310.174</ele>
        <time>2020-09-11T14:17:11Z</time>
      </trkpt>
      <trkpt lat="43.92001" lon="5.18199">
        <ele>311.256</ele>
        <time>2020-09-11T14:17:17Z</time>
      </trkpt>
      <trkpt lat="43.91998" lon="5.18195">
        <ele>312.621</ele>
        <time>2020-09-11T14:17:56Z</time>
      </trkpt>
      <trkpt lat="43.91994" lon="5.18191">
        <ele>314.608</ele>
        <time>2020-09-11T14:18:24Z</time>
      </trkpt>
      <trkpt lat="43.9199" lon="5.1819">
        <ele>316.682</ele>
        <time>2020-09-11T14:18:38Z</time>
      </trkpt>
      <trkpt lat="43.91994" lon="5.18187">
        <ele>317.933</ele>
        <time>2020-09-11T14:19:42Z</time>
      </trkpt>
      <trkpt lat="43.91993" lon="5.18193">
        <ele>319.722</ele>
        <time>2020-09-11T14:20:17Z</time>
      </trkpt>
      <trkpt lat="43.91994" lon="5.18199">
        <ele>321.12</ele>
        <time>2020-09-11T14:20:33Z</time>
      </trkpt>
      <trkpt lat="43.91992" lon="5.18205">
        <ele>322.382</ele>
        <time>2020-09-11T14:20:51Z</time>
      </trkpt>
      <trkpt lat="43.91989" lon="5.1821">
        <ele>324.772</ele>
        <time>2020-09-11T14:21:28Z</time>
      </trkpt>
      <trkpt lat="43.91985" lon="5.18212">
        <ele>326.332</ele>
        <time>2020-09-11T14:21:47Z</time>
      </trkpt>
      <trkpt lat="43.91982" lon="5.18207">
        <ele>326.821</ele>
        <time>2020-09-11T14:22:39Z</time>
      </trkpt>
      <trkpt lat="43.91977" lon="5.18208">
        <ele>326.888</ele>
        <time>2020-09-11T14:22:44Z</time>
      </trkpt>
      <trkpt lat="43.91973" lon="5.1821">
        <ele>327.524</ele>
        <time>2020-09-11T14:22:49Z</time>
      </trkpt>
      <trkpt lat="43.91967" lon="5.18212">
        <ele>327.626</ele>
        <time>2020-09-11T14:22:55Z</time>
      </trkpt>
      <trkpt lat="43.91962" lon="5.18214">
        <ele>328.008</ele>
        <time>2020-09-11T14:23:01Z</time>
      </trkpt>
      <trkpt lat="43.91958" lon="5.18216">
        <ele>328.183</ele>
        <time>2020-09-11T14:23:07Z</time>
      </trkpt>
      <trkpt lat="43.91953" lon="5.18217">
        <ele>328.484</ele>
        <time>2020-09-11T14:23:12Z</time>
      </trkpt>
      <trkpt lat="43.91949" lon="5.18221">
        <ele>328.853</ele>
        <time>2020-09-11T14:23:17Z</time>
      </trkpt>
      <trkpt lat="43.91945" lon="5.18223">
        <ele>328.471</ele>
        <time>2020-09-11T14:23:24Z</time>
      </trkpt>
      <trkpt lat="43.91939" lon="5.18223">
        <ele>328.423</ele>
        <time>2020-09-11T14:23:30Z</time>
      </trkpt>
      <trkpt lat="43.91934" lon="5.18223">
        <ele>327.963</ele>
        <time>2020-09-11T14:23:36Z</time>
      </trkpt>
      <trkpt lat="43.91929" lon="5.18222">
        <ele>327.233</ele>
        <time>2020-09-11T14:23:42Z</time>
      </trkpt>
      <trkpt lat="43.91924" lon="5.1822">
        <ele>326.862</ele>
        <time>2020-09-11T14:23:48Z</time>
      </trkpt>
      <trkpt lat="43.91919" lon="5.18218">
        <ele>326.745</ele>
        <time>2020-09-11T14:23:55Z</time>
      </trkpt>
      <trkpt lat="43.91916" lon="5.18222">
        <ele>327.947</ele>
        <time>2020-09-11T14:24:04Z</time>
      </trkpt>
      <trkpt lat="43.91912" lon="5.18226">
        <ele>328.211</ele>
        <time>2020-09-11T14:24:09Z</time>
      </trkpt>
      <trkpt lat="43.91908" lon="5.18231">
        <ele>328.608</ele>
        <time>2020-09-11T14:24:15Z</time>
      </trkpt>
      <trkpt lat="43.91906" lon="5.18237">
        <ele>330.539</ele>
        <time>2020-09-11T14:24:30Z</time>
      </trkpt>
      <trkpt lat="43.91903" lon="5.18241">
        <ele>330.79</ele>
        <time>2020-09-11T14:24:36Z</time>
      </trkpt>
      <trkpt lat="43.91899" lon="5.18245">
        <ele>331.059</ele>
        <time>2020-09-11T14:25:02Z</time>
      </trkpt>
      <trkpt lat="43.91896" lon="5.1825">
        <ele>333.967</ele>
        <time>2020-09-11T14:25:58Z</time>
      </trkpt>
      <trkpt lat="43.91892" lon="5.1825">
        <ele>333.749</ele>
        <time>2020-09-11T14:26:21Z</time>
      </trkpt>
      <trkpt lat="43.91887" lon="5.18251">
        <ele>334.079</ele>
        <time>2020-09-11T14:27:18Z</time>
      </trkpt>
      <trkpt lat="43.91884" lon="5.18257">
        <ele>334.689</ele>
        <time>2020-09-11T14:27:23Z</time>
      </trkpt>
      <trkpt lat="43.91881" lon="5.18261">
        <ele>335.118</ele>
        <time>2020-09-11T14:27:28Z</time>
      </trkpt>
      <trkpt lat="43.91877" lon="5.18266">
        <ele>335.612</ele>
        <time>2020-09-11T14:27:32Z</time>
      </trkpt>
      <trkpt lat="43.91872" lon="5.18268">
        <ele>335.332</ele>
        <time>2020-09-11T14:27:48Z</time>
      </trkpt>
      <trkpt lat="43.91867" lon="5.18269">
        <ele>334.705</ele>
        <time>2020-09-11T14:28:16Z</time>
      </trkpt>
      <trkpt lat="43.91863" lon="5.18271">
        <ele>334.108</ele>
        <time>2020-09-11T14:28:21Z</time>
      </trkpt>
      <trkpt lat="43.91858" lon="5.18272">
        <ele>333.156</ele>
        <time>2020-09-11T14:28:32Z</time>
      </trkpt>
      <trkpt lat="43.9186" lon="5.18266">
        <ele>332.967</ele>
        <time>2020-09-11T14:28:53Z</time>
      </trkpt>
      <trkpt lat="43.91865" lon="5.18263">
        <ele>334.336</ele>
        <time>2020-09-11T14:29:06Z</time>
      </trkpt>
      <trkpt lat="43.91864" lon="5.1827">
        <ele>336.424</ele>
        <time>2020-09-11T14:29:36Z</time>
      </trkpt>
      <trkpt lat="43.91861" lon="5.18275">
        <ele>337.486</ele>
        <time>2020-09-11T14:29:58Z</time>
      </trkpt>
      <trkpt lat="43.91857" lon="5.18278">
        <ele>337.626</ele>
        <time>2020-09-11T14:30:15Z</time>
      </trkpt>
      <trkpt lat="43.91852" lon="5.18279">
        <ele>337.266</ele>
        <time>2020-09-11T14:30:41Z</time>
      </trkpt>
      <trkpt lat="43.91848" lon="5.18283">
        <ele>339.095</ele>
        <time>2020-09-11T14:30:49Z</time>
      </trkpt>
      <trkpt lat="43.91844" lon="5.18287">
        <ele>340.344</ele>
        <time>2020-09-11T14:30:58Z</time>
      </trkpt>
      <trkpt lat="43.9184" lon="5.18291">
        <ele>341.705</ele>
        <time>2020-09-11T14:31:04Z</time>
      </trkpt>
      <trkpt lat="43.91836" lon="5.18293">
        <ele>342.815</ele>
        <time>2020-09-11T14:31:12Z</time>
      </trkpt>
      <trkpt lat="43.91832" lon="5.18295">
        <ele>342.408</ele>
        <time>2020-09-11T14:31:32Z</time>
      </trkpt>
      <trkpt lat="43.9183" lon="5.18289">
        <ele>343.889</ele>
        <time>2020-09-11T14:33:13Z</time>
      </trkpt>
      <trkpt lat="43.91829" lon="5.18296">
        <ele>344.51</ele>
        <time>2020-09-11T14:34:07Z</time>
      </trkpt>
      <trkpt lat="43.91824" lon="5.18299">
        <ele>344.119</ele>
        <time>2020-09-11T14:34:12Z</time>
      </trkpt>
      <trkpt lat="43.91819" lon="5.18301">
        <ele>344.117</ele>
        <time>2020-09-11T14:34:16Z</time>
      </trkpt>
      <trkpt lat="43.91815" lon="5.18302">
        <ele>344.769</ele>
        <time>2020-09-11T14:34:19Z</time>
      </trkpt>
      <trkpt lat="43.91811" lon="5.18305">
        <ele>344.749</ele>
        <time>2020-09-11T14:34:24Z</time>
      </trkpt>
      <trkpt lat="43.91807" lon="5.18308">
        <ele>345.719</ele>
        <time>2020-09-11T14:34:32Z</time>
      </trkpt>
      <trkpt lat="43.91802" lon="5.18309">
        <ele>346.978</ele>
        <time>2020-09-11T14:34:40Z</time>
      </trkpt>
      <trkpt lat="43.91798" lon="5.18312">
        <ele>349.751</ele>
        <time>2020-09-11T14:36:38Z</time>
      </trkpt>
      <trkpt lat="43.91794" lon="5.18315">
        <ele>350.901</ele>
        <time>2020-09-11T14:36:53Z</time>
      </trkpt>
      <trkpt lat="43.91789" lon="5.18316">
        <ele>354.311</ele>
        <time>2020-09-11T14:38:45Z</time>
      </trkpt>
      <trkpt lat="43.91786" lon="5.1832">
        <ele>356.308</ele>
        <time>2020-09-11T14:38:53Z</time>
      </trkpt>
      <trkpt lat="43.91783" lon="5.18325">
        <ele>358.48</ele>
        <time>2020-09-11T14:39:04Z</time>
      </trkpt>
      <trkpt lat="43.91778" lon="5.18328">
        <ele>359.451</ele>
        <time>2020-09-11T14:39:18Z</time>
      </trkpt>
      <trkpt lat="43.91774" lon="5.18331">
        <ele>360.33</ele>
        <time>2020-09-11T14:39:23Z</time>
      </trkpt>
      <trkpt lat="43.9177" lon="5.18333">
        <ele>360.418</ele>
        <time>2020-09-11T14:39:27Z</time>
      </trkpt>
      <trkpt lat="43.91765" lon="5.18335">
        <ele>360.83</ele>
        <time>2020-09-11T14:39:30Z</time>
      </trkpt>
      <trkpt lat="43.9176" lon="5.18339">
        <ele>361.54</ele>
        <time>2020-09-11T14:39:34Z</time>
      </trkpt>
      <trkpt lat="43.91757" lon="5.18342">
        <ele>362.71</ele>
        <time>2020-09-11T14:39:40Z</time>
      </trkpt>
      <trkpt lat="43.91752" lon="5.1834">
        <ele>363.349</ele>
        <time>2020-09-11T14:40:18Z</time>
      </trkpt>
      <trkpt lat="43.91747" lon="5.18341">
        <ele>364.256</ele>
        <time>2020-09-11T14:40:23Z</time>
      </trkpt>
      <trkpt lat="43.91742" lon="5.1834">
        <ele>364.359</ele>
        <time>2020-09-11T14:40:28Z</time>
      </trkpt>
      <trkpt lat="43.91737" lon="5.18343">
        <ele>365.514</ele>
        <time>2020-09-11T14:40:33Z</time>
      </trkpt>
      <trkpt lat="43.91733" lon="5.18346">
        <ele>366.608</ele>
        <time>2020-09-11T14:40:40Z</time>
      </trkpt>
      <trkpt lat="43.91729" lon="5.18348">
        <ele>367.84</ele>
        <time>2020-09-11T14:40:46Z</time>
      </trkpt>
      <trkpt lat="43.91725" lon="5.18352">
        <ele>368.741</ele>
        <time>2020-09-11T14:40:53Z</time>
      </trkpt>
      <trkpt lat="43.9172" lon="5.18354">
        <ele>369.54</ele>
        <time>2020-09-11T14:41:01Z</time>
      </trkpt>
      <trkpt lat="43.91716" lon="5.18354">
        <ele>370.368</ele>
        <time>2020-09-11T14:41:06Z</time>
      </trkpt>
      <trkpt lat="43.9171" lon="5.18354">
        <ele>371.16</ele>
        <time>2020-09-11T14:41:13Z</time>
      </trkpt>
      <trkpt lat="43.91705" lon="5.18352">
        <ele>372.06</ele>
        <time>2020-09-11T14:41:26Z</time>
      </trkpt>
      <trkpt lat="43.91701" lon="5.18353">
        <ele>372.68</ele>
        <time>2020-09-11T14:41:30Z</time>
      </trkpt>
      <trkpt lat="43.91696" lon="5.18351">
        <ele>372.579</ele>
        <time>2020-09-11T14:41:36Z</time>
      </trkpt>
      <trkpt lat="43.91691" lon="5.1835">
        <ele>372.275</ele>
        <time>2020-09-11T14:41:41Z</time>
      </trkpt>
      <trkpt lat="43.91685" lon="5.18351">
        <ele>373.028</ele>
        <time>2020-09-11T14:41:55Z</time>
      </trkpt>
      <trkpt lat="43.9168" lon="5.1835">
        <ele>373.42</ele>
        <time>2020-09-11T14:42:01Z</time>
      </trkpt>
      <trkpt lat="43.91674" lon="5.18347">
        <ele>374.208</ele>
        <time>2020-09-11T14:42:08Z</time>
      </trkpt>
      <trkpt lat="43.9167" lon="5.18348">
        <ele>375.372</ele>
        <time>2020-09-11T14:42:15Z</time>
      </trkpt>
      <trkpt lat="43.91673" lon="5.18353">
        <ele>376.643</ele>
        <time>2020-09-11T14:42:33Z</time>
      </trkpt>
      <trkpt lat="43.91676" lon="5.18359">
        <ele>378.372</ele>
        <time>2020-09-11T14:42:41Z</time>
      </trkpt>
      <trkpt lat="43.91672" lon="5.18361">
        <ele>380.01</ele>
        <time>2020-09-11T14:42:54Z</time>
      </trkpt>
      <trkpt lat="43.91673" lon="5.18367">
        <ele>382.082</ele>
        <time>2020-09-11T14:43:29Z</time>
      </trkpt>
      <trkpt lat="43.9167" lon="5.18372">
        <ele>387.572</ele>
        <time>2020-09-11T14:44:27Z</time>
      </trkpt>
      <trkpt lat="43.91666" lon="5.18373">
        <ele>388.452</ele>
        <time>2020-09-11T14:44:35Z</time>
      </trkpt>
      <trkpt lat="43.91669" lon="5.1838">
        <ele>388.771</ele>
        <time>2020-09-11T14:44:43Z</time>
      </trkpt>
      <trkpt lat="43.91666" lon="5.18374">
        <ele>388.452</ele>
        <time>2020-09-11T14:47:14Z</time>
      </trkpt>
      <trkpt lat="43.91665" lon="5.18368">
        <ele>388.353</ele>
        <time>2020-09-11T14:48:10Z</time>
      </trkpt>
      <trkpt lat="43.91667" lon="5.18374">
        <ele>389.708</ele>
        <time>2020-09-11T14:50:09Z</time>
      </trkpt>
      <trkpt lat="43.91666" lon="5.1838">
        <ele>390.108</ele>
        <time>2020-09-11T14:50:28Z</time>
      </trkpt>
      <trkpt lat="43.9167" lon="5.18384">
        <ele>390.52</ele>
        <time>2020-09-11T14:50:48Z</time>
      </trkpt>
      <trkpt lat="43.91674" lon="5.18388">
        <ele>391.351</ele>
        <time>2020-09-11T14:50:52Z</time>
      </trkpt>
      <trkpt lat="43.91679" lon="5.1839">
        <ele>391.61</ele>
        <time>2020-09-11T14:51:01Z</time>
      </trkpt>
      <trkpt lat="43.91683" lon="5.18395">
        <ele>392.148</ele>
        <time>2020-09-11T14:51:06Z</time>
      </trkpt>
      <trkpt lat="43.91688" lon="5.18398">
        <ele>392.64</ele>
        <time>2020-09-11T14:51:12Z</time>
      </trkpt>
      <trkpt lat="43.91693" lon="5.18402">
        <ele>393.21</ele>
        <time>2020-09-11T14:51:18Z</time>
      </trkpt>
      <trkpt lat="43.91698" lon="5.18404">
        <ele>393.33</ele>
        <time>2020-09-11T14:51:25Z</time>
      </trkpt>
      <trkpt lat="43.91704" lon="5.18406">
        <ele>394.139</ele>
        <time>2020-09-11T14:51:32Z</time>
      </trkpt>
      <trkpt lat="43.91708" lon="5.18409">
        <ele>394.594</ele>
        <time>2020-09-11T14:51:38Z</time>
      </trkpt>
      <trkpt lat="43.91712" lon="5.18411">
        <ele>395.257</ele>
        <time>2020-09-11T14:51:44Z</time>
      </trkpt>
      <trkpt lat="43.91717" lon="5.18411">
        <ele>395.722</ele>
        <time>2020-09-11T14:51:52Z</time>
      </trkpt>
      <trkpt lat="43.91724" lon="5.18412">
        <ele>396.108</ele>
        <time>2020-09-11T14:51:59Z</time>
      </trkpt>
      <trkpt lat="43.91729" lon="5.18414">
        <ele>396.884</ele>
        <time>2020-09-11T14:52:05Z</time>
      </trkpt>
      <trkpt lat="43.91733" lon="5.18416">
        <ele>397.715</ele>
        <time>2020-09-11T14:52:11Z</time>
      </trkpt>
      <trkpt lat="43.91738" lon="5.18419">
        <ele>398.664</ele>
        <time>2020-09-11T14:52:35Z</time>
      </trkpt>
      <trkpt lat="43.91742" lon="5.18421">
        <ele>399.162</ele>
        <time>2020-09-11T14:52:41Z</time>
      </trkpt>
      <trkpt lat="43.91747" lon="5.18424">
        <ele>399.734</ele>
        <time>2020-09-11T14:52:47Z</time>
      </trkpt>
      <trkpt lat="43.91751" lon="5.18426">
        <ele>400.224</ele>
        <time>2020-09-11T14:52:53Z</time>
      </trkpt>
      <trkpt lat="43.91756" lon="5.18428">
        <ele>400.894</ele>
        <time>2020-09-11T14:52:59Z</time>
      </trkpt>
      <trkpt lat="43.91761" lon="5.1843">
        <ele>401.093</ele>
        <time>2020-09-11T14:53:04Z</time>
      </trkpt>
      <trkpt lat="43.91765" lon="5.18433">
        <ele>401.621</ele>
        <time>2020-09-11T14:53:09Z</time>
      </trkpt>
      <trkpt lat="43.91769" lon="5.18432">
        <ele>402.241</ele>
        <time>2020-09-11T14:53:18Z</time>
      </trkpt>
      <trkpt lat="43.91774" lon="5.18432">
        <ele>402.405</ele>
        <time>2020-09-11T14:53:24Z</time>
      </trkpt>
      <trkpt lat="43.91779" lon="5.18434">
        <ele>402.908</ele>
        <time>2020-09-11T14:53:48Z</time>
      </trkpt>
      <trkpt lat="43.91784" lon="5.18434">
        <ele>403.667</ele>
        <time>2020-09-11T14:53:55Z</time>
      </trkpt>
      <trkpt lat="43.91789" lon="5.18433">
        <ele>404.168</ele>
        <time>2020-09-11T14:54:03Z</time>
      </trkpt>
      <trkpt lat="43.91794" lon="5.18433">
        <ele>404.687</ele>
        <time>2020-09-11T14:54:10Z</time>
      </trkpt>
      <trkpt lat="43.91798" lon="5.18433">
        <ele>405.355</ele>
        <time>2020-09-11T14:54:18Z</time>
      </trkpt>
      <trkpt lat="43.91803" lon="5.18433">
        <ele>406.197</ele>
        <time>2020-09-11T14:54:26Z</time>
      </trkpt>
      <trkpt lat="43.91808" lon="5.18431">
        <ele>406.577</ele>
        <time>2020-09-11T14:54:32Z</time>
      </trkpt>
      <trkpt lat="43.91813" lon="5.18429">
        <ele>406.837</ele>
        <time>2020-09-11T14:54:38Z</time>
      </trkpt>
      <trkpt lat="43.91817" lon="5.18426">
        <ele>406.146</ele>
        <time>2020-09-11T14:54:46Z</time>
      </trkpt>
      <trkpt lat="43.91822" lon="5.18426">
        <ele>406.237</ele>
        <time>2020-09-11T14:54:53Z</time>
      </trkpt>
      <trkpt lat="43.91827" lon="5.18427">
        <ele>407.249</ele>
        <time>2020-09-11T14:55:01Z</time>
      </trkpt>
      <trkpt lat="43.91831" lon="5.18428">
        <ele>407.013</ele>
        <time>2020-09-11T14:55:40Z</time>
      </trkpt>
      <trkpt lat="43.91836" lon="5.18429">
        <ele>406.808</ele>
        <time>2020-09-11T14:55:48Z</time>
      </trkpt>
      <trkpt lat="43.9184" lon="5.18429">
        <ele>406.798</ele>
        <time>2020-09-11T14:55:56Z</time>
      </trkpt>
      <trkpt lat="43.91845" lon="5.18431">
        <ele>406.649</ele>
        <time>2020-09-11T14:56:02Z</time>
      </trkpt>
      <trkpt lat="43.9185" lon="5.18429">
        <ele>407.628</ele>
        <time>2020-09-11T14:56:08Z</time>
      </trkpt>
      <trkpt lat="43.91854" lon="5.18425">
        <ele>407.196</ele>
        <time>2020-09-11T14:56:16Z</time>
      </trkpt>
      <trkpt lat="43.91857" lon="5.1842">
        <ele>407.028</ele>
        <time>2020-09-11T14:56:24Z</time>
      </trkpt>
      <trkpt lat="43.91861" lon="5.18416">
        <ele>406.878</ele>
        <time>2020-09-11T14:56:31Z</time>
      </trkpt>
      <trkpt lat="43.91865" lon="5.18418">
        <ele>407.678</ele>
        <time>2020-09-11T14:56:55Z</time>
      </trkpt>
      <trkpt lat="43.9187" lon="5.18418">
        <ele>408.247</ele>
        <time>2020-09-11T14:57:02Z</time>
      </trkpt>
      <trkpt lat="43.91875" lon="5.18418">
        <ele>409.488</ele>
        <time>2020-09-11T14:57:14Z</time>
      </trkpt>
      <trkpt lat="43.9188" lon="5.18418">
        <ele>410.124</ele>
        <time>2020-09-11T14:57:20Z</time>
      </trkpt>
      <trkpt lat="43.91884" lon="5.18416">
        <ele>410.726</ele>
        <time>2020-09-11T14:57:26Z</time>
      </trkpt>
      <trkpt lat="43.91889" lon="5.18415">
        <ele>411.308</ele>
        <time>2020-09-11T14:57:32Z</time>
      </trkpt>
      <trkpt lat="43.91895" lon="5.18414">
        <ele>411.673</ele>
        <time>2020-09-11T14:57:38Z</time>
      </trkpt>
      <trkpt lat="43.919" lon="5.18411">
        <ele>412.114</ele>
        <time>2020-09-11T14:57:45Z</time>
      </trkpt>
      <trkpt lat="43.91905" lon="5.18406">
        <ele>412.683</ele>
        <time>2020-09-11T14:57:51Z</time>
      </trkpt>
      <trkpt lat="43.91909" lon="5.18408">
        <ele>413.331</ele>
        <time>2020-09-11T14:57:59Z</time>
      </trkpt>
      <trkpt lat="43.91912" lon="5.18412">
        <ele>414.663</ele>
        <time>2020-09-11T14:58:04Z</time>
      </trkpt>
      <trkpt lat="43.91917" lon="5.18412">
        <ele>415.753</ele>
        <time>2020-09-11T14:58:13Z</time>
      </trkpt>
      <trkpt lat="43.91923" lon="5.18412">
        <ele>416.853</ele>
        <time>2020-09-11T14:58:35Z</time>
      </trkpt>
      <trkpt lat="43.91927" lon="5.18415">
        <ele>417.642</ele>
        <time>2020-09-11T14:58:41Z</time>
      </trkpt>
      <trkpt lat="43.91931" lon="5.18418">
        <ele>418.222</ele>
        <time>2020-09-11T14:58:46Z</time>
      </trkpt>
      <trkpt lat="43.91936" lon="5.1842">
        <ele>418.862</ele>
        <time>2020-09-11T14:58:53Z</time>
      </trkpt>
      <trkpt lat="43.91939" lon="5.18414">
        <ele>418.908</ele>
        <time>2020-09-11T14:58:57Z</time>
      </trkpt>
      <trkpt lat="43.91944" lon="5.18412">
        <ele>419.108</ele>
        <time>2020-09-11T14:59:06Z</time>
      </trkpt>
      <trkpt lat="43.91947" lon="5.18416">
        <ele>419.777</ele>
        <time>2020-09-11T14:59:15Z</time>
      </trkpt>
      <trkpt lat="43.91951" lon="5.18423">
        <ele>420.748</ele>
        <time>2020-09-11T14:59:28Z</time>
      </trkpt>
      <trkpt lat="43.91955" lon="5.18427">
        <ele>421.157</ele>
        <time>2020-09-11T15:00:01Z</time>
      </trkpt>
      <trkpt lat="43.91958" lon="5.18432">
        <ele>421.545</ele>
        <time>2020-09-11T15:00:09Z</time>
      </trkpt>
      <trkpt lat="43.91961" lon="5.18437">
        <ele>422.097</ele>
        <time>2020-09-11T15:00:20Z</time>
      </trkpt>
      <trkpt lat="43.91965" lon="5.1844">
        <ele>422.737</ele>
        <time>2020-09-11T15:00:39Z</time>
      </trkpt>
      <trkpt lat="43.91969" lon="5.18443">
        <ele>422.627</ele>
        <time>2020-09-11T15:01:04Z</time>
      </trkpt>
      <trkpt lat="43.91973" lon="5.18447">
        <ele>422.726</ele>
        <time>2020-09-11T15:01:09Z</time>
      </trkpt>
      <trkpt lat="43.91975" lon="5.18453">
        <ele>422.984</ele>
        <time>2020-09-11T15:01:25Z</time>
      </trkpt>
      <trkpt lat="43.91979" lon="5.18457">
        <ele>423.307</ele>
        <time>2020-09-11T15:01:32Z</time>
      </trkpt>
      <trkpt lat="43.91983" lon="5.18461">
        <ele>423.517</ele>
        <time>2020-09-11T15:01:38Z</time>
      </trkpt>
      <trkpt lat="43.91987" lon="5.18464">
        <ele>423.908</ele>
        <time>2020-09-11T15:01:44Z</time>
      </trkpt>
      <trkpt lat="43.91991" lon="5.18468">
        <ele>423.893</ele>
        <time>2020-09-11T15:01:49Z</time>
      </trkpt>
      <trkpt lat="43.91994" lon="5.18473">
        <ele>424.034</ele>
        <time>2020-09-11T15:01:56Z</time>
      </trkpt>
      <trkpt lat="43.91996" lon="5.18478">
        <ele>424.573</ele>
        <time>2020-09-11T15:02:01Z</time>
      </trkpt>
      <trkpt lat="43.91999" lon="5.18483">
        <ele>424.721</ele>
        <time>2020-09-11T15:02:05Z</time>
      </trkpt>
      <trkpt lat="43.92003" lon="5.18488">
        <ele>424.883</ele>
        <time>2020-09-11T15:02:12Z</time>
      </trkpt>
      <trkpt lat="43.92004" lon="5.18494">
        <ele>424.973</ele>
        <time>2020-09-11T15:02:18Z</time>
      </trkpt>
      <trkpt lat="43.92007" lon="5.18501">
        <ele>425.283</ele>
        <time>2020-09-11T15:02:36Z</time>
      </trkpt>
      <trkpt lat="43.92009" lon="5.18506">
        <ele>425.472</ele>
        <time>2020-09-11T15:02:42Z</time>
      </trkpt>
      <trkpt lat="43.92013" lon="5.1851">
        <ele>425.686</ele>
        <time>2020-09-11T15:02:48Z</time>
      </trkpt>
      <trkpt lat="43.92015" lon="5.18516">
        <ele>425.96</ele>
        <time>2020-09-11T15:02:53Z</time>
      </trkpt>
      <trkpt lat="43.92018" lon="5.18521">
        <ele>426.326</ele>
        <time>2020-09-11T15:03:00Z</time>
      </trkpt>
      <trkpt lat="43.92022" lon="5.18525">
        <ele>426.908</ele>
        <time>2020-09-11T15:03:08Z</time>
      </trkpt>
      <trkpt lat="43.92024" lon="5.18531">
        <ele>427.023</ele>
        <time>2020-09-11T15:03:13Z</time>
      </trkpt>
      <trkpt lat="43.92028" lon="5.18535">
        <ele>427.324</ele>
        <time>2020-09-11T15:03:18Z</time>
      </trkpt>
      <trkpt lat="43.92032" lon="5.18538">
        <ele>427.623</ele>
        <time>2020-09-11T15:03:24Z</time>
      </trkpt>
      <trkpt lat="43.92036" lon="5.18541">
        <ele>427.991</ele>
        <time>2020-09-11T15:03:32Z</time>
      </trkpt>
      <trkpt lat="43.92038" lon="5.18547">
        <ele>428.173</ele>
        <time>2020-09-11T15:03:38Z</time>
      </trkpt>
      <trkpt lat="43.92042" lon="5.18552">
        <ele>428.823</ele>
        <time>2020-09-11T15:04:03Z</time>
      </trkpt>
      <trkpt lat="43.92044" lon="5.18558">
        <ele>429.183</ele>
        <time>2020-09-11T15:04:12Z</time>
      </trkpt>
      <trkpt lat="43.92048" lon="5.18562">
        <ele>429.622</ele>
        <time>2020-09-11T15:04:18Z</time>
      </trkpt>
      <trkpt lat="43.92053" lon="5.18565">
        <ele>429.549</ele>
        <time>2020-09-11T15:04:22Z</time>
      </trkpt>
      <trkpt lat="43.92057" lon="5.18568">
        <ele>430.202</ele>
        <time>2020-09-11T15:04:28Z</time>
      </trkpt>
      <trkpt lat="43.9206" lon="5.18573">
        <ele>430.722</ele>
        <time>2020-09-11T15:04:38Z</time>
      </trkpt>
      <trkpt lat="43.92062" lon="5.18579">
        <ele>431.008</ele>
        <time>2020-09-11T15:04:45Z</time>
      </trkpt>
      <trkpt lat="43.92067" lon="5.1858">
        <ele>431.519</ele>
        <time>2020-09-11T15:04:51Z</time>
      </trkpt>
      <trkpt lat="43.92072" lon="5.18583">
        <ele>431.84</ele>
        <time>2020-09-11T15:04:58Z</time>
      </trkpt>
      <trkpt lat="43.92075" lon="5.18588">
        <ele>432.299</ele>
        <time>2020-09-11T15:05:06Z</time>
      </trkpt>
      <trkpt lat="43.92079" lon="5.1859">
        <ele>432.987</ele>
        <time>2020-09-11T15:05:15Z</time>
      </trkpt>
      <trkpt lat="43.92083" lon="5.18594">
        <ele>433.419</ele>
        <time>2020-09-11T15:05:36Z</time>
      </trkpt>
      <trkpt lat="43.92087" lon="5.18596">
        <ele>433.659</ele>
        <time>2020-09-11T15:05:41Z</time>
      </trkpt>
      <trkpt lat="43.92092" lon="5.18599">
        <ele>434.219</ele>
        <time>2020-09-11T15:05:49Z</time>
      </trkpt>
      <trkpt lat="43.92097" lon="5.18601">
        <ele>434.788</ele>
        <time>2020-09-11T15:05:55Z</time>
      </trkpt>
      <trkpt lat="43.92101" lon="5.18603">
        <ele>435.494</ele>
        <time>2020-09-11T15:06:02Z</time>
      </trkpt>
      <trkpt lat="43.92106" lon="5.18606">
        <ele>436.257</ele>
        <time>2020-09-11T15:06:09Z</time>
      </trkpt>
      <trkpt lat="43.9211" lon="5.18609">
        <ele>436.422</ele>
        <time>2020-09-11T15:07:14Z</time>
      </trkpt>
      <trkpt lat="43.92115" lon="5.18608">
        <ele>437.008</ele>
        <time>2020-09-11T15:07:26Z</time>
      </trkpt>
      <trkpt lat="43.9212" lon="5.18606">
        <ele>436.634</ele>
        <time>2020-09-11T15:07:30Z</time>
      </trkpt>
      <trkpt lat="43.92125" lon="5.18605">
        <ele>437.315</ele>
        <time>2020-09-11T15:07:35Z</time>
      </trkpt>
      <trkpt lat="43.92129" lon="5.18601">
        <ele>437.024</ele>
        <time>2020-09-11T15:07:39Z</time>
      </trkpt>
      <trkpt lat="43.92134" lon="5.186">
        <ele>437.132</ele>
        <time>2020-09-11T15:07:44Z</time>
      </trkpt>
      <trkpt lat="43.92138" lon="5.18601">
        <ele>437.614</ele>
        <time>2020-09-11T15:07:54Z</time>
      </trkpt>
      <trkpt lat="43.92143" lon="5.18599">
        <ele>438.734</ele>
        <time>2020-09-11T15:08:07Z</time>
      </trkpt>
      <trkpt lat="43.92147" lon="5.18595">
        <ele>438.474</ele>
        <time>2020-09-11T15:08:16Z</time>
      </trkpt>
      <trkpt lat="43.92152" lon="5.18595">
        <ele>438.943</ele>
        <time>2020-09-11T15:08:22Z</time>
      </trkpt>
      <trkpt lat="43.92157" lon="5.18595">
        <ele>439.641</ele>
        <time>2020-09-11T15:08:28Z</time>
      </trkpt>
      <trkpt lat="43.92161" lon="5.18594">
        <ele>439.581</ele>
        <time>2020-09-11T15:08:34Z</time>
      </trkpt>
      <trkpt lat="43.92166" lon="5.18596">
        <ele>440.109</ele>
        <time>2020-09-11T15:08:40Z</time>
      </trkpt>
      <trkpt lat="43.9217" lon="5.186">
        <ele>440.708</ele>
        <time>2020-09-11T15:08:44Z</time>
      </trkpt>
      <trkpt lat="43.92174" lon="5.18603">
        <ele>441.719</ele>
        <time>2020-09-11T15:08:54Z</time>
      </trkpt>
      <trkpt lat="43.92178" lon="5.18606">
        <ele>442.53</ele>
        <time>2020-09-11T15:09:02Z</time>
      </trkpt>
      <trkpt lat="43.92182" lon="5.18601">
        <ele>443.069</ele>
        <time>2020-09-11T15:09:17Z</time>
      </trkpt>
      <trkpt lat="43.92187" lon="5.18601">
        <ele>443.457</ele>
        <time>2020-09-11T15:09:27Z</time>
      </trkpt>
      <trkpt lat="43.92192" lon="5.18601">
        <ele>444.249</ele>
        <time>2020-09-11T15:09:34Z</time>
      </trkpt>
      <trkpt lat="43.92197" lon="5.18602">
        <ele>445.069</ele>
        <time>2020-09-11T15:09:39Z</time>
      </trkpt>
      <trkpt lat="43.92201" lon="5.18604">
        <ele>445.589</ele>
        <time>2020-09-11T15:09:46Z</time>
      </trkpt>
      <trkpt lat="43.92206" lon="5.18607">
        <ele>446.418</ele>
        <time>2020-09-11T15:09:51Z</time>
      </trkpt>
      <trkpt lat="43.9221" lon="5.18611">
        <ele>447.091</ele>
        <time>2020-09-11T15:09:57Z</time>
      </trkpt>
      <trkpt lat="43.92214" lon="5.18615">
        <ele>447.381</ele>
        <time>2020-09-11T15:10:03Z</time>
      </trkpt>
      <trkpt lat="43.92218" lon="5.18613">
        <ele>447.419</ele>
        <time>2020-09-11T15:10:13Z</time>
      </trkpt>
      <trkpt lat="43.92223" lon="5.18615">
        <ele>448.008</ele>
        <time>2020-09-11T15:10:20Z</time>
      </trkpt>
      <trkpt lat="43.92228" lon="5.18615">
        <ele>448.464</ele>
        <time>2020-09-11T15:10:27Z</time>
      </trkpt>
      <trkpt lat="43.92232" lon="5.18616">
        <ele>449.295</ele>
        <time>2020-09-11T15:10:32Z</time>
      </trkpt>
      <trkpt lat="43.92236" lon="5.18619">
        <ele>449.454</ele>
        <time>2020-09-11T15:10:37Z</time>
      </trkpt>
      <trkpt lat="43.92241" lon="5.18621">
        <ele>449.592</ele>
        <time>2020-09-11T15:10:41Z</time>
      </trkpt>
      <trkpt lat="43.92246" lon="5.18622">
        <ele>449.674</ele>
        <time>2020-09-11T15:10:49Z</time>
      </trkpt>
      <trkpt lat="43.9225" lon="5.18623">
        <ele>450.014</ele>
        <time>2020-09-11T15:10:57Z</time>
      </trkpt>
      <trkpt lat="43.92254" lon="5.18628">
        <ele>451.074</ele>
        <time>2020-09-11T15:11:24Z</time>
      </trkpt>
      <trkpt lat="43.92259" lon="5.18629">
        <ele>451.353</ele>
        <time>2020-09-11T15:11:28Z</time>
      </trkpt>
      <trkpt lat="43.92263" lon="5.18631">
        <ele>452.075</ele>
        <time>2020-09-11T15:11:33Z</time>
      </trkpt>
      <trkpt lat="43.92268" lon="5.18632">
        <ele>452.428</ele>
        <time>2020-09-11T15:11:38Z</time>
      </trkpt>
      <trkpt lat="43.92273" lon="5.18631">
        <ele>452.42</ele>
        <time>2020-09-11T15:11:44Z</time>
      </trkpt>
      <trkpt lat="43.92278" lon="5.18631">
        <ele>452.908</ele>
        <time>2020-09-11T15:11:52Z</time>
      </trkpt>
      <trkpt lat="43.92283" lon="5.18631">
        <ele>453.662</ele>
        <time>2020-09-11T15:11:58Z</time>
      </trkpt>
      <trkpt lat="43.92288" lon="5.18633">
        <ele>454.323</ele>
        <time>2020-09-11T15:12:03Z</time>
      </trkpt>
      <trkpt lat="43.92292" lon="5.18634">
        <ele>454.832</ele>
        <time>2020-09-11T15:12:10Z</time>
      </trkpt>
      <trkpt lat="43.92298" lon="5.18632">
        <ele>455.33</ele>
        <time>2020-09-11T15:12:20Z</time>
      </trkpt>
      <trkpt lat="43.92303" lon="5.18631">
        <ele>456.062</ele>
        <time>2020-09-11T15:12:26Z</time>
      </trkpt>
      <trkpt lat="43.92308" lon="5.18633">
        <ele>457.172</ele>
        <time>2020-09-11T15:12:33Z</time>
      </trkpt>
      <trkpt lat="43.92312" lon="5.1863">
        <ele>457.942</ele>
        <time>2020-09-11T15:12:39Z</time>
      </trkpt>
      <trkpt lat="43.92318" lon="5.18629">
        <ele>458.021</ele>
        <time>2020-09-11T15:12:45Z</time>
      </trkpt>
      <trkpt lat="43.92322" lon="5.18631">
        <ele>458.645</ele>
        <time>2020-09-11T15:12:51Z</time>
      </trkpt>
      <trkpt lat="43.92327" lon="5.18631">
        <ele>459.147</ele>
        <time>2020-09-11T15:12:56Z</time>
      </trkpt>
      <trkpt lat="43.92332" lon="5.18632">
        <ele>459.611</ele>
        <time>2020-09-11T15:13:02Z</time>
      </trkpt>
      <trkpt lat="43.92336" lon="5.18635">
        <ele>460.208</ele>
        <time>2020-09-11T15:13:20Z</time>
      </trkpt>
      <trkpt lat="43.9234" lon="5.18638">
        <ele>460.559</ele>
        <time>2020-09-11T15:14:10Z</time>
      </trkpt>
      <trkpt lat="43.92345" lon="5.1864">
        <ele>461.49</ele>
        <time>2020-09-11T15:14:19Z</time>
      </trkpt>
      <trkpt lat="43.92346" lon="5.18646">
        <ele>461.599</ele>
        <time>2020-09-11T15:14:24Z</time>
      </trkpt>
      <trkpt lat="43.9235" lon="5.18651">
        <ele>461.547</ele>
        <time>2020-09-11T15:14:31Z</time>
      </trkpt>
      <trkpt lat="43.92355" lon="5.18652">
        <ele>462.969</ele>
        <time>2020-09-11T15:14:38Z</time>
      </trkpt>
      <trkpt lat="43.92358" lon="5.18647">
        <ele>463.349</ele>
        <time>2020-09-11T15:14:49Z</time>
      </trkpt>
      <trkpt lat="43.92362" lon="5.18641">
        <ele>463.719</ele>
        <time>2020-09-11T15:14:56Z</time>
      </trkpt>
      <trkpt lat="43.92365" lon="5.18636">
        <ele>464.158</ele>
        <time>2020-09-11T15:15:02Z</time>
      </trkpt>
      <trkpt lat="43.9237" lon="5.18634">
        <ele>464.274</ele>
        <time>2020-09-11T15:15:07Z</time>
      </trkpt>
      <trkpt lat="43.92374" lon="5.18633">
        <ele>465.156</ele>
        <time>2020-09-11T15:15:14Z</time>
      </trkpt>
      <trkpt lat="43.92379" lon="5.18635">
        <ele>464.721</ele>
        <time>2020-09-11T15:17:49Z</time>
      </trkpt>
      <trkpt lat="43.92384" lon="5.18631">
        <ele>465.008</ele>
        <time>2020-09-11T15:17:52Z</time>
      </trkpt>
      <trkpt lat="43.92389" lon="5.18628">
        <ele>465.012</ele>
        <time>2020-09-11T15:17:56Z</time>
      </trkpt>
      <trkpt lat="43.92393" lon="5.18626">
        <ele>465.773</ele>
        <time>2020-09-11T15:17:59Z</time>
      </trkpt>
      <trkpt lat="43.92398" lon="5.18624">
        <ele>465.232</ele>
        <time>2020-09-11T15:18:02Z</time>
      </trkpt>
      <trkpt lat="43.92404" lon="5.18623">
        <ele>465.22</ele>
        <time>2020-09-11T15:18:07Z</time>
      </trkpt>
      <trkpt lat="43.9241" lon="5.18619">
        <ele>465.222</ele>
        <time>2020-09-11T15:18:14Z</time>
      </trkpt>
      <trkpt lat="43.92414" lon="5.18615">
        <ele>464.972</ele>
        <time>2020-09-11T15:18:18Z</time>
      </trkpt>
      <trkpt lat="43.92419" lon="5.18612">
        <ele>465.662</ele>
        <time>2020-09-11T15:18:23Z</time>
      </trkpt>
      <trkpt lat="43.92423" lon="5.18608">
        <ele>465.761</ele>
        <time>2020-09-11T15:18:26Z</time>
      </trkpt>
      <trkpt lat="43.92428" lon="5.18606">
        <ele>465.329</ele>
        <time>2020-09-11T15:18:31Z</time>
      </trkpt>
      <trkpt lat="43.92433" lon="5.18605">
        <ele>465.3</ele>
        <time>2020-09-11T15:18:36Z</time>
      </trkpt>
      <trkpt lat="43.92438" lon="5.18604">
        <ele>465.32</ele>
        <time>2020-09-11T15:18:40Z</time>
      </trkpt>
      <trkpt lat="43.92443" lon="5.18605">
        <ele>464.208</ele>
        <time>2020-09-11T15:18:51Z</time>
      </trkpt>
      <trkpt lat="43.92447" lon="5.18602">
        <ele>463.017</ele>
        <time>2020-09-11T15:19:04Z</time>
      </trkpt>
      <trkpt lat="43.92453" lon="5.186">
        <ele>461.878</ele>
        <time>2020-09-11T15:19:12Z</time>
      </trkpt>
      <trkpt lat="43.92457" lon="5.18597">
        <ele>461.527</ele>
        <time>2020-09-11T15:19:20Z</time>
      </trkpt>
      <trkpt lat="43.92462" lon="5.18597">
        <ele>460.695</ele>
        <time>2020-09-11T15:19:27Z</time>
      </trkpt>
      <trkpt lat="43.92466" lon="5.18598">
        <ele>460.147</ele>
        <time>2020-09-11T15:19:33Z</time>
      </trkpt>
      <trkpt lat="43.92471" lon="5.18596">
        <ele>459.577</ele>
        <time>2020-09-11T15:19:39Z</time>
      </trkpt>
      <trkpt lat="43.92476" lon="5.18595">
        <ele>458.647</ele>
        <time>2020-09-11T15:19:48Z</time>
      </trkpt>
      <trkpt lat="43.9248" lon="5.18599">
        <ele>457.146</ele>
        <time>2020-09-11T15:20:02Z</time>
      </trkpt>
      <trkpt lat="43.92484" lon="5.18603">
        <ele>456.859</ele>
        <time>2020-09-11T15:20:09Z</time>
      </trkpt>
      <trkpt lat="43.92488" lon="5.18608">
        <ele>456.003</ele>
        <time>2020-09-11T15:20:16Z</time>
      </trkpt>
      <trkpt lat="43.92491" lon="5.18611">
        <ele>455.523</ele>
        <time>2020-09-11T15:20:27Z</time>
      </trkpt>
      <trkpt lat="43.92497" lon="5.18613">
        <ele>455.208</ele>
        <time>2020-09-11T15:20:36Z</time>
      </trkpt>
      <trkpt lat="43.92501" lon="5.18616">
        <ele>454.17</ele>
        <time>2020-09-11T15:21:05Z</time>
      </trkpt>
      <trkpt lat="43.92504" lon="5.18621">
        <ele>452.861</ele>
        <time>2020-09-11T15:21:15Z</time>
      </trkpt>
      <trkpt lat="43.92509" lon="5.18623">
        <ele>452.34</ele>
        <time>2020-09-11T15:21:24Z</time>
      </trkpt>
      <trkpt lat="43.92513" lon="5.18625">
        <ele>451.598</ele>
        <time>2020-09-11T15:21:33Z</time>
      </trkpt>
      <trkpt lat="43.92519" lon="5.18625">
        <ele>450.63</ele>
        <time>2020-09-11T15:21:41Z</time>
      </trkpt>
      <trkpt lat="43.92524" lon="5.18625">
        <ele>449.85</ele>
        <time>2020-09-11T15:21:48Z</time>
      </trkpt>
      <trkpt lat="43.92529" lon="5.18624">
        <ele>449.46</ele>
        <time>2020-09-11T15:21:56Z</time>
      </trkpt>
      <trkpt lat="43.92533" lon="5.18626">
        <ele>448.659</ele>
        <time>2020-09-11T15:22:06Z</time>
      </trkpt>
      <trkpt lat="43.92534" lon="5.18632">
        <ele>447.842</ele>
        <time>2020-09-11T15:22:31Z</time>
      </trkpt>
      <trkpt lat="43.92538" lon="5.18636">
        <ele>447.322</ele>
        <time>2020-09-11T15:22:45Z</time>
      </trkpt>
      <trkpt lat="43.92542" lon="5.18635">
        <ele>446.514</ele>
        <time>2020-09-11T15:22:54Z</time>
      </trkpt>
      <trkpt lat="43.92547" lon="5.18635">
        <ele>445.908</ele>
        <time>2020-09-11T15:23:02Z</time>
      </trkpt>
      <trkpt lat="43.92551" lon="5.18639">
        <ele>445.199</ele>
        <time>2020-09-11T15:23:14Z</time>
      </trkpt>
      <trkpt lat="43.92555" lon="5.18643">
        <ele>444.46</ele>
        <time>2020-09-11T15:23:25Z</time>
      </trkpt>
      <trkpt lat="43.92559" lon="5.18647">
        <ele>443.779</ele>
        <time>2020-09-11T15:23:33Z</time>
      </trkpt>
      <trkpt lat="43.92562" lon="5.18652">
        <ele>442.927</ele>
        <time>2020-09-11T15:23:39Z</time>
      </trkpt>
      <trkpt lat="43.92567" lon="5.18658">
        <ele>442.799</ele>
        <time>2020-09-11T15:23:45Z</time>
      </trkpt>
      <trkpt lat="43.92571" lon="5.18661">
        <ele>442.039</ele>
        <time>2020-09-11T15:23:53Z</time>
      </trkpt>
      <trkpt lat="43.92575" lon="5.18663">
        <ele>441.569</ele>
        <time>2020-09-11T15:24:01Z</time>
      </trkpt>
      <trkpt lat="43.92579" lon="5.18667">
        <ele>441.758</ele>
        <time>2020-09-11T15:24:27Z</time>
      </trkpt>
      <trkpt lat="43.92654" lon="5.18716">
        <ele>425.436</ele>
        <time>2020-09-11T15:27:45Z</time>
      </trkpt>
      <trkpt lat="43.92659" lon="5.1872">
        <ele>425.017</ele>
        <time>2020-09-11T15:27:57Z</time>
      </trkpt>
      <trkpt lat="43.92662" lon="5.1872">
        <ele>425.218</ele>
        <time>2020-09-11T15:28:20Z</time>
      </trkpt>
      <trkpt lat="43.92656" lon="5.18715">
        <ele>426.008</ele>
        <time>2020-09-11T15:28:47Z</time>
      </trkpt>
      <trkpt lat="43.9266" lon="5.18719">
        <ele>425.228</ele>
        <time>2020-09-11T15:29:11Z</time>
      </trkpt>
      <trkpt lat="43.92664" lon="5.18722">
        <ele>424.929</ele>
        <time>2020-09-11T15:29:31Z</time>
      </trkpt>
      <trkpt lat="43.92668" lon="5.18726">
        <ele>424.228</ele>
        <time>2020-09-11T15:29:38Z</time>
      </trkpt>
      <trkpt lat="43.92671" lon="5.18731">
        <ele>423.676</ele>
        <time>2020-09-11T15:29:52Z</time>
      </trkpt>
      <trkpt lat="43.92675" lon="5.18733">
        <ele>423.488</ele>
        <time>2020-09-11T15:29:57Z</time>
      </trkpt>
      <trkpt lat="43.9268" lon="5.18737">
        <ele>423.018</ele>
        <time>2020-09-11T15:30:03Z</time>
      </trkpt>
      <trkpt lat="43.92683" lon="5.18742">
        <ele>422.758</ele>
        <time>2020-09-11T15:30:17Z</time>
      </trkpt>
      <trkpt lat="43.92687" lon="5.18745">
        <ele>422.277</ele>
        <time>2020-09-11T15:30:22Z</time>
      </trkpt>
      <trkpt lat="43.92692" lon="5.18748">
        <ele>422.063</ele>
        <time>2020-09-11T15:30:28Z</time>
      </trkpt>
      <trkpt lat="43.92697" lon="5.18751">
        <ele>421.844</ele>
        <time>2020-09-11T15:30:33Z</time>
      </trkpt>
      <trkpt lat="43.927" lon="5.18755">
        <ele>421.318</ele>
        <time>2020-09-11T15:30:41Z</time>
      </trkpt>
      <trkpt lat="43.92704" lon="5.18758">
        <ele>420.808</ele>
        <time>2020-09-11T15:30:48Z</time>
      </trkpt>
      <trkpt lat="43.92709" lon="5.1876">
        <ele>420.411</ele>
        <time>2020-09-11T15:30:55Z</time>
      </trkpt>
      <trkpt lat="43.92713" lon="5.18763">
        <ele>420.242</ele>
        <time>2020-09-11T15:31:00Z</time>
      </trkpt>
      <trkpt lat="43.92718" lon="5.18767">
        <ele>419.731</ele>
        <time>2020-09-11T15:31:05Z</time>
      </trkpt>
      <trkpt lat="43.92722" lon="5.1877">
        <ele>419.219</ele>
        <time>2020-09-11T15:31:11Z</time>
      </trkpt>
      <trkpt lat="43.92726" lon="5.18773">
        <ele>418.871</ele>
        <time>2020-09-11T15:31:16Z</time>
      </trkpt>
      <trkpt lat="43.9273" lon="5.18776">
        <ele>417.981</ele>
        <time>2020-09-11T15:31:25Z</time>
      </trkpt>
      <trkpt lat="43.92734" lon="5.18779">
        <ele>417.271</ele>
        <time>2020-09-11T15:31:32Z</time>
      </trkpt>
      <trkpt lat="43.92739" lon="5.18781">
        <ele>416.48</ele>
        <time>2020-09-11T15:31:37Z</time>
      </trkpt>
      <trkpt lat="43.92743" lon="5.18785">
        <ele>416.438</ele>
        <time>2020-09-11T15:31:44Z</time>
      </trkpt>
      <trkpt lat="43.92747" lon="5.18787">
        <ele>415.87</ele>
        <time>2020-09-11T15:31:51Z</time>
      </trkpt>
      <trkpt lat="43.92752" lon="5.18791">
        <ele>415.617</ele>
        <time>2020-09-11T15:31:56Z</time>
      </trkpt>
      <trkpt lat="43.92756" lon="5.18795">
        <ele>415.408</ele>
        <time>2020-09-11T15:32:01Z</time>
      </trkpt>
      <trkpt lat="43.9276" lon="5.18798">
        <ele>414.948</ele>
        <time>2020-09-11T15:32:06Z</time>
      </trkpt>
      <trkpt lat="43.92765" lon="5.18801">
        <ele>414.669</ele>
        <time>2020-09-11T15:32:16Z</time>
      </trkpt>
      <trkpt lat="43.92769" lon="5.18805">
        <ele>414.488</ele>
        <time>2020-09-11T15:32:21Z</time>
      </trkpt>
      <trkpt lat="43.92774" lon="5.18808">
        <ele>414.056</ele>
        <time>2020-09-11T15:32:27Z</time>
      </trkpt>
      <trkpt lat="43.92779" lon="5.18812">
        <ele>413.468</ele>
        <time>2020-09-11T15:32:35Z</time>
      </trkpt>
      <trkpt lat="43.92782" lon="5.18815">
        <ele>413.398</ele>
        <time>2020-09-11T15:32:40Z</time>
      </trkpt>
      <trkpt lat="43.92786" lon="5.18819">
        <ele>412.828</ele>
        <time>2020-09-11T15:32:46Z</time>
      </trkpt>
      <trkpt lat="43.92791" lon="5.18823">
        <ele>412.517</ele>
        <time>2020-09-11T15:32:51Z</time>
      </trkpt>
      <trkpt lat="43.92794" lon="5.18828">
        <ele>412.645</ele>
        <time>2020-09-11T15:32:56Z</time>
      </trkpt>
      <trkpt lat="43.92798" lon="5.18832">
        <ele>412.347</ele>
        <time>2020-09-11T15:32:59Z</time>
      </trkpt>
      <trkpt lat="43.92802" lon="5.18836">
        <ele>412.211</ele>
        <time>2020-09-11T15:33:05Z</time>
      </trkpt>
      <trkpt lat="43.92807" lon="5.18841">
        <ele>412.008</ele>
        <time>2020-09-11T15:33:11Z</time>
      </trkpt>
      <trkpt lat="43.9281" lon="5.18845">
        <ele>411.939</ele>
        <time>2020-09-11T15:33:15Z</time>
      </trkpt>
      <trkpt lat="43.92814" lon="5.1885">
        <ele>411.95</ele>
        <time>2020-09-11T15:33:20Z</time>
      </trkpt>
      <trkpt lat="43.92818" lon="5.18853">
        <ele>411.799</ele>
        <time>2020-09-11T15:33:25Z</time>
      </trkpt>
      <trkpt lat="43.92822" lon="5.18856">
        <ele>412.137</ele>
        <time>2020-09-11T15:33:30Z</time>
      </trkpt>
      <trkpt lat="43.92827" lon="5.18859">
        <ele>411.579</ele>
        <time>2020-09-11T15:33:39Z</time>
      </trkpt>
      <trkpt lat="43.92831" lon="5.18862">
        <ele>410.889</ele>
        <time>2020-09-11T15:33:44Z</time>
      </trkpt>
      <trkpt lat="43.92835" lon="5.18866">
        <ele>410.599</ele>
        <time>2020-09-11T15:33:49Z</time>
      </trkpt>
      <trkpt lat="43.9284" lon="5.18869">
        <ele>410.388</ele>
        <time>2020-09-11T15:33:56Z</time>
      </trkpt>
      <trkpt lat="43.92844" lon="5.18873">
        <ele>410.019</ele>
        <time>2020-09-11T15:34:03Z</time>
      </trkpt>
      <trkpt lat="43.92849" lon="5.18875">
        <ele>409.809</ele>
        <time>2020-09-11T15:34:11Z</time>
      </trkpt>
      <trkpt lat="43.92853" lon="5.18877">
        <ele>409.219</ele>
        <time>2020-09-11T15:34:16Z</time>
      </trkpt>
      <trkpt lat="43.92858" lon="5.18882">
        <ele>408.608</ele>
        <time>2020-09-11T15:34:21Z</time>
      </trkpt>
      <trkpt lat="43.92863" lon="5.18882">
        <ele>408.666</ele>
        <time>2020-09-11T15:34:33Z</time>
      </trkpt>
      <trkpt lat="43.92867" lon="5.18885">
        <ele>408.037</ele>
        <time>2020-09-11T15:34:42Z</time>
      </trkpt>
      <trkpt lat="43.92871" lon="5.18889">
        <ele>408.026</ele>
        <time>2020-09-11T15:34:47Z</time>
      </trkpt>
      <trkpt lat="43.92875" lon="5.18894">
        <ele>407.524</ele>
        <time>2020-09-11T15:34:51Z</time>
      </trkpt>
      <trkpt lat="43.92879" lon="5.18896">
        <ele>407.146</ele>
        <time>2020-09-11T15:34:55Z</time>
      </trkpt>
      <trkpt lat="43.92884" lon="5.18897">
        <ele>406.476</ele>
        <time>2020-09-11T15:35:00Z</time>
      </trkpt>
      <trkpt lat="43.9289" lon="5.18896">
        <ele>405.436</ele>
        <time>2020-09-11T15:35:09Z</time>
      </trkpt>
      <trkpt lat="43.92895" lon="5.18898">
        <ele>404.365</ele>
        <time>2020-09-11T15:35:14Z</time>
      </trkpt>
      <trkpt lat="43.92899" lon="5.18895">
        <ele>403.792</ele>
        <time>2020-09-11T15:35:39Z</time>
      </trkpt>
      <trkpt lat="43.92906" lon="5.18896">
        <ele>402.573</ele>
        <time>2020-09-11T15:35:49Z</time>
      </trkpt>
      <trkpt lat="43.92915" lon="5.18896">
        <ele>401.52</ele>
        <time>2020-09-11T15:35:59Z</time>
      </trkpt>
      <trkpt lat="43.92919" lon="5.18896">
        <ele>401.408</ele>
        <time>2020-09-11T15:36:01Z</time>
      </trkpt>
      <trkpt lat="43.92924" lon="5.18898">
        <ele>400.844</ele>
        <time>2020-09-11T15:36:07Z</time>
      </trkpt>
      <trkpt lat="43.92929" lon="5.18897">
        <ele>399.795</ele>
        <time>2020-09-11T15:36:15Z</time>
      </trkpt>
      <trkpt lat="43.92934" lon="5.18897">
        <ele>398.674</ele>
        <time>2020-09-11T15:36:26Z</time>
      </trkpt>
      <trkpt lat="43.92939" lon="5.18896">
        <ele>397.782</ele>
        <time>2020-09-11T15:36:33Z</time>
      </trkpt>
      <trkpt lat="43.92943" lon="5.18895">
        <ele>396.924</ele>
        <time>2020-09-11T15:36:40Z</time>
      </trkpt>
      <trkpt lat="43.92948" lon="5.18893">
        <ele>395.964</ele>
        <time>2020-09-11T15:36:47Z</time>
      </trkpt>
      <trkpt lat="43.92952" lon="5.18893">
        <ele>394.714</ele>
        <time>2020-09-11T15:36:57Z</time>
      </trkpt>
      <trkpt lat="43.92957" lon="5.18893">
        <ele>393.593</ele>
        <time>2020-09-11T15:37:05Z</time>
      </trkpt>
      <trkpt lat="43.92963" lon="5.18892">
        <ele>392.745</ele>
        <time>2020-09-11T15:37:15Z</time>
      </trkpt>
      <trkpt lat="43.92968" lon="5.18892">
        <ele>391.647</ele>
        <time>2020-09-11T15:37:24Z</time>
      </trkpt>
      <trkpt lat="43.92973" lon="5.18891">
        <ele>391.311</ele>
        <time>2020-09-11T15:37:27Z</time>
      </trkpt>
      <trkpt lat="43.92978" lon="5.18891">
        <ele>390.708</ele>
        <time>2020-09-11T15:37:38Z</time>
      </trkpt>
      <trkpt lat="43.92983" lon="5.18891">
        <ele>390.019</ele>
        <time>2020-09-11T15:37:45Z</time>
      </trkpt>
      <trkpt lat="43.92988" lon="5.18893">
        <ele>388.32</ele>
        <time>2020-09-11T15:37:55Z</time>
      </trkpt>
      <trkpt lat="43.92993" lon="5.18895">
        <ele>388.269</ele>
        <time>2020-09-11T15:39:04Z</time>
      </trkpt>
      <trkpt lat="43.92998" lon="5.18896">
        <ele>385.537</ele>
        <time>2020-09-11T15:39:24Z</time>
      </trkpt>
      <trkpt lat="43.93003" lon="5.18895">
        <ele>384.859</ele>
        <time>2020-09-11T15:39:32Z</time>
      </trkpt>
      <trkpt lat="43.93007" lon="5.18895">
        <ele>384.279</ele>
        <time>2020-09-11T15:39:39Z</time>
      </trkpt>
      <trkpt lat="43.93013" lon="5.18897">
        <ele>383.359</ele>
        <time>2020-09-11T15:39:45Z</time>
      </trkpt>
      <trkpt lat="43.93019" lon="5.18898">
        <ele>383.298</ele>
        <time>2020-09-11T15:39:50Z</time>
      </trkpt>
      <trkpt lat="43.93023" lon="5.18898">
        <ele>382.635</ele>
        <time>2020-09-11T15:39:55Z</time>
      </trkpt>
      <trkpt lat="43.93028" lon="5.18899">
        <ele>382.386</ele>
        <time>2020-09-11T15:39:59Z</time>
      </trkpt>
      <trkpt lat="43.93032" lon="5.18901">
        <ele>382.214</ele>
        <time>2020-09-11T15:40:02Z</time>
      </trkpt>
      <trkpt lat="43.93037" lon="5.18904">
        <ele>382.108</ele>
        <time>2020-09-11T15:40:06Z</time>
      </trkpt>
      <trkpt lat="43.93042" lon="5.18905">
        <ele>381.928</ele>
        <time>2020-09-11T15:40:10Z</time>
      </trkpt>
      <trkpt lat="43.93047" lon="5.18907">
        <ele>381.379</ele>
        <time>2020-09-11T15:40:15Z</time>
      </trkpt>
      <trkpt lat="43.93051" lon="5.18911">
        <ele>381.528</ele>
        <time>2020-09-11T15:40:18Z</time>
      </trkpt>
      <trkpt lat="43.93055" lon="5.18914">
        <ele>381.546</ele>
        <time>2020-09-11T15:40:21Z</time>
      </trkpt>
      <trkpt lat="43.9306" lon="5.18917">
        <ele>381.568</ele>
        <time>2020-09-11T15:40:24Z</time>
      </trkpt>
      <trkpt lat="43.93066" lon="5.18919">
        <ele>381.698</ele>
        <time>2020-09-11T15:40:31Z</time>
      </trkpt>
      <trkpt lat="43.93071" lon="5.18919">
        <ele>381.648</ele>
        <time>2020-09-11T15:40:35Z</time>
      </trkpt>
      <trkpt lat="43.93076" lon="5.1892">
        <ele>381.667</ele>
        <time>2020-09-11T15:40:38Z</time>
      </trkpt>
      <trkpt lat="43.9308" lon="5.18921">
        <ele>381.614</ele>
        <time>2020-09-11T15:40:42Z</time>
      </trkpt>
      <trkpt lat="43.93084" lon="5.18922">
        <ele>381.554</ele>
        <time>2020-09-11T15:40:46Z</time>
      </trkpt>
      <trkpt lat="43.93083" lon="5.18915">
        <ele>379.209</ele>
        <time>2020-09-11T15:40:55Z</time>
      </trkpt>
      <trkpt lat="43.93082" lon="5.18908">
        <ele>378.808</ele>
        <time>2020-09-11T15:41:00Z</time>
      </trkpt>
      <trkpt lat="43.93086" lon="5.18903">
        <ele>379.226</ele>
        <time>2020-09-11T15:41:05Z</time>
      </trkpt>
      <trkpt lat="43.9309" lon="5.18902">
        <ele>379.177</ele>
        <time>2020-09-11T15:41:09Z</time>
      </trkpt>
      <trkpt lat="43.93095" lon="5.18902">
        <ele>379.356</ele>
        <time>2020-09-11T15:41:13Z</time>
      </trkpt>
      <trkpt lat="43.93101" lon="5.18906">
        <ele>379.344</ele>
        <time>2020-09-11T15:41:17Z</time>
      </trkpt>
      <trkpt lat="43.931" lon="5.18912">
        <ele>378.586</ele>
        <time>2020-09-11T15:41:43Z</time>
      </trkpt>
    </trkseg>
  </trk>
</gpx>